[[{"header":{"parameterUnit":"m.s-1","parameterCategory":1,"la1":30.6,"la2":29.2853,"lo1":-89.7004,"lo2":-87.6739,"dy":0.0162,"dx":0.0183,"nx":112,"ny":82,"refTime":"2023-06-18T18:00:00:Z","depth":0,"parameterNumber":2,"parameterNumberName":"U-component_of_WINDS"},"data":[0.0,0.0,0.0,0.0,0.0,0.0,0.0,0.0,0.0,0.0,0.0,0.0,0.0,0.0,0.0,0.0,0.0,0.0,0.0,0.0,0.0,0.0,0.0,0.0,0.0,0.0,0.0,0.0,0.0,0.0,0.0,0.0,0.0,0.0,0.0,0.0,0.0,0.0,0.0,0.0,0.0,0.0,0.0,0.0,0.0,0.0,0.0,0.0,0.0,0.0,0.0,0.0,0.0,0.0,0.0,0.0,0.0,0.0,0.0,0.0,0.0,0.0,0.0,0.0,0.0,0.0,0.0,0.0,0.0,0.0,0.0,0.0,0.0,0.0,0.0,0.0,0.0,0.0,0.0,0.0,0.0,0.0,0.0,0.0,0.0,0.0,0.0,0.0,0.0,0.0,0.0,-0.7154,-0.7961,-0.8449,-0.8613,-0.838,-0.8096,-0.7771,0.0,0.0,0.0,0.0,0.0,0.0,0.0,0.0,0.0,0.0,0.0,0.0,0.0,0.0,0.0,0.0,0.0,0.0,0.0,0.0,0.0,0.0,0.0,0.0,0.0,0.0,0.0,0.0,0.0,0.0,0.0,0.0,0.0,0.0,0.0,0.0,0.0,0.0,0.0,0.0,0.0,0.0,0.0,0.0,0.0,0.0,0.0,0.0,0.0,0.0,0.0,0.0,0.0,0.0,0.0,0.0,0.0,0.0,0.0,0.0,0.0,0.0,0.0,0.0,0.0,0.0,0.0,0.0,0.0,0.0,0.0,0.0,0.0,0.0,0.0,0.0,0.0,0.0,0.0,0.0,0.0,0.0,0.0,0.0,0.0,0.0,0.0,0.0,0.0,0.0,0.0,0.0,0.0,0.0,0.0,0.0,0.0,0.0,0.0,0.0,0.0,0.0,0.0,0.0,-0.5973,-0.7047,-0.7473,-0.7843,-0.8057,-0.7911,-0.7761,-0.7806,0.0,0.0,0.0,0.0,0.0,0.0,0.0,0.0,0.0,0.0,0.0,0.0,0.0,0.0,0.0,0.0,0.0,0.0,0.0,0.0,0.0,0.0,0.0,0.0,0.0,0.0,0.0,0.0,0.0,0.0,0.0,0.0,0.0,0.0,0.0,0.0,0.0,0.0,0.0,0.0,0.0,0.0,0.0,0.0,0.0,0.0,0.0,0.0,0.0,0.0,0.0,0.0,0.0,0.0,0.0,0.0,0.0,0.0,0.0,0.0,0.0,0.0,0.0,0.0,0.0,0.0,0.0,0.0,0.0,0.0,0.0,0.0,0.0,0.0,0.0,0.0,0.0,0.0,0.0,0.0,0.0,0.0,0.0,0.0,0.0,0.0,0.0,0.0,0.0,0.0,0.0,0.0,0.0,0.0,0.0,0.0,0.0,0.0,0.0,0.0,0.0,0.0,0.0,-0.5517,-0.6234,-0.6922,-0.7359,-0.758,-0.7743,-0.7601,-0.7462,-0.717,-0.6831,0.0,0.0,0.0,0.0,0.0,0.0,0.0,0.0,0.0,0.0,0.0,0.0,0.0,0.0,0.0,0.0,0.0,0.0,0.0,0.0,0.0,0.0,0.0,0.0,0.0,0.0,0.0,0.0,0.0,0.0,0.0,0.0,0.0,0.0,0.0,0.0,0.0,0.0,0.0,0.0,0.0,0.0,0.0,0.0,0.0,0.0,0.0,0.0,0.0,0.0,0.0,0.0,0.0,0.0,0.0,0.0,0.0,0.0,0.0,0.0,0.0,0.0,0.0,0.0,0.0,0.0,0.0,0.0,0.0,0.0,0.0,0.0,0.0,0.0,0.0,0.0,0.0,0.0,0.0,0.0,0.0,0.0,0.0,0.0,0.0,0.0,0.0,0.0,0.0,0.0,0.0,0.0,0.0,0.0,0.0,0.0,0.0,0.0,0.0,0.0,0.0,0.0,-0.5617,-0.6236,-0.6688,-0.7109,-0.7319,-0.7462,-0.7282,-0.6986,-0.6616,-0.6169,0.0,0.0,0.0,0.0,0.0,0.0,0.0,0.0,0.0,0.0,0.0,0.0,0.0,0.0,0.0,0.0,0.0,0.0,0.0,0.0,0.0,0.0,0.0,0.0,0.0,0.0,0.0,0.0,0.0,0.0,0.0,0.0,0.0,0.0,0.0,0.0,0.0,0.0,0.0,0.0,0.0,0.0,0.0,0.0,0.0,0.0,0.0,0.0,0.0,0.0,0.0,0.0,0.0,0.0,0.0,0.0,0.0,0.0,0.0,0.0,0.0,0.0,0.0,0.0,0.0,0.0,0.0,0.0,0.0,0.0,0.0,0.0,0.0,0.0,0.0,0.0,0.0,0.0,0.0,0.0,0.0,0.0,0.0,0.0,0.0,0.0,0.0,0.0,0.0,0.0,0.0,0.0,0.0,0.0,0.0,0.0,0.0,0.0,0.0,0.0,0.0,0.0,-0.5217,-0.5701,-0.6404,-0.6545,-0.6794,-0.706,-0.6718,-0.6518,-0.6458,-0.5895,0.0,0.0,0.0,0.0,0.0,0.0,0.0,0.0,0.0,0.0,0.0,0.0,0.0,0.0,0.0,0.0,0.0,0.0,0.0,0.0,0.0,0.0,0.0,0.0,0.0,0.0,0.0,0.0,0.0,0.0,0.0,0.0,0.0,0.0,0.0,0.0,0.0,0.0,0.0,0.0,0.0,0.0,0.0,0.0,0.0,0.0,0.0,0.0,0.0,0.0,0.0,0.0,0.0,0.0,0.0,0.0,0.0,0.0,0.0,0.0,0.0,0.0,0.0,0.0,0.0,0.0,0.0,0.0,0.0,0.0,0.0,0.0,0.0,0.0,0.0,0.0,0.0,0.0,0.0,0.0,0.0,0.0,0.0,0.0,0.0,0.0,0.0,0.0,0.0,0.0,0.0,0.0,0.0,0.0,0.0,0.0,0.0,0.0,0.0,0.0,0.0,0.0,-0.5054,-0.5486,0.0,-0.6311,-0.6537,-0.6734,-0.6554,-0.6288,-0.6009,0.0,0.0,0.0,0.0,0.0,0.0,0.0,0.0,0.0,0.0,0.0,0.0,0.0,0.0,0.0,0.0,0.0,0.0,0.0,0.0,0.0,0.0,0.0,0.0,0.0,0.0,0.0,0.0,0.0,0.0,0.0,0.0,0.0,0.0,0.0,0.0,0.0,0.0,0.0,0.0,0.0,0.0,0.0,0.0,0.0,0.0,0.0,0.0,0.0,0.0,0.0,0.0,0.0,0.0,0.0,0.0,0.0,0.0,0.0,0.0,0.0,0.0,0.0,0.0,0.0,0.0,0.0,0.0,0.0,0.0,0.0,0.0,0.0,0.0,0.0,0.0,0.0,0.0,0.0,0.0,0.0,0.0,0.0,0.0,0.0,0.0,0.0,0.0,0.0,0.0,0.0,0.0,0.0,0.0,0.0,0.0,0.0,0.0,0.0,0.0,0.0,0.0,-0.4304,-0.478,-0.5265,0.0,-0.5994,-0.6105,-0.6211,-0.6054,-0.5818,-0.5487,0.0,0.0,0.0,0.0,0.0,0.0,0.0,0.0,0.0,0.0,0.0,0.0,0.0,0.0,0.0,0.0,0.0,0.0,0.0,0.0,0.0,0.0,0.0,0.0,0.0,0.0,0.0,0.0,0.0,0.0,0.0,0.0,0.0,0.0,0.0,0.0,0.0,0.0,0.0,0.0,0.0,0.0,0.0,0.0,0.0,0.0,0.0,0.0,0.0,0.0,0.0,0.0,0.0,0.0,0.0,0.0,0.0,0.0,0.0,0.0,0.0,0.0,0.0,0.0,0.0,0.0,0.0,0.0,0.0,0.0,0.0,0.0,0.0,0.0,0.0,0.0,0.0,0.0,0.0,0.0,0.0,0.0,0.0,0.0,0.0,0.0,0.0,0.0,0.0,0.0,0.0,0.0,0.0,0.0,0.0,0.0,0.0,0.0,0.0,0.0,0.0,0.0,-0.4006,-0.4459,-0.4867,-0.5456,-0.5494,-0.5494,-0.5489,-0.5294,-0.4994,0.0,0.0,0.0,0.0,0.0,0.0,0.0,0.0,0.0,0.0,0.0,0.0,0.0,0.0,0.0,0.0,0.0,0.0,0.0,0.0,0.0,0.0,0.0,0.0,0.0,0.0,0.0,0.0,0.0,0.0,0.0,0.0,0.0,0.0,0.0,0.0,0.0,0.0,0.0,0.0,0.0,0.0,0.0,0.0,0.0,0.0,0.0,0.0,0.0,0.0,0.0,0.0,0.0,0.0,0.0,0.0,0.0,0.0,0.0,0.0,0.0,0.0,0.0,0.0,0.0,0.0,0.0,0.0,0.0,0.0,0.0,0.0,0.0,0.0,0.0,0.0,0.0,0.0,0.0,0.0,0.0,0.0,0.0,0.0,0.0,0.0,0.0,0.0,0.0,0.0,0.0,0.0,0.0,0.0,0.0,0.0,0.0,0.0,0.0,0.0,0.0,0.0,0.0,-0.3925,-0.4344,-0.4763,-0.5273,-0.5625,-0.576,-0.5613,-0.5541,-0.5351,-0.4989,0.0,0.0,0.0,0.0,0.0,0.0,0.0,0.0,0.0,0.0,0.0,0.0,0.0,0.0,0.0,0.0,0.0,0.0,0.0,0.0,0.0,0.0,0.0,0.0,0.0,0.0,0.0,0.0,0.0,0.0,0.0,0.0,0.0,0.0,0.0,0.0,0.0,0.0,0.0,0.0,0.0,0.0,0.0,0.0,0.0,0.0,0.0,0.0,0.0,0.0,0.0,0.0,0.0,0.0,0.0,0.0,0.0,0.0,0.0,0.0,0.0,0.0,0.0,0.0,0.0,0.0,0.0,0.0,0.0,0.0,0.0,0.0,0.0,0.0,0.0,0.0,0.0,0.0,0.0,0.0,0.0,0.0,0.0,0.0,0.0,0.0,0.0,0.0,0.0,0.0,0.0,0.0,0.0,0.0,0.0,0.0,0.0,0.0,0.0,0.0,0.0,0.0,-0.3667,-0.416,-0.465,-0.4924,-0.5357,-0.5483,-0.5368,-0.5289,-0.5125,-0.4754,0.0,0.0,0.0,0.0,0.0,0.0,0.0,0.0,0.0,0.0,0.0,0.0,0.0,0.0,0.0,0.0,0.0,0.0,0.0,0.0,0.0,0.0,0.0,0.0,0.0,0.0,0.0,0.0,0.0,0.0,0.0,0.0,0.0,0.0,0.0,0.0,0.0,0.0,0.0,0.0,0.0,0.0,0.0,0.0,0.0,0.0,0.0,0.0,0.0,0.0,0.0,0.0,0.0,0.0,0.0,0.0,0.0,0.0,0.0,0.0,0.0,0.0,0.0,0.0,0.0,0.0,0.0,0.0,0.0,0.0,0.0,0.0,0.0,0.0,0.0,0.0,0.0,0.0,0.0,0.0,0.0,0.0,0.0,0.0,0.0,0.0,0.0,0.0,0.0,0.0,0.0,0.0,0.0,0.0,0.0,0.0,0.0,0.0,0.0,0.0,0.0,0.0,-0.3408,-0.3959,-0.442,-0.4684,-0.4931,-0.5046,-0.5026,-0.4878,-0.4638,-0.4332,0.0,0.0,0.0,0.0,0.0,0.0,0.0,0.0,0.0,0.0,0.0,0.0,0.0,0.0,0.0,0.0,0.0,0.0,0.0,0.0,0.0,0.0,0.0,0.0,0.0,0.0,0.0,0.0,0.0,0.0,0.0,0.0,0.0,0.0,0.0,0.0,0.0,0.0,0.0,0.0,0.0,0.0,0.0,0.0,0.0,0.0,0.0,0.0,0.0,0.0,0.0,0.0,0.0,0.0,0.0,0.0,0.0,0.0,0.0,0.0,-0.1189,0.0,0.0,0.0,0.0,0.0,0.0,0.0,0.0,0.0,0.0,0.0,0.0,0.0,0.0,0.0,0.0,0.0,0.0,0.0,0.0,0.0,0.0,0.0,0.0,0.0,0.0,0.0,0.0,0.0,0.0,0.0,0.0,0.0,0.0,0.0,0.0,0.0,0.0,0.0,0.0,0.0,-0.3388,-0.3777,-0.4159,-0.4416,-0.4651,-0.4676,-0.4554,-0.4512,-0.4383,-0.4124,-0.4006,0.0,0.0,0.0,0.0,0.0,0.0,0.0,0.0,0.0,0.0,0.0,0.0,0.0,0.0,0.0,0.0,0.0,0.0,0.0,0.0,0.0,0.0,0.0,0.0,0.0,0.0,0.0,0.0,0.0,0.0,0.0,0.0,0.0,0.0,0.0,0.0,0.0,0.0,0.0,0.0,0.0,0.0,0.0,0.0,0.0,0.0,0.0,0.0,0.0,0.0,0.0,0.0,0.0,0.0,0.0,0.0,0.0,0.0,0.0,0.0,-0.1514,0.0,0.0,0.0,0.0,0.0,0.0,0.0,0.0,0.0,0.0,0.0,0.0,0.0,0.0,0.0,0.0,0.0,0.0,0.0,0.0,0.0,0.0,0.0,0.0,0.0,0.0,0.0,0.0,0.0,0.0,0.0,0.0,0.0,0.0,0.0,0.0,0.0,0.0,0.0,0.0,-0.3286,-0.3633,-0.4092,-0.423,-0.4541,-0.4674,-0.4596,-0.4442,-0.4342,-0.405,-0.3937,0.0,0.0,0.0,0.0,0.0,0.0,0.0,0.0,0.0,0.0,0.0,0.0,0.0,0.0,0.0,0.0,0.0,0.0,0.0,0.0,0.0,0.0,0.0,0.0,0.0,0.0,0.0,0.0,0.0,0.0,0.0,0.0,0.0,0.0,0.0,0.0,0.0,0.0,0.0,0.0,0.0,0.0,0.0,0.0,0.0,0.0,0.0,0.0,0.0,0.0,0.0,0.0,0.0,0.0,0.0,-0.2104,-0.241,-0.2534,-0.2562,-0.2177,-0.1992,-0.1962,0.0,0.0,0.0,0.0,0.0,0.0,0.0,0.0,0.0,0.0,0.0,0.0,0.0,0.0,0.0,0.0,0.0,0.0,0.0,0.0,0.0,0.0,0.0,0.0,0.0,-0.2458,-0.2405,0.0,0.0,0.0,0.0,0.0,0.0,0.0,0.0,0.0,0.0,0.0,0.0,-0.3052,-0.3578,-0.4008,-0.4139,-0.44,-0.4522,-0.4509,-0.4454,-0.4265,-0.3948,-0.3826,-0.3362,0.0,0.0,0.0,0.0,0.0,0.0,0.0,0.0,0.0,0.0,0.0,0.0,0.0,0.0,0.0,0.0,0.0,0.0,0.0,0.0,0.0,0.0,0.0,0.0,0.0,0.0,0.0,0.0,0.0,0.0,0.0,0.0,0.1009,0.0842,0.0,0.0,0.0,0.0,0.0,0.0,0.0,0.0,0.0,0.0,0.0,0.0,0.0,0.0,-0.1638,-0.1865,-0.2002,-0.2149,-0.2429,-0.258,-0.2592,-0.2741,-0.2764,-0.2766,-0.295,0.0,-0.2374,-0.2425,0.0,0.0,0.0,0.0,0.0,0.0,0.0,0.0,0.0,0.0,0.0,0.0,0.0,0.0,0.0,0.0,0.0,0.0,0.0,0.0,0.0,0.0,-0.2733,-0.2737,-0.2453,-0.2046,0.0,-0.1954,-0.1669,-0.1547,0.0,0.0,0.0,0.0,0.0,0.0,0.0,0.0,-0.3112,-0.3561,-0.3911,-0.3913,-0.397,-0.4102,-0.4052,-0.4041,-0.3965,-0.3791,-0.3375,-0.3176,-0.2957,-0.2408,0.0,0.0,0.0,0.0,0.0,0.0,0.0,0.0,0.0,0.0,0.0,0.0,0.0,0.0,0.0,0.0,0.0,0.0,0.0,0.0,0.0,0.0,0.0,0.0,0.0,0.0,0.0,0.0,0.0,0.0804,0.0689,0.0607,0.0412,0.0211,0.0,0.0,0.0,0.0,0.0,0.0,0.0,0.0,0.0,-0.1631,-0.1879,-0.1933,-0.1985,-0.2361,-0.2524,-0.2567,-0.2974,-0.3139,-0.3167,-0.3308,-0.3438,-0.3438,-0.3556,-0.3498,-0.3282,-0.3134,-0.3055,-0.3023,0.0,0.0,0.0,0.0,0.0,-0.311,-0.3185,0.0,0.0,0.0,0.0,0.0,0.0,0.0,0.0,0.0,0.0,0.0,0.0,0.0,0.0,-0.2549,-0.2345,-0.2137,-0.2078,-0.1929,-0.1854,0.0,-0.1606,-0.1615,-0.1647,0.0,0.0,0.0,0.0,0.0,-0.2945,-0.3358,-0.3671,-0.4036,-0.4071,-0.4076,-0.4052,-0.4049,-0.3862,-0.36,-0.3448,-0.3128,-0.2529,-0.2234,-0.1942,0.0,0.0,0.0,0.0,0.0,0.0,0.0,0.0,0.0,0.0,0.0,0.0,0.0,0.0,0.0,0.0,0.0,0.0,0.0,0.0,0.0,0.0,0.0,0.0,0.0,0.0,0.0,0.0,0.0452,0.0138,-0.0075,-0.0303,-0.0464,0.0,0.0,0.0,0.0,0.0,0.0,-0.1727,-0.1852,-0.1908,-0.1998,-0.2267,-0.2433,-0.2485,-0.2905,-0.3087,-0.3136,-0.3554,-0.3733,-0.3663,-0.3915,-0.4041,-0.4041,-0.4041,-0.4041,-0.4022,-0.3779,-0.3651,-0.3613,-0.3613,-0.3474,0.0,-0.3531,-0.3526,-0.3416,-0.351,-0.3504,-0.3496,-0.345,0.0,-0.3401,-0.3341,0.0,0.0,0.0,0.0,-0.2923,-0.2934,0.0,-0.2551,-0.2384,-0.2279,-0.2176,-0.2112,-0.1999,-0.1952,0.0,-0.1756,-0.176,-0.1791,0.0,0.0,0.0,0.0,-0.2506,-0.2843,-0.3238,-0.3532,-0.3752,-0.3891,-0.3891,-0.3891,-0.3891,-0.3719,-0.3376,-0.3346,-0.2901,-0.2305,-0.2125,-0.1943,-0.1652,0.0,0.0,0.0,0.0,0.0,0.0,0.0,0.0,0.0,0.0,0.0,0.0,0.0,0.0,0.0,0.0,0.0,0.0,0.0,0.0,0.0,0.0,0.0,0.0,0.0,0.0,0.0,0.0,0.0,-0.1408,-0.1088,0.0,0.0,0.0,0.0,-0.1609,-0.1836,-0.2002,-0.2111,-0.2437,-0.2625,-0.2799,-0.2809,-0.2973,-0.3066,-0.3367,-0.3544,-0.3722,-0.4039,-0.4232,-0.4289,-0.4289,-0.4289,-0.4289,-0.4289,-0.4289,-0.427,-0.4027,-0.3927,-0.3927,-0.3927,-0.3927,-0.3916,-0.3858,-0.3837,-0.3828,-0.3771,-0.3752,-0.3752,-0.3747,-0.3709,-0.3649,-0.3589,-0.3385,0.0,0.0,-0.2962,-0.2768,-0.2932,-0.2701,-0.2466,-0.2506,-0.2264,-0.202,-0.2053,-0.206,-0.2031,0.0,-0.1896,-0.1887,-0.1917,0.0,-0.19,-0.196,-0.2242,-0.2515,-0.252,-0.2935,-0.3109,-0.3157,-0.3163,-0.3163,-0.3163,-0.3163,-0.3142,-0.3093,-0.2759,-0.2587,-0.2455,-0.2086,-0.1778,-0.1744,-0.1656,0.0,0.0,0.0,0.0,0.0,0.0,0.0,0.0,0.0,0.0,0.0,0.0,0.0,0.0,0.0,0.0,0.0,0.0,0.0,0.0,0.0,0.0,0.0,0.0,0.0,0.0,0.0,0.0,-0.1538,-0.1463,0.0,0.0,-0.1796,-0.2036,-0.1947,-0.232,-0.251,-0.261,-0.2729,-0.2915,-0.3075,-0.3231,-0.3406,-0.3475,-0.3957,-0.4147,-0.4166,-0.436,-0.4398,-0.442,-0.442,-0.4442,-0.448,-0.448,-0.4501,-0.4531,-0.4444,-0.4319,-0.418,-0.405,-0.418,-0.4177,-0.4155,-0.4147,-0.4274,-0.4123,-0.4117,-0.4104,-0.3771,-0.3564,-0.3487,-0.3229,-0.3138,-0.3064,-0.3111,-0.2906,-0.2694,-0.2734,-0.2482,-0.2229,-0.2261,-0.2268,-0.2144,-0.2174,-0.2181,-0.2172,-0.2139,-0.2061,-0.2004,-0.2015,-0.2008,-0.2008,-0.203,-0.2187,-0.2345,-0.2631,-0.28,-0.2974,-0.3152,-0.3293,-0.3281,-0.3253,-0.3251,-0.3084,-0.2752,-0.2592,-0.2417,-0.2225,-0.2055,-0.1879,-0.1809,-0.1757,-0.1384,0.0,0.0,0.0,0.0,0.0,0.0,0.0,0.0,0.0,0.0,0.0,0.0,0.0,0.0,0.0,0.0,0.0,0.0,0.0,0.0,0.0,0.0,0.0,0.0,0.0,0.0,-0.163,-0.1657,-0.1679,-0.1711,-0.188,-0.2152,-0.2302,-0.2425,-0.2832,-0.3034,-0.3131,-0.327,-0.3344,-0.3479,-0.3794,-0.398,-0.4034,-0.425,-0.4436,-0.4458,-0.4515,-0.4553,-0.4575,-0.4597,-0.4627,-0.4665,-0.4665,-0.4687,-0.4725,-0.4725,-0.4632,-0.4485,-0.4444,-0.4428,-0.4428,-0.4428,-0.4414,-0.4395,-0.4237,-0.4232,-0.408,-0.3585,-0.3382,-0.3328,-0.3056,-0.2955,-0.2866,-0.2894,-0.2665,-0.2431,-0.2452,-0.2322,-0.2191,-0.221,-0.2215,-0.2221,-0.2241,-0.2245,-0.2245,-0.2245,-0.2172,-0.2113,-0.2123,-0.2117,-0.2113,-0.2124,-0.2143,-0.2297,-0.2455,-0.2478,-0.264,-0.2943,-0.2945,-0.2934,-0.2907,-0.2893,-0.2864,-0.2545,-0.2386,-0.2343,-0.2023,-0.1993,-0.1948,-0.1888,-0.1597,-0.1216,-0.0536,0.0,0.0,0.0,0.0,0.0,0.0,0.0,0.0,0.0,0.0,0.0,0.0,0.0,0.0,0.0,0.0,0.0,0.0,0.0,0.0,0.0,0.0,0.0,-0.1578,-0.1567,-0.1663,-0.1655,-0.1692,-0.1842,-0.2242,-0.2285,-0.2554,-0.2945,-0.3236,-0.3432,-0.3663,-0.3976,-0.4188,-0.4308,-0.4371,-0.4431,-0.4488,-0.4491,-0.4521,-0.4583,-0.4643,-0.47,-0.476,-0.4818,-0.4848,-0.4848,-0.4848,-0.485,-0.485,-0.4853,-0.4853,-0.4842,-0.4717,-0.467,-0.467,-0.467,-0.4632,-0.4572,-0.4095,-0.3935,-0.3785,-0.332,-0.3166,-0.3156,-0.3115,-0.2861,-0.2755,-0.2757,-0.2506,-0.2249,-0.2251,-0.2251,-0.2251,-0.2251,-0.2251,-0.2251,-0.2251,-0.2251,-0.2251,-0.2251,-0.2228,-0.2215,-0.2241,-0.2221,-0.2211,-0.2241,-0.2247,0.0,-0.2247,-0.2248,-0.2248,-0.2248,-0.2248,-0.2248,-0.2247,-0.2219,-0.2203,-0.2202,-0.2146,-0.2112,-0.211,-0.2027,-0.1979,-0.1977,-0.1279,-0.0668,-0.0,0.0,0.0,0.0,0.0,0.0,0.0,0.0,0.0,0.0,0.0,0.0,0.0,0.0,0.0,0.0,0.0,0.0,0.0,0.0,0.0,0.0,0.0,-0.1722,-0.1715,-0.1699,-0.1786,-0.175,-0.203,-0.2314,-0.2478,-0.2909,-0.3332,-0.3344,-0.3807,-0.4023,-0.4097,-0.4292,-0.4357,-0.4433,-0.4493,-0.4553,-0.4613,-0.4657,-0.4711,-0.4771,-0.4788,-0.4804,-0.482,-0.4839,-0.4869,-0.491,-0.491,-0.4935,-0.4976,-0.5019,-0.5038,-0.5022,-0.4858,-0.4796,-0.4796,-0.4796,-0.4636,-0.432,-0.386,-0.3686,-0.351,-0.3207,-0.3038,-0.2868,-0.2572,-0.2432,-0.2445,-0.2468,-0.2481,-0.2346,-0.2368,-0.2375,-0.2375,-0.2375,-0.2375,-0.2375,-0.2375,-0.2375,-0.2375,-0.2375,-0.2368,-0.2337,-0.2259,-0.2238,-0.2236,-0.2244,-0.2264,0.0,-0.2278,-0.2296,-0.2308,-0.2308,-0.2308,-0.2301,-0.2279,-0.2271,-0.2256,-0.2234,-0.2196,-0.2165,-0.2143,-0.2097,-0.2042,-0.1978,-0.1823,-0.1441,0.0,0.0,0.0,0.0,0.0,0.0,0.0,0.0,0.0,0.0,0.0,0.0,0.0,0.0,0.0,0.0,0.0,0.0,0.0,0.0,0.0,0.0,-0.1785,-0.1763,-0.1805,-0.1834,-0.177,-0.1843,-0.2248,-0.2546,-0.2725,-0.3278,-0.3712,-0.3888,-0.4084,-0.4292,-0.4376,-0.4439,-0.4488,-0.4521,-0.4605,-0.4668,-0.4703,-0.4763,-0.4812,-0.4845,-0.4872,-0.4883,-0.4886,-0.4907,-0.4937,0.0,-0.5,-0.5027,-0.5063,-0.5125,-0.515,0.0,0.0,0.0,0.0,0.0,-0.429,-0.3964,-0.3487,-0.3315,-0.3297,-0.2847,-0.2684,-0.2667,-0.2371,-0.2371,-0.2375,-0.2393,-0.2397,-0.2401,-0.2418,-0.2424,-0.2424,-0.2424,-0.2424,-0.2424,-0.2424,-0.2424,-0.2424,-0.2424,0.0,0.0,-0.2333,-0.232,-0.232,-0.232,-0.2335,-0.2346,0.0,-0.2349,-0.2352,-0.2352,-0.2341,-0.2326,-0.2309,-0.2297,0.0,0.0,0.0,-0.22,-0.2157,-0.2138,0.0,0.0,0.0,-0.1892,-0.1519,0.0,0.0,0.0,-0.1929,-0.2072,0.0,0.0,0.0,0.0,0.0,0.0,0.0,0.0,0.0,0.0,0.0,0.0,0.0,0.0,0.0,0.0,-0.1813,-0.1908,-0.1884,-0.1853,-0.185,-0.1932,-0.2339,-0.2766,-0.3103,-0.3505,-0.3808,-0.4319,-0.4333,-0.4384,-0.4488,0.0,0.0,0.0,0.0,-0.476,-0.4777,-0.4828,-0.4858,-0.4867,-0.4921,-0.4946,-0.4948,-0.5006,-0.503,-0.5036,-0.5095,-0.5123,-0.5125,-0.5188,-0.5053,-0.5058,-0.5045,-0.4877,-0.4214,-0.3813,-0.3601,0.0,0.0,0.0,0.0,-0.2591,-0.2436,-0.2433,-0.2433,-0.2433,-0.2433,-0.2433,-0.2433,-0.2433,-0.2433,-0.2433,-0.2433,-0.2433,-0.2433,-0.2433,-0.2433,-0.2433,-0.2433,-0.2433,-0.2433,-0.2433,-0.2433,-0.2428,-0.2424,-0.2424,-0.2424,0.0,-0.2424,-0.2399,-0.2383,-0.2383,0.0,0.0,-0.2338,-0.2315,-0.23,-0.2296,-0.2267,-0.2223,-0.2163,-0.2163,-0.2139,-0.2086,-0.2082,-0.2093,-0.2116,-0.2151,-0.2166,-0.2163,-0.1977,-0.2345,0.0,0.0,0.0,0.0,0.0,0.0,0.0,0.0,0.0,0.0,0.0,0.0,0.0,0.0,0.0,-0.1825,-0.1913,-0.1883,-0.1949,-0.1969,-0.1982,-0.2,-0.2563,-0.3146,-0.3197,-0.3912,-0.4237,-0.4444,-0.4493,-0.4531,-0.4553,-0.4613,0.0,-0.4719,-0.4744,-0.4804,-0.4899,-0.4913,-0.4943,-0.4986,0.0,0.0,-0.5006,-0.5066,-0.5093,-0.5098,-0.5158,-0.5185,-0.5191,-0.4921,-0.4473,-0.4336,-0.4583,-0.439,-0.3901,-0.3399,-0.3225,-0.3219,-0.2891,-0.2711,-0.2693,-0.2533,-0.2517,-0.2497,-0.2497,-0.2497,0.0,-0.2497,-0.2497,-0.2497,-0.2497,-0.2497,-0.2497,-0.2497,-0.2497,-0.2497,-0.2497,-0.2497,-0.2497,-0.2497,-0.2497,-0.2497,-0.2497,-0.2457,-0.2424,-0.2424,-0.2424,-0.2424,-0.2424,-0.2418,-0.2414,-0.2414,-0.2409,-0.2395,-0.2372,-0.2364,-0.235,-0.2326,-0.2297,-0.2258,-0.2204,-0.2219,-0.2222,-0.221,-0.2193,-0.2203,-0.2238,-0.2247,-0.2243,-0.2228,-0.2077,-0.2348,0.0,0.0,0.0,0.0,0.0,0.0,0.0,0.0,0.0,0.0,0.0,-0.04,0.0,0.0,-0.1565,-0.1948,-0.1891,-0.1958,-0.2033,-0.2054,-0.2064,-0.2064,-0.2762,-0.3214,-0.3259,-0.3991,-0.4466,-0.4523,-0.4556,-0.4586,-0.4619,-0.4649,-0.4692,-0.4752,-0.4785,-0.4845,-0.4935,-0.4965,-0.4992,-0.5022,-0.5022,-0.5036,-0.5068,-0.5098,-0.5128,-0.5161,-0.5221,-0.5084,-0.4923,-0.4482,-0.4015,-0.3696,-0.3821,-0.3793,-0.361,-0.3116,-0.2941,-0.2928,-0.2601,-0.2593,-0.2581,-0.2581,-0.2571,-0.2557,-0.2557,-0.2548,-0.2537,-0.2537,-0.2526,-0.2514,-0.2514,-0.2514,-0.2514,-0.2514,-0.2514,-0.2514,-0.2514,-0.2514,-0.2514,-0.2514,-0.2514,-0.2514,-0.2514,-0.2489,-0.2469,-0.2469,-0.2469,-0.2469,-0.2469,-0.2455,-0.2446,-0.2446,-0.2432,-0.2417,-0.2402,-0.2387,-0.2372,-0.2357,-0.2328,-0.2294,-0.2253,-0.2277,-0.2275,-0.2247,-0.2244,-0.2249,-0.2259,-0.2259,-0.2253,-0.2526,-0.256,-0.2698,0.0,0.0,0.0,0.0,0.0,0.0,0.0,0.0,-0.0,-0.0,-0.0206,-0.0647,-0.1624,-0.1919,-0.1883,-0.1932,-0.1975,-0.2027,-0.2099,-0.2114,-0.212,-0.2127,-0.2818,-0.3263,-0.3318,-0.4053,-0.4526,-0.4586,-0.4591,-0.4613,-0.4662,-0.4665,-0.4698,-0.4771,-0.482,-0.488,-0.4951,-0.4997,-0.5022,-0.5022,-0.5033,-0.5063,-0.5112,-0.5136,-0.5175,-0.5224,-0.5119,-0.4814,-0.4318,-0.4021,-0.3701,-0.3199,-0.3199,-0.3179,-0.3155,-0.2822,-0.2641,-0.2619,-0.2619,-0.2615,-0.2611,-0.2611,-0.2604,-0.2597,-0.2601,-0.2589,-0.2572,-0.257,-0.2551,-0.2532,-0.2532,-0.2532,-0.2532,-0.2532,-0.2532,-0.253,-0.2525,-0.2523,-0.2521,-0.2515,-0.2514,-0.2514,-0.2357,-0.22,-0.2357,-0.2514,-0.2514,-0.2514,-0.2514,-0.2493,-0.2477,-0.2477,-0.2455,-0.2439,-0.2433,-0.2405,-0.2386,-0.2382,-0.2363,-0.2339,-0.2318,-0.2338,-0.233,-0.2288,-0.2297,-0.2294,-0.2279,-0.2279,-0.2422,-0.2849,-0.3056,-0.3333,0.1668,0.1524,0.0,0.1324,0.0914,0.0471,0.0,0.0,-0.0,-0.0,-0.0978,-0.1681,-0.1138,-0.1543,-0.1963,-0.197,-0.2041,-0.2098,-0.2108,-0.2132,-0.2159,-0.2187,-0.2877,-0.3322,-0.341,-0.4134,-0.4589,-0.4649,-0.4654,-0.4657,-0.4662,-0.4665,-0.4717,-0.4831,-0.4842,-0.4899,-0.5011,-0.5019,-0.5022,-0.5022,-0.5076,-0.5106,-0.5115,-0.5224,-0.5278,-0.5286,-0.4846,-0.4365,-0.3528,-0.3532,-0.3197,-0.2861,-0.2861,-0.2691,-0.2687,-0.2687,-0.2686,-0.2683,-0.2683,-0.2664,-0.2642,-0.2642,-0.2612,-0.2579,-0.2597,-0.2612,-0.262,-0.2602,-0.2594,-0.2592,-0.2592,-0.2592,-0.2592,-0.2592,-0.2592,-0.2585,-0.256,-0.2555,-0.2547,-0.2519,-0.2514,-0.22,-0.1571,-0.1414,-0.1728,-0.2357,-0.2514,-0.2514,-0.2514,-0.2511,-0.2508,-0.2508,-0.2506,-0.2493,-0.2466,-0.2436,-0.2412,-0.2394,-0.2406,-0.2412,-0.2409,-0.2412,-0.2418,-0.2431,-0.2416,-0.2406,-0.2403,-0.2403,-0.2554,-0.3006,-0.3313,-0.3718,0.1626,0.0,0.0,0.0,0.0992,0.0511,0.0103,-0.0,-0.0,-0.0,-0.1031,-0.1884,-0.1675,-0.1842,-0.2012,0.0,-0.2086,-0.2116,-0.2133,-0.2162,-0.2192,-0.2222,-0.2941,-0.3392,-0.3428,-0.4174,-0.4638,-0.4662,-0.4665,-0.4665,-0.4665,-0.4698,-0.4758,-0.4842,-0.488,-0.4937,-0.5019,-0.5022,-0.5022,-0.5022,-0.5082,-0.5131,-0.5166,-0.5254,-0.5148,-0.4846,-0.4197,-0.3701,-0.3367,-0.3029,-0.2872,-0.2717,-0.2699,-0.2703,-0.2717,-0.2699,-0.2692,-0.2692,-0.2692,-0.2684,-0.2673,-0.2673,-0.266,-0.2645,-0.2653,-0.2649,-0.2639,-0.2631,-0.2615,-0.2601,-0.2601,-0.2601,-0.2601,-0.2601,-0.2602,-0.2601,-0.2589,-0.2586,-0.2421,-0.1926,-0.2246,-0.2407,-0.2086,-0.1604,-0.1443,-0.1764,-0.222,-0.2514,-0.2514,-0.2514,-0.2514,-0.2514,-0.2514,-0.2508,-0.2496,-0.2462,-0.244,-0.2439,-0.2429,-0.2424,-0.2424,-0.2435,-0.244,-0.2436,-0.2428,-0.2424,-0.2424,-0.2727,-0.3029,-0.333,-0.3812,-0.4261,0.164,0.0,0.0,0.1541,0.1269,0.0761,0.0111,-0.0,-0.0,-0.0,-0.095,-0.1819,-0.1971,-0.2007,0.0,-0.209,-0.211,-0.2129,-0.2151,-0.2181,-0.2211,-0.2241,-0.298,-0.3437,-0.3451,-0.4206,-0.4665,-0.4665,-0.4665,-0.4665,-0.4665,-0.4722,-0.4782,-0.4845,-0.4905,-0.4965,-0.5019,-0.5022,-0.503,-0.5046,-0.5106,-0.5169,-0.5229,-0.5124,-0.4841,-0.4374,-0.3701,-0.3372,-0.3213,-0.2874,-0.2722,-0.2748,-0.2727,-0.2731,-0.2747,-0.2725,-0.2706,-0.2692,-0.2692,-0.2692,-0.2692,-0.2692,-0.2692,-0.2692,-0.2692,-0.2677,-0.266,-0.266,-0.2643,-0.2627,-0.2627,-0.2627,-0.2627,-0.2627,-0.2628,-0.2627,-0.2292,-0.2454,-0.2451,-0.1792,-0.179,-0.179,-0.179,-0.1302,-0.0977,-0.0977,-0.1605,-0.2221,-0.2221,-0.2373,-0.2527,-0.2527,-0.2519,-0.2514,-0.2514,-0.2488,-0.2474,-0.2481,-0.2461,-0.2448,-0.2448,-0.2463,-0.2463,-0.2448,-0.2448,-0.2448,-0.2601,-0.2907,-0.3366,-0.3822,-0.4167,-0.465,0.0,0.0,0.1568,0.1731,0.1659,0.135,0.0229,-0.0,-0.0,-0.0,-0.0603,-0.1213,-0.1848,-0.2023,-0.2063,-0.2065,-0.2114,-0.2154,-0.2155,-0.2181,-0.2211,-0.2241,-0.298,-0.3451,0.0,-0.4226,-0.4665,-0.4665,-0.4665,-0.4665,-0.4665,-0.4722,-0.4782,-0.4845,-0.4905,-0.4965,-0.5019,-0.5022,-0.5049,-0.5109,-0.5169,-0.5232,-0.5292,-0.4851,-0.4204,-0.3367,-0.3367,-0.3218,-0.2736,-0.2736,-0.2754,-0.2782,-0.2781,-0.2781,-0.2782,-0.2781,-0.2743,-0.2692,-0.2692,-0.2692,-0.2692,-0.2692,-0.2692,-0.2692,-0.2692,-0.2691,-0.2691,-0.2691,-0.269,-0.269,-0.269,-0.269,-0.269,-0.269,-0.269,-0.2514,-0.1493,-0.1987,-0.2641,-0.2448,-0.1139,-0.0,-0.0,-0.0,-0.0,-0.0,-0.0813,-0.1301,-0.1301,-0.2092,-0.2559,-0.2559,-0.2532,-0.2514,-0.2514,-0.2514,-0.2512,-0.2512,-0.2512,-0.2511,-0.2511,-0.2512,-0.2512,-0.2511,-0.2511,-0.2668,-0.3135,-0.3135,-0.3607,-0.4393,-0.4395,-0.4552,0.0,0.0,0.154,0.1237,0.1386,0.1415,0.0237,-0.0,-0.0,-0.0,-0.049,-0.1231,-0.1876,-0.2022,-0.2048,-0.2087,-0.211,-0.2132,-0.2151,-0.2199,-0.2234,-0.2244,-0.2718,0.0,0.0,0.0,0.0,-0.4665,-0.4665,-0.4665,-0.4665,-0.476,-0.4826,-0.4845,-0.494,-0.5003,-0.5022,-0.5022,-0.5052,-0.5112,-0.4887,-0.4796,-0.4851,-0.4199,-0.3701,-0.3367,-0.3053,-0.2898,-0.2739,-0.2759,-0.2787,-0.2811,-0.2791,-0.2796,-0.2811,-0.2791,-0.277,-0.275,-0.2729,-0.2709,-0.2692,-0.2692,-0.2692,-0.2692,-0.2692,-0.2692,-0.2692,-0.2692,-0.2692,-0.2524,-0.185,-0.185,-0.185,-0.185,-0.2188,-0.2692,-0.2346,-0.1507,-0.0836,-0.0833,-0.0333,-0.0,-0.0,-0.0,-0.0,-0.0,-0.0329,-0.0488,-0.0488,-0.1622,-0.259,-0.259,-0.2568,-0.2551,-0.2545,-0.2526,-0.2514,-0.2514,-0.2514,-0.2514,-0.2514,-0.2514,-0.2514,-0.2514,-0.2828,-0.2983,-0.3139,-0.3611,-0.4084,-0.4397,-0.4709,-0.4865,0.1961,0.1789,0.1594,0.1047,0.0951,0.0967,0.0122,-0.0,-0.0,-0.0,-0.0367,-0.086,-0.1862,-0.1997,-0.2019,-0.2068,-0.2095,-0.2116,-0.2136,-0.2191,-0.2233,-0.2244,-0.2573,0.0,0.0,0.0,0.0,-0.4665,-0.4665,-0.4673,-0.4695,-0.479,-0.4856,-0.4877,-0.497,-0.5022,-0.5022,-0.5022,-0.4905,-0.4823,-0.4752,-0.4491,-0.4206,-0.3701,-0.3367,-0.32,-0.2895,-0.2744,-0.2757,-0.2787,-0.2818,-0.2842,-0.2823,-0.2827,-0.2842,-0.2823,-0.2808,-0.2795,-0.2765,-0.2742,-0.2722,-0.2713,-0.2709,-0.2706,-0.2695,-0.2524,-0.2188,-0.2188,-0.2524,-0.2525,-0.202,-0.1346,-0.0842,-0.0842,-0.1347,-0.1685,-0.1685,-0.0842,-0.0,-0.0,-0.0,-0.0,-0.0,-0.0,-0.0,-0.0,-0.0,-0.0,-0.0,-0.1314,-0.2292,-0.2616,-0.2597,-0.2582,-0.2575,-0.2557,-0.2549,-0.2556,-0.254,-0.253,-0.253,-0.2521,-0.2514,-0.2669,-0.2983,-0.3297,-0.3611,-0.4084,-0.4397,-0.4552,-0.4865,-0.5022,0.1895,0.1821,0.1743,0.1079,0.0483,-0.0,-0.0,-0.0,-0.0,-0.0,-0.0,-0.0362,0.0,0.0,-0.1982,-0.2011,-0.2065,-0.2104,-0.2109,-0.2161,-0.221,0.0,0.0,0.0,0.0,0.0,0.0,-0.4668,0.0,-0.4695,-0.4752,-0.4815,-0.4877,-0.4935,-0.4992,-0.5022,-0.5022,-0.5025,-0.4767,-0.455,-0.4605,-0.4159,-0.3367,-0.3367,-0.3197,-0.2694,-0.2727,-0.2757,-0.2785,-0.2818,-0.2848,-0.2874,-0.2874,-0.2874,-0.2874,-0.2874,-0.2856,-0.2827,-0.2797,-0.2785,-0.2605,-0.2578,-0.2569,-0.2564,-0.2703,-0.2021,-0.1347,-0.1178,-0.1852,-0.2527,-0.2527,-0.1348,-0.0,-0.0,-0.0,-0.0,-0.0,-0.0,-0.0,-0.0,-0.0,-0.0,-0.0,-0.0,-0.0,-0.0,-0.0,-0.0,-0.0,-0.0834,-0.1655,-0.2637,-0.2617,-0.2605,-0.2604,-0.2604,-0.2612,-0.263,-0.2587,-0.2562,-0.2562,-0.2534,-0.2675,-0.3142,-0.3142,-0.3613,-0.4397,-0.4397,-0.4552,-0.5022,-0.5022,-0.5022,0.1961,0.1884,0.1797,0.11,0.0491,-0.0,-0.0,-0.0,-0.0,-0.0,-0.0,-0.0237,0.0,0.0,0.0,-0.1978,-0.2,0.0,-0.2099,-0.2142,0.0,0.0,0.0,-0.2589,-0.3059,-0.3354,0.0,0.0,-0.4583,-0.4739,-0.4755,-0.4856,-0.4921,-0.4935,-0.4992,-0.5022,-0.5022,-0.5066,-0.4806,-0.455,-0.4276,-0.3828,-0.3367,-0.3029,-0.2861,-0.2695,-0.2748,-0.2776,-0.2788,-0.2841,-0.2867,-0.2874,-0.2874,-0.2874,-0.2874,-0.1976,-0.2331,-0.2861,-0.2853,-0.2292,-0.1738,-0.1733,-0.1732,-0.1728,-0.2564,-0.2556,-0.2041,-0.0675,-0.0505,-0.0674,-0.0674,-0.0337,-0.0,-0.0,-0.0,-0.0,-0.0,-0.0,-0.0,-0.0,-0.0,-0.0,-0.0,-0.0,-0.0,-0.0,-0.0,-0.0,-0.0,-0.084,-0.1676,-0.2677,-0.2672,-0.266,-0.2637,-0.263,-0.262,-0.2611,-0.2598,-0.259,-0.259,-0.2906,-0.3051,-0.3181,-0.3819,-0.4277,-0.4397,-0.4709,-0.4865,-0.5022,-0.5022,-0.5179,0.1986,0.1909,0.1696,0.1107,0.0492,-0.0,-0.0,-0.0,-0.0,-0.0,-0.0,0.0,0.0,0.0,0.0,0.0,0.0,0.0,-0.2061,-0.2108,-0.2162,0.0,-0.226,0.0,-0.2912,-0.3225,-0.3688,0.0,-0.4607,-0.4779,-0.4831,-0.4899,-0.4948,-0.4973,-0.5003,-0.5022,-0.5022,-0.4897,-0.4638,-0.4228,-0.3766,-0.348,-0.3029,-0.2861,-0.2692,-0.2697,0.0,-0.2784,-0.2788,-0.2849,-0.2874,-0.2874,-0.2874,-0.2874,-0.2874,-0.2335,-0.2335,-0.2874,-0.2874,-0.196,-0.0705,-0.0702,-0.0701,-0.0874,-0.1383,-0.1551,-0.1376,-0.034,-0.0,-0.0,-0.0,-0.0,-0.0,-0.0,-0.0,-0.0,-0.0,-0.0,-0.0,-0.0,-0.0,-0.0,-0.0,-0.0,-0.0,-0.0,-0.0,-0.0,-0.0,-0.0505,-0.1179,-0.2524,-0.2692,-0.2686,-0.2668,-0.2662,-0.2654,-0.2642,-0.2628,-0.2622,-0.2949,-0.3098,-0.3404,-0.3864,-0.4349,-0.4643,-0.4747,-0.4902,-0.5046,-0.5022,-0.5179,-0.5492,0.1989,0.1911,0.1821,0.1228,0.0609,-0.0,-0.0,-0.0,-0.0,-0.0,0.0,-0.0,-0.0,0.0,-0.1678,-0.1828,0.0,-0.1967,-0.2007,-0.2061,-0.2132,-0.2228,-0.2243,-0.241,-0.2763,-0.3246,-0.3718,-0.4168,-0.4476,-0.4826,-0.4932,-0.4943,-0.497,-0.5019,-0.5022,-0.5022,-0.5022,-0.4554,-0.4289,-0.3895,-0.3413,-0.2961,-0.2687,-0.2691,-0.2692,-0.2697,0.0,0.0,-0.2788,-0.2849,-0.2874,-0.2694,-0.2874,-0.2874,-0.2874,-0.2694,-0.2515,-0.2515,-0.2515,-0.1436,-0.0,-0.0,-0.0,-0.0,-0.0,-0.0,-0.0,-0.0,-0.0,-0.0,-0.0,-0.0,-0.0,-0.0,-0.0,-0.0,-0.0,-0.0,-0.0,-0.0,-0.0,-0.0,-0.0,-0.0,-0.0,-0.0,-0.0,-0.0,-0.0,-0.0,-0.0674,-0.2356,-0.2692,-0.2692,-0.2692,-0.2692,-0.2692,-0.2692,-0.2668,-0.2819,-0.3317,-0.3285,-0.3754,-0.4562,-0.4725,-0.4859,-0.5123,-0.5115,-0.5085,-0.5033,-0.5498,-0.5651,0.1883,0.1926,0.1964,0.1823,0.0846,-0.0,-0.0,-0.0,0.0,0.0,0.0,-0.0,-0.0,-0.0525,0.0,-0.1678,0.0,0.0,0.0,0.0,-0.2078,0.0,0.0,0.0,0.0,0.0,0.0,0.0,0.0,0.0,-0.4935,-0.4981,-0.5011,-0.5022,-0.5022,-0.5022,-0.5022,-0.4554,-0.427,-0.3848,-0.3399,-0.2949,-0.2656,-0.2682,-0.2692,-0.2697,0.0,0.0,-0.2788,-0.2849,-0.2335,-0.1795,-0.2515,-0.2874,-0.2694,-0.1077,-0.0539,-0.0539,-0.0539,-0.0359,-0.0,-0.0,-0.0,-0.0,-0.0,-0.0,-0.0,-0.0,-0.0,-0.0,-0.0,-0.0,-0.0,-0.0,-0.0,-0.0,-0.0,-0.0,-0.0,-0.0,-0.0,-0.0,-0.0,-0.0,-0.0,-0.0,-0.0,-0.0,-0.0,-0.0,-0.0337,-0.1514,-0.2188,-0.2692,-0.2692,-0.2692,-0.2692,-0.2692,-0.2687,-0.2852,-0.3357,-0.3683,-0.4161,-0.4617,-0.4946,-0.5248,-0.5185,-0.5136,-0.5266,-0.5575,-0.5676,-0.6121,0.1858,0.1895,0.1926,0.2031,0.1294,0.0462,0.0113,0.0,0.0,0.0,-0.0,-0.0,-0.0,0.0,0.0,0.0,0.0,0.0,0.0,0.0,0.0,0.0,0.0,0.0,0.0,0.0,0.0,0.0,0.0,0.0,0.0,-0.5006,-0.5022,-0.5022,-0.4865,-0.4709,-0.4709,-0.4081,-0.3632,-0.3516,-0.3072,-0.2781,-0.2647,-0.2679,-0.2692,-0.2697,0.0,0.0,-0.2788,-0.2849,-0.2694,-0.2156,-0.1616,-0.1436,-0.1257,-0.0359,-0.0,-0.0,-0.0,-0.0,-0.0,-0.0,-0.0,-0.0,-0.0,-0.0,-0.0,-0.0,-0.0,-0.0,-0.0,-0.0,-0.0,-0.0,-0.0,-0.0,-0.0,-0.0,-0.0,-0.0,-0.0,-0.0,-0.0,-0.0,-0.0,-0.0,-0.0,-0.0,-0.0,-0.0,-0.0337,-0.1178,-0.2188,-0.2692,-0.2692,-0.2692,-0.2692,-0.2692,-0.2692,-0.3029,-0.3701,-0.3868,-0.436,-0.5007,-0.5174,-0.5311,-0.5248,-0.5353,-0.5626,-0.5753,-0.6155,-0.6591,0.1824,0.1857,0.1883,0.1987,0.1487,0.0782,0.011,-0.0,0.0,0.0,-0.0,-0.0,-0.0,0.0,0.0,0.0,0.0,0.0,0.0,0.0,0.0,0.0,0.0,0.0,0.0,0.0,0.0,0.0,0.0,0.0,0.0,-0.4865,-0.4865,-0.4865,-0.4552,-0.4241,-0.4241,-0.3454,-0.3154,-0.3185,-0.2745,-0.2615,-0.2638,-0.2676,-0.2692,-0.2697,0.0,0.0,0.0,-0.2849,-0.2694,-0.2156,-0.0539,-0.0,-0.0,-0.0,-0.0,-0.0,-0.0,-0.0,-0.0,-0.0,-0.0,-0.0,-0.0,-0.0,-0.0,-0.0,-0.0,-0.0,-0.0,-0.0,-0.0,-0.0,-0.0,-0.0,-0.0,-0.0,-0.0,-0.0,-0.0,-0.0,-0.0,-0.0,-0.0,-0.0,-0.0,-0.0,-0.0,-0.0,-0.0337,-0.101,-0.202,-0.2692,-0.2692,-0.2692,-0.2692,-0.2692,-0.2692,-0.3029,-0.4036,-0.4036,-0.4372,-0.5384,-0.5384,-0.536,-0.5476,-0.573,-0.5826,-0.6091,-0.6634,-0.6904,0.1798,0.1842,0.1873,0.1931,0.1461,0.0772,0.0104,0.0,0.0,-0.0,-0.0,-0.0,-0.0,-0.0362,-0.093,0.0,0.0,0.0,0.0,0.0,0.0,0.0,0.0,0.0,0.0,0.0,0.0,0.0,0.0,0.0,0.0,-0.4397,-0.4397,-0.4397,-0.4084,-0.3925,-0.3925,-0.3297,-0.314,-0.3145,-0.2735,-0.2602,-0.2608,-0.2665,-0.2692,-0.2695,0.0,0.0,0.0,-0.2849,-0.1795,-0.018,-0.0,-0.0,-0.0,-0.0,-0.0,-0.0,-0.0,-0.0,-0.0,-0.0,-0.0,-0.0,-0.0,-0.0,-0.0,-0.0,-0.0,-0.0,-0.0,-0.0,-0.0,-0.0,-0.0,-0.0,-0.0,-0.0,-0.0,-0.0,-0.0,-0.0,-0.0,-0.0,-0.0,-0.0,-0.0,-0.0,-0.0,-0.0,-0.0,-0.0168,-0.1683,-0.2692,-0.2692,-0.2692,-0.2692,-0.2692,-0.2692,-0.3029,-0.4036,-0.4036,-0.4372,-0.5384,-0.5384,-0.5549,-0.6044,-0.5915,-0.6175,-0.6967,-0.6975,-0.706,0.1731,0.1757,0.1771,0.1857,0.1394,0.0733,0.0102,0.0,0.0,-0.0,-0.0,-0.0,-0.0,-0.0353,-0.0911,-0.1429,0.0,0.0,0.0,0.0,0.0,0.0,0.0,0.0,0.0,0.0,0.0,0.0,0.0,0.0,0.0,0.0,-0.4084,-0.4084,-0.3611,-0.3454,-0.3454,-0.2983,-0.2671,-0.2671,-0.2574,-0.2601,-0.2604,-0.2665,-0.2356,-0.1853,0.0,0.0,0.0,-0.1068,-0.0718,-0.0,-0.0,-0.0,-0.0,-0.0,-0.0,-0.0,-0.0,0.0718,0.1795,0.1795,0.1257,0.0718,0.018,0.0898,0.1795,0.1795,0.1253,0.0892,0.0892,0.0354,-0.0,-0.0,-0.0,-0.0,-0.0,-0.0,-0.0,-0.0,-0.0,-0.0,-0.0,-0.0,-0.0,-0.0,-0.0,-0.0,-0.0,-0.0,-0.0,-0.0,-0.1178,-0.2018,-0.2692,-0.2692,-0.2692,-0.2692,-0.3029,-0.3365,-0.4036,-0.4204,-0.471,-0.5384,-0.5384,-0.5533,-0.5989,-0.606,-0.6479,-0.7072,-0.7271,-0.7529,0.1654,0.1671,0.1677,0.1774,0.1328,0.0699,0.0,0.0,0.0,-0.0,-0.0,-0.0083,-0.0333,-0.0515,-0.0889,-0.137,-0.1543,-0.1635,0.0,0.0,0.0,0.0,0.0,0.0,0.0,0.0,0.0,0.0,0.0,0.0,0.0,0.0,-0.3454,-0.3611,-0.314,-0.2983,-0.2983,-0.2671,-0.2514,-0.2515,-0.2574,-0.2602,-0.2605,-0.2665,-0.2356,0.0,0.0,0.0,0.0,-0.0,-0.0,-0.0,-0.0,-0.0,-0.0,-0.0,-0.0,-0.0,0.0718,0.1795,0.2874,0.2874,0.2335,0.1795,0.1077,0.1616,0.2515,0.2874,0.2335,0.1795,0.1795,0.1428,0.071,0.0533,0.0352,0.0348,0.0345,0.0172,-0.0,-0.0,-0.0,-0.0,-0.0,-0.0,-0.0,-0.0,-0.0,-0.0,-0.0,-0.0,-0.0,-0.0,-0.0842,-0.1682,-0.2692,-0.2692,-0.2692,-0.2692,-0.3197,-0.3533,-0.4036,-0.4372,-0.4878,-0.5384,-0.5533,-0.5668,-0.6117,-0.6516,-0.6763,-0.7187,-0.757,-0.7998,0.1572,0.1595,0.161,0.1679,0.1277,0.0774,0.0,0.0,0.0,-0.0,-0.0,-0.0244,-0.114,-0.0996,-0.0855,-0.1337,-0.1512,-0.1603,-0.1692,0.0,0.0,0.0,0.0,0.0,0.0,0.0,0.0,0.0,0.0,0.0,0.0,0.0,-0.2671,-0.3139,-0.2669,-0.2514,-0.2514,-0.2514,-0.2514,-0.2515,-0.2574,-0.2602,-0.2607,-0.2665,0.0,0.0,0.0,0.0,0.0,-0.0,-0.0,-0.0,-0.0,-0.0,-0.0,-0.0,-0.0,0.0359,0.2156,0.2874,0.2874,0.2874,0.2874,0.2874,0.2874,0.2156,0.1616,0.2694,0.2874,0.2874,0.2874,0.2874,0.2694,0.1616,0.1425,0.1409,0.122,0.069,-0.0,-0.0,-0.0,-0.0,-0.0,-0.0,-0.0,-0.0,-0.0,-0.0,-0.0,-0.0,-0.0,-0.0,-0.0842,-0.1682,-0.2692,-0.2692,-0.2692,-0.2692,-0.3197,-0.3533,-0.4036,-0.4372,-0.4878,-0.5384,-0.5654,-0.6117,-0.6615,-0.6788,-0.7187,-0.766,-0.8046,-0.8622,0.1504,0.1532,0.1547,0.1517,0.1214,0.0641,0.0089,0.0,0.0,-0.0,-0.0,-0.0238,-0.1113,-0.1231,-0.1196,-0.1426,-0.1494,-0.1579,0.0,0.0,0.0,0.0,0.0,0.0,0.0,0.0,0.0,0.0,0.0,0.0,0.0,0.0,0.0,-0.2671,-0.2514,-0.2514,-0.2514,-0.2514,-0.2514,-0.2515,-0.2575,-0.2604,-0.2607,-0.2668,0.0,0.0,0.0,0.0,0.0,-0.0,-0.0,-0.0,-0.0,-0.0,-0.0,-0.0,0.0898,0.2156,0.2694,0.2874,0.2874,0.2874,0.2874,0.2874,0.2874,0.2694,0.2515,0.2874,0.2874,0.2874,0.2874,0.2874,0.2874,0.2515,0.2507,0.249,0.227,0.2081,0.172,0.1013,0.0842,0.0673,0.0168,-0.0,-0.0,-0.0,-0.0,-0.0,-0.0,-0.0,-0.0505,-0.1685,-0.1515,-0.1682,-0.2692,-0.2692,-0.2692,-0.2692,-0.3365,-0.3868,-0.4036,-0.471,-0.5198,-0.5322,-0.563,-0.607,-0.6458,-0.6894,-0.7318,-0.8046,-0.8636,-0.909,0.0,0.1444,0.1455,0.1436,0.1151,0.0,0.0,0.0,0.0,-0.0,-0.0238,-0.0629,-0.0943,-0.1224,-0.1363,-0.1411,-0.1489,-0.1581,0.0,0.0,0.0,0.0,0.0,0.0,0.0,0.0,0.0,0.0,0.0,0.0,0.0,0.0,0.0,-0.2514,-0.2514,-0.2514,-0.2514,-0.2514,-0.2521,-0.2532,-0.2581,-0.2611,-0.2624,0.0,0.0,0.0,0.0,0.0,0.0,-0.0,-0.0,-0.0,-0.0,0.0359,0.1077,0.1077,0.1616,0.2335,0.2694,0.2874,0.2874,0.2874,0.2874,0.2874,0.2874,0.2874,0.2874,0.2874,0.2874,0.2874,0.2874,0.2874,0.2874,0.2874,0.2874,0.2857,0.2796,0.2784,0.2592,0.2028,0.185,0.1682,0.1179,0.0505,-0.0,-0.0,-0.0,-0.0,-0.0,-0.0,-0.0674,-0.2527,-0.2189,-0.2018,-0.2692,-0.2692,-0.2692,-0.3029,-0.3532,-0.4036,-0.4204,-0.5025,-0.5333,-0.5457,-0.59,-0.6317,-0.6705,-0.7156,-0.7901,-0.8622,-0.909,-0.9558,0.0,0.1256,0.0,0.0,0.0,0.0,0.0,0.0,0.0,0.0,0.0,-0.118,-0.0709,-0.1063,-0.1443,-0.1391,-0.1495,-0.1603,0.0,0.0,0.0,0.0,0.0,0.0,0.0,0.0,0.0,0.0,0.0,0.0,0.0,0.0,0.0,0.0,-0.2514,-0.2514,-0.2514,-0.2514,-0.253,-0.256,-0.2428,-0.2458,-0.2486,0.0,0.0,0.0,0.0,0.0,0.0,-0.0,-0.0,0.018,0.018,0.1257,0.2874,0.2874,0.2335,0.1616,0.2515,0.2874,0.2874,0.2874,0.2874,0.2874,0.2874,0.2874,0.2874,0.2874,0.2874,0.2874,0.2874,0.2874,0.2874,0.2874,0.2872,0.2855,0.2796,0.2781,0.2762,0.2703,0.2692,0.2692,0.2692,0.1346,0.0168,-0.0,-0.0,-0.0,-0.0,-0.0,-0.0674,-0.2358,-0.2694,-0.2692,-0.2692,-0.2692,-0.2861,-0.3367,-0.3698,-0.4199,-0.4705,-0.5153,-0.5448,-0.5937,-0.6291,-0.6698,-0.702,-0.7889,-0.8622,-0.9402,-0.9402,-0.9708,0.1197,0.0,0.1313,0.1313,0.1313,0.0979,0.0,0.0,0.0,0.0,0.0,0.0,0.0,-0.124,-0.1459,-0.1448,-0.1523,-0.161,0.0,0.0,0.0,0.0,0.0,0.0,0.0,0.0,0.0,0.0,0.0,0.0,0.0,0.0,0.0,0.0,-0.2514,-0.2514,-0.2514,-0.2514,-0.253,-0.256,-0.1943,-0.1965,-0.2486,0.0,0.0,0.0,0.0,0.0,0.0,-0.0,0.0898,0.2156,0.2156,0.1976,0.1795,0.2694,0.2694,0.2515,0.2874,0.2874,0.2874,0.2874,0.2874,0.2874,0.2874,0.2874,0.2874,0.2874,0.2874,0.2874,0.2874,0.2874,0.2874,0.2874,0.2856,0.2829,0.2791,0.2765,0.2737,0.2699,0.2692,0.2692,0.2692,0.2356,0.1515,0.0168,-0.0,-0.0,-0.0,-0.0,-0.0337,-0.1515,-0.2356,-0.2692,-0.2692,-0.2692,-0.2861,-0.3367,-0.3673,-0.4152,-0.4648,-0.5256,-0.5691,-0.5799,-0.6349,-0.7091,-0.788,-0.848,-0.8934,-0.9402,-0.9708,-1.0019,0.1134,0.1202,0.1261,0.1261,0.1351,0.1118,0.0236,0.0,0.0,0.0,0.0,0.0,0.0,0.0,0.0,-0.1489,-0.1661,0.0,0.0,0.0,0.0,0.0,0.0,0.0,0.0,0.0,0.0,0.0,0.0,0.0,0.0,0.0,0.0,0.0,0.0,-0.2514,-0.2514,-0.2514,-0.2537,-0.2419,-0.1622,-0.1314,-0.1336,0.0,0.0,0.0,0.0,0.0,-0.0,0.0885,0.1967,0.2874,0.2874,0.2515,0.2156,0.2694,0.2874,0.2874,0.2874,0.2874,0.2874,0.2874,0.2874,0.2874,0.2874,0.2874,0.2874,0.2874,0.2874,0.2874,0.2874,0.2874,0.2874,0.2874,0.2851,0.2821,0.2789,0.2759,0.2729,0.2698,0.2692,0.2692,0.2692,0.2692,0.2188,0.0842,0.0337,-0.0,-0.0,-0.0,-0.0337,-0.1178,-0.2188,-0.2687,-0.2673,-0.2839,-0.3173,-0.3675,-0.3984,-0.4457,-0.4923,-0.5518,-0.5937,-0.6181,-0.7083,-0.7842,-0.8466,-0.8934,-0.9246,-0.9708,-1.0019,-1.033,0.1095,0.1155,0.1206,0.1286,0.1235,0.0864,-0.0,0.0,0.0,0.0,0.0,0.0,0.0,0.0,0.0,0.0,0.0,0.0,0.0,0.0,0.0,0.0,0.0,0.0,0.0,0.0,0.0,0.0,0.0,0.0,0.0,0.0,0.0,0.0,0.0,0.0,-0.2514,-0.2514,-0.2545,-0.2442,-0.1628,-0.0824,-0.0,-0.0,0.0,0.0,0.0,0.0,0.0522,0.2287,0.2846,0.2874,0.2874,0.2874,0.2874,0.2874,0.2874,0.2874,0.2874,0.2874,0.2874,0.2874,0.2874,0.2874,0.2874,0.2874,0.2874,0.2874,0.2874,0.2874,0.2874,0.2874,0.2872,0.2868,0.2844,0.2814,0.2782,0.2752,0.2722,0.2698,0.2692,0.2692,0.2692,0.2692,0.2356,0.1682,0.0673,-0.0,-0.0,-0.0,-0.0336,-0.1175,-0.2179,-0.2669,-0.2642,-0.3135,-0.3628,-0.3952,-0.4279,-0.4747,-0.5339,-0.5768,-0.6343,-0.706,-0.7846,-0.8471,-0.8934,-0.9246,-0.9708,-1.0175,-1.0486,-1.0641,0.1109,0.1108,0.1179,0.128,0.0771,-0.0,-0.0864,0.0,0.0,0.0,0.0,0.0,0.0,0.0,0.0,0.0,0.0,0.0,0.0,0.0,0.0,0.0,0.0,0.0,0.0,0.0,0.0,0.0,0.0,0.0,0.0,0.0,0.0,0.0,0.0,0.0,0.0,-0.2514,-0.2545,-0.2442,-0.1628,-0.0824,-0.0,-0.0,-0.0,0.0,0.0,0.0,0.2437,0.2816,0.2846,0.2874,0.2874,0.2874,0.2874,0.2874,0.2874,0.2874,0.2874,0.2874,0.2874,0.2874,0.2874,0.2874,0.2874,0.2874,0.2874,0.2874,0.2874,0.2874,0.2874,0.2874,0.2867,0.2841,0.2812,0.2782,0.2751,0.2721,0.2698,0.2694,0.2692,0.2692,0.2692,0.2692,0.2692,0.2524,0.101,-0.0,-0.0,-0.0,-0.0332,-0.1162,-0.2139,-0.278,-0.3098,-0.3587,-0.3899,-0.4344,-0.4339,-0.4955,-0.6155,-0.6455,-0.7076,-0.8002,-0.8159,-0.8627,-0.9246,-0.9402,-0.9708,-1.0486,-1.0641,-1.0952,0.1094,0.1099,0.0877,0.0074,-0.0382,-0.0788,-0.1279,0.0,0.0,0.0,0.0,0.0,0.0,0.0,0.0,0.0,0.0,0.0,0.0,0.0,0.0,0.0,0.0,0.0,0.0,0.0,0.0,0.0,0.0,0.0,0.0,0.0,0.0,0.0,0.0,0.0,0.0,-0.2514,-0.2537,-0.2419,-0.1622,-0.0821,-0.0,-0.0,-0.0,0.0,0.0,0.1024,0.2761,0.2792,0.2822,0.2851,0.2868,0.2874,0.2874,0.2874,0.2874,0.2874,0.2874,0.2874,0.2874,0.2874,0.2874,0.2874,0.2874,0.2874,0.2874,0.2874,0.2874,0.2874,0.2874,0.2861,0.2846,0.2831,0.2792,0.2755,0.2742,0.2714,0.2692,0.2692,0.2692,0.2692,0.2692,0.2692,0.2692,0.2692,0.2021,0.1179,0.0168,-0.0834,-0.1325,-0.1325,-0.2131,-0.2759,-0.3224,-0.3546,-0.4179,-0.5117,-0.5085,-0.5525,-0.6591,-0.6747,-0.7373,-0.8159,-0.8471,-0.8778,-0.9402,-0.9864,-1.0175,-1.0641,-1.1107,-1.1572,0.1081,0.082,0.0219,-0.1028,0.0,-0.1354,-0.1379,0.0,0.0,0.0,0.0,0.0,0.0,0.0,0.0,0.0,0.0,0.0,0.0,0.0,0.0,0.0,0.0,0.0,0.0,0.0,0.0,0.0,0.0,0.0,0.0,0.0,0.0,0.0,0.0,0.0,0.0,-0.2514,-0.253,-0.256,-0.1618,-0.0819,-0.0,-0.0,-0.0,-0.0,-0.0,0.0847,0.2397,0.2763,0.2795,0.2831,0.2855,0.2868,0.2874,0.2874,0.2874,0.2874,0.2874,0.2874,0.2874,0.2874,0.2874,0.2874,0.2874,0.2874,0.2874,0.2874,0.2868,0.2863,0.2863,0.2846,0.2825,0.2811,0.2772,0.2736,0.2729,0.2709,0.2692,0.2692,0.2692,0.2692,0.2692,0.2692,0.2692,0.2356,0.2525,0.2022,0.0168,-0.1498,-0.2309,-0.165,-0.2117,-0.2735,-0.3345,-0.3819,-0.4775,-0.5728,-0.5836,-0.6121,-0.6904,-0.706,-0.7529,-0.8315,-0.8778,-0.909,-0.9558,-1.0175,-1.0641,-1.0796,-1.1572,-1.2037,0.1053,-0.0,-0.1172,-0.1351,-0.1411,0.0,-0.1302,-0.1366,0.0,0.0,0.0,0.0,0.0,0.0,0.0,0.0,0.0,0.0,0.0,0.0,0.0,0.0,0.0,0.0,0.0,0.0,0.0,0.0,0.0,0.0,0.0,0.0,0.0,0.0,0.0,0.0,-0.2514,-0.2514,-0.253,-0.256,-0.1618,-0.0819,-0.0,-0.0,-0.0,-0.0,-0.0,0.0508,0.1539,0.2398,0.2776,0.2829,0.2831,0.2849,0.2874,0.2874,0.2874,0.2874,0.2874,0.2874,0.2874,0.2874,0.2874,0.2874,0.2874,0.2874,0.2874,0.2874,0.2853,0.2831,0.2831,0.283,0.2814,0.2758,0.2742,0.2731,0.2702,0.2694,0.2692,0.2692,0.2692,0.2692,0.2692,0.2692,0.2356,0.1514,0.2189,0.2022,0.0168,-0.1487,-0.2445,-0.2445,-0.2396,-0.2834,-0.3617,-0.4873,-0.5814,-0.6281,-0.6278,-0.6431,-0.6904,-0.7686,-0.8315,-0.8778,-0.909,-0.9553,-1.0019,-1.033,-1.0796,-1.1262,-1.1727,-1.2347,-0.0309,-0.0538,-0.0954,-0.1279,0.0,0.0,0.0,0.0,0.0,0.0,0.0,0.0,0.0,0.0,0.0,0.0,0.0,0.0,0.0,0.0,0.0,0.0,0.0,0.0,0.0,0.0,0.0,0.0,0.0,0.0,0.0,0.0,0.0,0.0,0.0,0.0,0.0,-0.2514,-0.2521,-0.2532,-0.2241,-0.1296,-0.0,-0.0,-0.0,-0.0,0.0505,0.1012,0.1355,0.2388,0.2751,0.2776,0.2814,0.2846,0.2874,0.2874,0.2874,0.2874,0.2874,0.2874,0.2874,0.2874,0.2874,0.2874,0.2874,0.2874,0.2874,0.2874,0.2852,0.2829,0.2829,0.28,0.2766,0.2743,0.2724,0.2706,0.2695,0.2692,0.2692,0.2692,0.2692,0.2692,0.2692,0.2692,0.2524,0.2189,0.0505,-0.0842,-0.1516,-0.1651,-0.1953,-0.2442,-0.3027,-0.3613,-0.4084,-0.5025,-0.5805,-0.6275,-0.6587,-0.706,-0.7686,-0.8002,-0.8471,-0.909,-0.9402,-0.9708,-1.033,-1.0796,-1.1262,-1.1727,-1.2347,-1.2811,-0.1112,-0.0941,-0.0882,0.0,0.0,0.0,0.0,0.0,0.0,0.0,0.0,0.0,0.0,0.0,0.0,0.0,0.0,0.0,0.0,0.0,0.0,0.0,0.0,0.0,0.0,0.0,0.0,0.0,0.0,0.0,0.0,0.0,0.0,0.0,0.0,0.0,0.0,-0.2514,-0.2514,-0.2515,-0.2536,-0.176,-0.0324,-0.0164,-0.0,-0.0,0.0673,0.1179,0.1852,0.2375,0.2729,0.2743,0.2795,0.2833,0.286,0.286,0.2866,0.2874,0.2874,0.2874,0.2874,0.2874,0.2874,0.2874,0.2874,0.2874,0.2872,0.2863,0.2838,0.2812,0.2803,0.2769,0.2735,0.2727,0.2707,0.2692,0.2692,0.2692,0.2692,0.2692,0.2692,0.2692,0.2692,0.2524,0.2356,0.2695,-0.0337,-0.2697,-0.2697,-0.2147,-0.1948,-0.2739,-0.3331,-0.4081,-0.4554,-0.5335,-0.5962,-0.6431,-0.706,-0.7529,-0.8159,-0.8315,-0.8778,-0.9402,-0.9708,-1.0019,-1.0641,-1.1262,-1.1572,-1.1882,-1.2656,-1.312,-0.1112,-0.1143,0.0,0.0,0.0,0.0,0.0,0.0,0.0,0.0,0.0,0.0,0.0,0.0,0.0,0.0,0.0,0.0,0.0,0.0,0.0,0.0,0.0,0.0,0.0,0.0,0.0,0.0,0.0,0.0,0.0,0.0,0.0,0.0,0.0,0.0,0.0,-0.2671,-0.2514,-0.2514,-0.2514,-0.2056,-0.128,-0.0328,-0.0,-0.0,-0.0,0.101,0.2695,0.2694,0.271,0.2742,0.2772,0.2801,0.2829,0.2829,0.2848,0.2874,0.2874,0.2874,0.2874,0.2874,0.2874,0.2874,0.2874,0.2874,0.2868,0.2837,0.2807,0.2776,0.2746,0.2737,0.2729,0.2699,0.2692,0.2692,0.2692,0.2692,0.2692,0.2692,0.2692,0.2692,0.2692,0.185,0.1683,0.2527,-0.0337,-0.2695,-0.2695,-0.2642,-0.2742,-0.3147,-0.3454,-0.4081,-0.4865,-0.5805,-0.6431,-0.6904,-0.769,-0.8159,-0.8159,-0.8622,-0.8934,-0.9402,-1.0175,-1.0641,-1.0641,-1.1417,-1.1882,-1.1882,-1.2656,-1.3274,-0.105,-0.121,0.0,0.0,0.0,0.0,0.0,0.0,0.0,0.0,0.0,0.0,0.0,0.0,0.0,0.0,0.0,0.0,0.0,0.0,0.0,0.0,0.0,0.0,0.0,0.0,0.0,0.0,0.0,0.0,0.0,0.0,0.0,0.0,0.0,0.0,0.0,0.0,-0.2826,-0.2514,-0.2514,-0.2372,-0.208,-0.065,-0.0,-0.0,-0.0,0.0337,0.0842,0.2188,0.271,0.2739,0.2747,0.277,0.2799,0.2821,0.2834,0.2845,0.2867,0.2874,0.2874,0.2874,0.2874,0.2874,0.2874,0.2874,0.2868,0.2837,0.2807,0.2776,0.2746,0.2722,0.2703,0.2695,0.2692,0.2692,0.2692,0.2692,0.2692,0.2692,0.2692,0.2692,0.2692,0.2525,0.1515,-0.0674,-0.2022,-0.268,-0.2638,-0.2778,-0.3224,-0.3621,-0.3925,-0.4554,-0.5495,-0.5962,-0.6431,-0.6904,-0.769,-0.8315,-0.8622,-0.8934,-0.9558,-1.0175,-1.0486,-1.0952,-1.1572,-1.1727,-1.2192,-1.2811,-1.3274,-1.3744,-0.1112,0.0,0.0,0.0,0.0,0.0,0.0,0.0,0.0,0.0,0.0,0.0,0.0,0.0,0.0,0.0,0.0,0.0,0.0,0.0,0.0,0.0,0.0,0.0,0.0,0.0,0.0,0.0,0.0,0.0,0.0,0.0,0.0,0.0,0.0,0.0,0.0,0.0,0.0,-0.2671,-0.2514,-0.2523,-0.2384,-0.1126,-0.0325,-0.0,-0.0,-0.0,0.0168,0.1179,0.2028,0.272,0.272,0.2739,0.2767,0.2785,0.2808,0.2831,0.2849,0.2864,0.2874,0.2874,0.2874,0.2874,0.2874,0.2866,0.2849,0.2819,0.2789,0.2758,0.2728,0.2706,0.2692,0.2692,0.2692,0.2692,0.2692,0.2692,0.2692,0.2692,0.2692,0.2692,0.2694,0.2695,0.1516,-0.219,-0.2695,-0.2672,-0.2938,-0.309,-0.3385,-0.3935,-0.4397,-0.5022,-0.5805,-0.6275,-0.6744,-0.7373,-0.8002,-0.8622,-0.909,-0.9246,-0.9708,-1.0641,-1.0796,-1.1262,-1.1882,-1.2192,-1.2656,-1.312,-1.3744,-1.4053,0.0,0.0,0.0,0.0,0.0,0.0,0.0,0.0,0.0,0.0,0.0,0.0,0.0,0.0,0.0,0.0,0.0,0.0,0.0,0.0,0.0,0.0,0.0,0.0,0.0,0.0,0.0,0.0,0.0,0.0,0.0,0.0,0.0,0.0,0.0,0.0,0.0,0.0,0.0,0.0,-0.2828,-0.2514,-0.2515,-0.175,-0.0966,-0.0,-0.0,-0.0,-0.0,-0.0,0.101,0.2524,0.2692,0.2709,0.2733,0.2736,0.2773,0.2821,0.2823,0.2844,0.287,0.287,0.2872,0.2874,0.2871,0.2851,0.2822,0.2788,0.2759,0.2731,0.2701,0.2692,0.2692,0.2692,0.2692,0.2692,0.2692,0.2692,0.2692,0.2692,0.2692,0.2694,0.2695,0.2358,0.1011,-0.219,-0.2694,-0.2837,-0.3263,-0.3253,-0.3546,-0.4252,-0.4865,-0.5335,-0.6275,-0.6744,-0.7217,-0.8159,-0.8627,-0.8934,-0.9402,-0.9402,-0.9858,-1.0624,-1.1089,-1.1547,-1.1998,-1.2769,-1.3077,-1.3231,-1.4022,-1.4337,0.0,0.0,0.0,0.0,0.0,0.0,0.0,0.0,0.0,0.0,0.0,0.0,0.0,0.0,0.0,0.0,0.0,0.0,0.0,0.0,0.0,0.0,0.0,0.0,0.0,0.0,0.0,0.0,0.0,0.0,0.0,0.0,0.0,0.0,0.0,0.0,-0.4397,-0.4241,-0.3925,0.0,-0.314,-0.2983,-0.2983,-0.2386,-0.1456,-0.0,-0.0,-0.0,-0.0,-0.0,0.0168,0.0674,0.2188,0.2697,0.2705,0.2729,0.2746,0.2761,0.2785,0.2812,0.2838,0.2838,0.2855,0.287,0.2845,0.2834,0.2818,0.2763,0.2743,0.2731,0.2701,0.2692,0.2692,0.2692,0.2692,0.2692,0.2692,0.2692,0.2692,0.2692,0.2694,0.2695,0.2697,0.0337,-0.1852,-0.2525,-0.2692,-0.2837,-0.3263,-0.3578,-0.387,-0.4409,-0.5025,-0.5805,-0.6275,-0.6744,-0.7217,-0.8159,-0.8627,-0.8934,-0.9402,-1.0019,-1.0595,-1.0956,-1.1415,-1.1821,-1.2456,-1.2606,-1.3057,-1.3664,-1.3945,-1.4454,0.0,0.0,0.0,0.0,0.0,0.0,0.0,0.0,0.0,0.0,0.0,0.0,0.0,0.0,0.0,0.0,0.0,0.0,0.0,0.0,0.0,0.0,0.0,0.0,0.0,0.0,0.0,0.0,0.0,0.0,0.0,0.0,0.0,0.0,0.0,0.0,-0.4709,-0.4554,-0.4241,-0.4084,-0.3611,-0.3297,-0.314,-0.2704,-0.1611,-0.0,-0.0,-0.0,-0.0,-0.0,-0.0,0.0168,0.101,0.1683,0.2021,0.2541,0.2725,0.274,0.2757,0.2781,0.2807,0.2807,0.2818,0.2827,0.2812,0.2797,0.2778,0.2747,0.2728,0.2713,0.2697,0.2692,0.2692,0.2692,0.2692,0.2692,0.2692,0.2356,0.2188,0.2694,0.2695,0.219,0.0337,-0.1515,-0.2694,-0.2692,-0.2861,-0.3171,-0.3426,-0.3903,-0.4351,-0.5038,-0.5648,-0.6118,-0.6587,-0.7217,-0.7842,-0.8471,-0.8934,-0.9376,-0.9789,-1.04,-1.0833,-1.1073,-1.1611,-1.2142,-1.2657,-1.2955,-1.3401,-1.3854,-1.4239,-1.4769,0.0,0.0,0.0,0.0,0.0,0.0,0.0,0.0,0.0,0.0,0.0,0.0,0.0,0.0,0.0,0.0,0.0,0.0,0.0,0.0,0.0,0.0,0.0,0.0,0.0,0.0,0.0,0.0,0.0,0.0,0.0,0.0,0.0,0.0,0.0,-0.5016,-0.5006,-0.4696,-0.4537,-0.4527,-0.4066,-0.3599,-0.3132,-0.2696,-0.1756,-0.048,-0.0326,-0.0165,-0.0,-0.0,-0.0,-0.0,-0.0,0.0505,0.1178,0.202,0.237,0.2388,0.2388,0.2578,0.2776,0.2776,0.278,0.2782,0.2777,0.2758,0.2736,0.2732,0.2712,0.2692,0.2692,0.2524,0.2524,0.2692,0.2692,0.2692,0.2692,0.202,0.1683,0.219,0.2022,0.0842,-0.2021,-0.2525,-0.2692,-0.2692,-0.3029,-0.3506,-0.3915,-0.4228,-0.4831,-0.5667,-0.6118,-0.6431,-0.6904,-0.769,-0.8315,-0.8778,-0.9246,-0.9661,-1.0315,-1.0744,-1.1024,-1.0999,-1.1782,-1.2303,-1.2571,-1.3318,-1.3761,-1.3909,-1.467,-1.5058,0.0,0.0,0.0,0.0,0.0,0.0,0.0,0.0,0.0,0.0,0.0,0.0,0.0,0.0,0.0,0.0,0.0,0.0,0.0,0.0,0.0,0.0,0.0,0.0,0.0,0.0,0.0,0.0,0.0,0.0,0.0,0.0,-0.6434,-0.5651,-0.5651,0.0,-0.4948,-0.4794,-0.4768,-0.4717,-0.446,-0.3865,-0.3096,-0.2974,-0.2691,-0.208,-0.1444,-0.0647,-0.0,-0.0,-0.0,-0.0,-0.0,-0.0,0.0168,0.0337,0.0842,0.1517,0.1517,0.2038,0.2744,0.2744,0.2762,0.2778,0.2752,0.2742,0.2732,0.2706,0.2695,0.2692,0.2692,0.2018,0.1682,0.2527,0.2695,0.2695,0.2695,0.2527,0.2022,0.0674,-0.0842,-0.1852,-0.1515,-0.2188,-0.2692,-0.2692,-0.3029,-0.3506,-0.3915,-0.4228,-0.4831,-0.5667,-0.6118,-0.6431,-0.6904,-0.769,-0.8315,-0.8778,-0.9246,-0.9661,-1.0315,-1.0655,-1.0983,-1.1161,-1.2017,-1.2525,-1.282,-1.3108,-1.369,-1.4416,-1.4711,-1.5087,0.0,0.0,0.0,0.0,0.0,0.0,0.0,0.0,0.0,0.0,0.0,0.0,0.0,0.0,0.0,0.0,0.0,0.0,0.0,0.0,0.0,0.0,0.0,0.0,0.0,0.0,0.0,0.0,0.0,0.0,0.0,-0.7014,-0.6747,-0.6434,-0.6082,0.0,-0.5243,-0.5208,-0.5021,-0.4845,-0.4416,-0.4121,-0.3666,-0.3554,-0.313,-0.2536,-0.2074,-0.1765,-0.1291,-0.0979,-0.0492,-0.0,-0.0,-0.0,-0.0,-0.0,0.0167,0.0505,0.0505,0.0845,0.1187,0.1695,0.1871,0.1877,0.2037,0.2034,0.2032,0.1853,0.185,0.202,0.2525,0.2357,0.2189,0.2527,0.2697,0.2358,0.1348,0.1179,0.0674,-0.1179,-0.219,-0.2527,-0.2188,-0.2356,-0.2861,-0.3029,-0.3533,-0.3838,-0.4241,-0.4552,-0.5155,-0.5978,-0.6118,-0.6587,-0.7213,-0.7998,-0.8622,-0.8778,-0.9558,-1.0246,-1.066,-1.0895,-1.136,-1.1714,-1.2287,-1.2683,-1.2753,-1.3325,-1.3904,-1.4483,-1.4702,-1.5228,0.0,0.0,0.0,0.0,0.0,0.0,0.0,0.0,0.0,0.0,0.0,0.0,0.0,0.0,0.0,0.0,0.0,0.0,0.0,0.0,0.0,0.0,0.0,0.0,0.0,0.0,0.0,0.0,0.0,0.0,-0.7317,-0.7103,-0.6995,-0.684,-0.6473,-0.5975,-0.5651,-0.5578,-0.5247,-0.4951,-0.4665,-0.4369,-0.4221,-0.3968,-0.3394,-0.2803,-0.269,-0.2548,-0.2391,-0.1774,-0.1297,-0.0648,-0.0488,-0.0327,-0.033,-0.0,-0.0,-0.0,-0.0,-0.0,0.0168,0.0841,0.101,0.101,0.101,0.101,0.101,0.101,0.101,0.1178,0.1853,0.2022,0.2022,0.2022,0.1685,0.1011,0.0168,-0.0337,-0.1011,-0.2358,-0.2695,-0.2695,-0.2692,-0.2861,-0.3029,-0.3367,-0.386,-0.4157,-0.4399,-0.5026,-0.562,-0.6288,-0.6431,-0.6744,-0.7686,-0.831,-0.8778,-0.8934,-1.0019,-1.0679,-1.0727,-1.1164,-1.1623,-1.2201,-1.2617,-1.2896,-1.2896,-1.3611,-1.4189,-1.4617,-1.5044,-1.5408,0.0,0.0,0.0,0.0,0.0,0.0,0.0,0.0,0.0,0.0,0.0,0.0,0.0,0.0,0.0,0.0,0.0,0.0,0.0,0.0,0.0,0.0,0.0,0.0,0.0,0.0,0.0,0.0,0.0,0.0,-0.7141,-0.7227,-0.7125,-0.6668,-0.6661,-0.6323,-0.5951,-0.5876,-0.5547,-0.5113,-0.5173,-0.4903,-0.4166,-0.4219,-0.394,-0.3493,-0.3267,-0.2829,-0.2519,-0.239,-0.2402,-0.2244,-0.1459,-0.1303,-0.1141,-0.0326,-0.0,-0.0,-0.0,-0.0,-0.0,-0.0,-0.0,-0.0,-0.0,-0.0,-0.0,-0.0,-0.0,-0.0,0.0168,0.0168,0.0168,0.0168,-0.1179,-0.2022,-0.0337,-0.1348,-0.2527,-0.2697,-0.2694,-0.2692,-0.2692,-0.3029,-0.3367,-0.3367,-0.4001,-0.4614,-0.4557,-0.5153,-0.5887,-0.6281,-0.6587,-0.7217,-0.8159,-0.8622,-0.8934,-0.9402,-1.0175,-1.0679,-1.0727,-1.1164,-1.1623,-1.2201,-1.2617,-1.2896,-1.3325,-1.4047,-1.4617,-1.5052,-1.5328,-1.5753,-0.2199,0.0,0.0,0.0,0.0,0.0,0.0,0.0,0.0,0.0,0.0,0.0,0.0,0.0,0.0,0.0,0.0,0.0,0.0,0.0,0.0,0.0,0.0,0.0,0.0,0.0,0.0,0.0,0.0,0.0,-0.7125,-0.7215,-0.7264,-0.7109,-0.6904,-0.6685,-0.6162,-0.5988,-0.5683,-0.5538,-0.556,-0.5281,-0.4844,-0.4906,-0.4484,-0.3891,-0.3807,-0.339,-0.2799,-0.2675,-0.253,-0.2532,-0.2225,-0.2078,-0.2092,-0.1771,-0.1294,-0.0814,-0.0818,-0.0494,-0.0,-0.0,-0.0,-0.0,-0.0,-0.0,-0.0,-0.0,-0.0,-0.0,-0.0,-0.0,-0.0337,-0.1516,-0.219,-0.2527,-0.1852,-0.1851,-0.202,-0.2525,-0.2692,-0.2861,-0.3029,-0.3367,-0.3526,-0.4165,-0.4477,-0.4762,-0.5158,-0.5448,-0.5884,-0.6598,-0.6747,-0.7217,-0.8159,-0.8627,-0.909,-0.9708,-1.0641,-1.114,-1.1177,-1.1762,-1.236,-1.2624,-1.2896,-1.3182,-1.3325,-1.4047,-1.4625,-1.5052,-1.547,-1.5753,-0.223,-0.2448,0.0,0.0,0.0,0.0,0.0,0.0,0.0,0.0,0.0,0.0,0.0,0.0,0.0,0.0,0.0,0.0,0.0,0.0,0.0,0.0,0.0,0.0,0.0,0.0,0.0,0.0,0.0,0.0,-0.7223,-0.7285,-0.717,-0.717,-0.7113,-0.6905,-0.6559,-0.6264,-0.6119,-0.5974,-0.5974,-0.5829,-0.5396,-0.5293,-0.5017,-0.4433,-0.419,-0.3788,-0.3222,-0.2938,-0.2794,-0.264,-0.2651,-0.2668,-0.253,-0.2541,-0.2238,-0.1771,-0.1777,-0.1301,-0.0819,-0.0493,-0.0496,-0.0333,-0.0167,-0.0,-0.0,-0.0,-0.0505,-0.0842,-0.0842,-0.0674,-0.0674,-0.2021,-0.2527,-0.2694,-0.2692,-0.2188,-0.2018,-0.2524,-0.2861,-0.3026,-0.335,-0.3681,-0.3999,-0.4447,-0.4752,-0.5039,-0.5605,-0.589,-0.6174,-0.6755,-0.7217,-0.7686,-0.8315,-0.8778,-0.9402,-1.0175,-1.0952,-1.1293,-1.1469,-1.221,-1.2655,-1.276,-1.3182,-1.3468,-1.3753,-1.4332,-1.4759,-1.5052,-1.5612,-1.6037,0.0,0.0,0.0,0.0,0.0,0.0,0.0,0.0,0.0,0.0,0.0,0.0,0.0,0.0,0.0,0.0,0.0,0.0,0.0,0.0,0.0,0.0,0.0,0.0,0.0,0.0,0.0,0.0,0.0,-0.7469,-0.7557,-0.7276,-0.699,-0.699,-0.699,-0.699,-0.699,-0.699,-0.6845,-0.6413,-0.6413,-0.6264,-0.5825,-0.5392,-0.525,-0.5107,-0.443,-0.3887,-0.3629,-0.3631,-0.333,-0.3033,-0.307,-0.293,-0.2472,-0.25,-0.2512,-0.2517,-0.2547,-0.2559,-0.2404,-0.1621,-0.1302,-0.1142,-0.033,-0.0,-0.0,-0.0,-0.1346,-0.2694,-0.2694,-0.202,-0.1346,-0.1346,-0.2018,-0.2692,-0.2692,-0.2691,-0.2691,-0.2692,-0.3029,-0.3353,-0.3316,-0.3968,-0.461,-0.4555,-0.4826,-0.5271,-0.559,-0.6004,-0.6431,-0.6904,-0.769,-0.8315,-0.8778,-0.9246,-0.9708,-1.0641,-1.1107,-1.1293,-1.1476,-1.221,-1.2655,-1.276,-1.3182,-1.3753,-1.4474,-1.491,-1.5052,-1.5052,-1.5895,-1.6613,-0.2393,0.0,0.0,0.0,0.0,0.0,0.0,0.0,0.0,0.0,0.0,0.0,0.0,0.0,0.0,0.0,0.0,0.0,0.0,0.0,0.0,0.0,0.0,0.0,0.0,0.0,0.0,0.0,0.0,-0.8002,-0.7464,-0.7098,-0.699,-0.699,-0.699,-0.699,-0.699,-0.699,-0.699,-0.6845,-0.6845,-0.6555,-0.6264,-0.6123,-0.5974,-0.5683,-0.5411,-0.5137,-0.4722,-0.3906,-0.3482,-0.3484,-0.3495,-0.3347,-0.3349,-0.336,-0.3077,-0.2948,-0.2959,-0.2681,-0.2402,-0.2249,-0.2102,-0.2118,-0.1961,-0.1472,-0.0982,-0.0985,-0.1314,-0.1811,-0.2491,-0.251,-0.2356,-0.2356,-0.2524,-0.2692,-0.2692,-0.3009,-0.3166,-0.3192,-0.3343,-0.3487,-0.4138,-0.4434,-0.4555,-0.4823,-0.5283,-0.5734,-0.6155,-0.6445,-0.706,-0.7686,-0.8002,-0.8471,-0.9246,-0.9558,-1.0175,-1.1107,-1.1572,-1.1906,-1.2223,-1.2806,-1.3096,-1.319,-1.3468,-1.4047,-1.4474,-1.491,-1.5186,-1.547,-1.6169,-1.6964,-0.2606,-0.276,-0.2834,-0.2977,0.0,0.0,0.0,0.0,0.0,0.0,0.0,0.0,0.0,0.0,0.0,0.0,0.0,0.0,0.0,0.0,0.0,0.0,0.0,0.0,0.0,0.0,0.0,0.0,-0.8321,-0.8019,-0.7363,-0.717,-0.7077,-0.6933,-0.7115,-0.7276,-0.7276,-0.7386,-0.7365,-0.7221,-0.7183,-0.688,-0.6455,-0.6309,-0.6166,-0.588,-0.5767,-0.5637,-0.5358,-0.4728,-0.4171,-0.3875,-0.3746,-0.3754,-0.3608,-0.3625,-0.3497,-0.3368,-0.3368,-0.3101,-0.268,-0.268,-0.2701,-0.257,-0.2421,-0.2101,-0.1779,-0.1788,-0.179,-0.1956,-0.2463,-0.2643,-0.2654,-0.2654,-0.282,-0.2987,-0.2987,-0.3302,-0.3462,-0.3336,-0.3641,-0.3935,-0.4406,-0.47,-0.4821,-0.5243,-0.5551,-0.5852,-0.6438,-0.6747,-0.7217,-0.8159,-0.8315,-0.8778,-0.9402,-0.9864,-1.0486,-1.1262,-1.1727,-1.206,-1.2522,-1.2955,-1.3243,-1.3333,-1.3753,-1.4189,-1.4768,-1.491,-1.5328,-1.5895,-1.669,-1.7368,-0.2956,-0.3013,-0.3038,-0.3066,0.0,0.0,-0.3737,-0.3968,0.0,0.0,0.0,0.0,0.0,0.0,0.0,0.0,0.0,0.0,0.0,0.0,0.0,0.0,0.0,0.0,0.0,0.0,0.0,-0.8541,-0.8272,-0.7991,-0.7413,-0.7504,-0.7269,-0.6981,-0.7347,-0.7679,-0.7679,-0.7879,-0.7837,-0.7411,-0.7323,-0.7144,-0.6864,-0.6442,-0.6302,-0.6166,-0.5955,-0.5841,-0.5706,-0.5774,-0.5232,-0.4231,-0.428,-0.4004,-0.3714,-0.3754,-0.3771,-0.3625,-0.3625,-0.3503,-0.3081,-0.324,-0.2954,-0.2672,-0.2704,-0.2555,-0.256,-0.2587,-0.2597,-0.26,-0.26,-0.2601,-0.2601,-0.2764,-0.309,-0.3253,-0.3253,-0.3574,-0.3909,-0.3455,-0.3923,-0.4529,-0.4483,-0.4788,-0.5243,-0.5661,-0.5808,-0.6121,-0.6747,-0.706,-0.7373,-0.8159,-0.8622,-0.909,-0.9553,-1.0175,-1.0796,-1.1417,-1.1727,-1.2213,-1.2671,-1.2955,-1.3243,-1.3333,-1.3761,-1.4332,-1.5052,-1.5052,-1.5488,-1.6358,-1.7265,-1.7806,-0.3013,-0.3013,-0.3038,0.0,0.0,0.0,-0.3471,-0.3708,0.0,0.0,0.0,0.0,0.0,0.0,0.0,0.0,0.0,0.0,0.0,0.0,0.0,0.0,0.0,0.0,0.0,0.0,-0.8068,-0.8285,-0.8106,-0.8043,-0.8248,-0.7855,-0.7725,-0.7585,-0.7743,-0.7753,-0.7753,-0.7874,-0.7864,-0.7725,-0.7706,-0.7697,-0.7557,-0.7557,-0.7279,-0.7004,-0.7021,-0.6605,-0.6049,-0.6063,-0.5859,-0.5538,-0.5405,-0.5265,-0.483,-0.4844,-0.4583,-0.4024,-0.4024,-0.3759,-0.3499,-0.3535,-0.3552,-0.3413,-0.3454,-0.3308,-0.2837,-0.253,-0.2549,-0.2729,-0.3048,-0.3069,-0.3253,-0.3578,-0.3742,-0.3742,-0.3742,-0.4037,-0.4335,-0.4183,-0.4337,-0.4488,-0.4955,-0.5232,-0.5667,-0.5655,-0.6278,-0.6747,-0.6904,-0.7529,-0.8159,-0.8622,-0.909,-0.9553,-1.033,-1.0796,-1.1417,-1.1727,-1.2192,-1.2525,-1.3118,-1.3103,-1.339,-1.3769,-1.4474,-1.5044,-1.547,-1.5753,-1.6264,-1.7008,-1.7478,-1.8114,0.0,0.0,0.0,-0.316,0.0,0.0,0.0,-0.356,0.0,0.0,0.0,0.0,0.0,0.0,0.0,0.0,0.0,0.0,0.0,0.0,0.0,0.0,0.0,0.0,0.0,0.0,-0.7575,-0.7617,-0.7791,-0.7832,-0.7868,-0.7922,-0.7839,-0.7755,-0.7946,-0.8114,-0.8114,-0.8198,-0.8168,-0.8035,-0.7976,-0.7815,-0.7679,-0.7679,-0.7542,-0.741,-0.7461,-0.7203,-0.6932,-0.6979,-0.6774,-0.6429,-0.5859,-0.5597,-0.5483,-0.5483,-0.5238,-0.4855,-0.4709,-0.445,-0.4052,-0.3926,-0.3799,-0.367,-0.3694,-0.3562,-0.3428,-0.3135,-0.3156,-0.3169,-0.3486,-0.3501,-0.3516,-0.3835,-0.3997,-0.4157,-0.4157,-0.4614,-0.5068,-0.5068,-0.5204,-0.5193,-0.5379,-0.5673,-0.6118,-0.6278,-0.6555,-0.6995,-0.7464,-0.7774,-0.8393,-0.9006,-0.9211,-0.9708,-1.0486,-1.1107,-1.1417,-1.1882,-1.2501,-1.2984,-1.3118,-1.3401,-1.3691,-1.4198,-1.4759,-1.5186,-1.5603,-1.6282,-1.6826,-1.7077,-1.7609,-1.8279,0.0,0.0,0.0,0.0,0.0,-0.325,0.0,0.0,0.0,0.0,0.0,0.0,0.0,0.0,0.0,0.0,0.0,0.0,0.0,0.0,0.0,0.0,0.0,0.0,0.0,0.0,-0.7025,-0.7088,-0.734,-0.7576,-0.7432,-0.7797,-0.7907,-0.7882,-0.825,-0.8449,-0.8469,-0.8649,-0.8601,-0.8329,-0.8236,-0.8056,-0.766,-0.766,-0.766,-0.7665,-0.7747,-0.7781,-0.765,-0.7741,-0.7636,-0.723,-0.6295,-0.5923,-0.5834,-0.5834,-0.574,-0.5805,-0.5373,-0.5125,-0.4886,-0.4601,-0.4195,-0.3933,-0.3784,-0.381,-0.3848,-0.3731,-0.3741,-0.3741,-0.3899,-0.3899,-0.3899,-0.4053,-0.4366,-0.468,-0.4688,-0.5156,-0.5783,-0.578,-0.6045,-0.6025,-0.5777,-0.6085,-0.6541,-0.6855,-0.6953,-0.7213,-0.7829,-0.8135,-0.844,-0.9046,-0.9454,-0.9832,-1.0606,-1.1095,-1.1572,-1.2037,-1.2656,-1.3151,-1.3312,-1.3683,-1.4237,-1.4625,-1.4901,-1.5346,-1.5809,-1.6692,-1.7096,-1.728,-1.7935,-1.8453,0.0,0.0,0.0,0.0,-0.3348,0.0,0.0,0.0,0.0,0.0,0.0,0.0,0.0,0.0,0.0,0.0,0.0,0.0,0.0,0.0,0.0,0.0,0.0,0.0,0.0,0.0,0.0,-0.688,-0.6874,-0.7103,-0.7587,-0.7694,-0.7935,-0.8322,-0.8338,-0.8397,-0.8628,-0.8617,-0.8606,-0.8606,-0.8595,-0.8456,-0.8456,-0.8456,-0.8323,-0.8061,-0.8071,-0.7809,-0.7545,-0.7555,-0.756,-0.7444,-0.7212,-0.6729,-0.6038,-0.6038,-0.5944,-0.5726,-0.5726,-0.5633,-0.5706,-0.5622,-0.554,-0.5144,-0.4845,-0.4394,-0.4096,-0.3647,-0.3647,-0.3647,-0.4105,-0.4105,-0.4409,-0.5013,-0.5319,-0.5328,-0.5523,-0.5685,-0.5839,-0.6298,-0.6444,-0.6295,-0.6022,-0.6274,-0.6532,-0.6683,-0.728,-0.7725,-0.7876,-0.8483,-0.8935,-0.9086,-0.9791,-1.0627,-1.0938,-1.1503,-1.2037,-1.2347,-1.2811,-1.3195,-1.3468,-1.4211,-1.4686,-1.491,-1.5328,-1.5836,-1.6443,-1.6913,-1.7319,-1.7945,-1.8453,-1.9127,0.0,0.0,0.0,0.0,0.0,0.0,-0.3316,0.0,-0.3297,0.0,0.0,0.0,0.0,0.0,0.0,0.0,0.0,0.0,0.0,0.0,0.0,0.0,0.0,0.0,0.0,0.0,0.0,0.0,0.0,-0.6607,-0.7202,-0.7376,-0.7733,-0.8307,-0.8312,-0.8367,-0.8486,-0.8618,-0.8783,-0.8851,-0.9123,-0.9256,-0.9256,-0.9256,-0.8989,-0.8717,-0.8717,-0.8456,-0.8189,-0.8189,-0.8056,-0.7799,-0.7757,-0.7415,-0.7052,-0.7052,-0.6835,-0.6637,-0.6352,-0.6267,-0.6062,-0.5849,-0.5746,-0.5632,-0.5528,-0.5391,-0.5098,-0.4985,-0.4993,-0.4993,-0.5147,-0.5298,-0.5298,-0.56,-0.5619,-0.5644,-0.5666,-0.5803,-0.5932,-0.6236,-0.6513,-0.6947,-0.7109,-0.7109,-0.7109,-0.7256,-0.7514,-0.7923,-0.8374,-0.8671,-0.8969,-0.9266,-0.9966,-1.0498,-1.095,-1.153,-1.2066,-1.2678,-1.329,-1.387,-1.4255,-1.4605,-1.5018,-1.5386,-1.5668,-1.614,-1.667,-1.738,-1.793,-1.8168,-1.8694,-1.9319,-0.3826,0.0,0.0,0.0,0.0,0.0,0.0,0.0,0.0,0.0,0.0,0.0,0.0,0.0,-0.3717,-0.3724,0.0,0.0,0.0,0.0,0.0,0.0,0.0,0.0,0.0,0.0,0.0,0.0,-0.5622,0.0,-0.6712,-0.7049,-0.7552,-0.8127,-0.8166,-0.8242,-0.8497,-0.8756,-0.8944,-0.9197,-0.9468,-0.9624,-0.9661,-0.9661,-0.9528,-0.9256,-0.9256,-0.9123,-0.8856,-0.8856,-0.8723,-0.8595,-0.8456,-0.8236,-0.8038,-0.7767,-0.7566,-0.7377,-0.7096,-0.6741,-0.6551,-0.635,-0.6087,-0.5956,-0.6033,-0.591,-0.592,-0.5975,-0.5992,-0.5992,-0.5992,-0.5992,-0.5992,-0.6141,-0.6019,-0.5896,-0.6046,-0.6169,-0.6291,-0.6589,-0.7001,-0.7564,-0.7855,-0.7603,-0.7485,-0.7783,-0.7869,-0.8117,-0.8705,-0.8998,-0.9145,-0.9584,-0.9991,-1.0512,-1.0959,-1.154,-1.2244,-1.3029,-1.3839,-1.4302,-1.4708,-1.5027,-1.538,-1.5632,-1.6066,-1.6536,-1.7035,-1.7931,-1.833,-1.854,-1.8988,-1.9372,0.0,0.0,0.0,-0.3667,0.0,0.0,0.0,0.0,-0.3467,0.0,0.0,0.0,0.0,-0.3364,-0.3431,-0.323,-0.3368,0.0,0.0,0.0,0.0,0.0,0.0,0.0,0.0,0.0,0.0,0.0,-0.5126,0.0,-0.6284,-0.6696,-0.7155,-0.7877,-0.7997,-0.8243,-0.8747,-0.8747,-0.8939,-0.9329,-0.9459,-0.9533,-0.9661,-0.9661,-0.9661,-0.9661,-0.9661,-0.9661,-0.9661,-0.9661,-0.9661,-0.9661,-0.9256,-0.9117,-0.8989,-0.7927,-0.7593,-0.7679,-0.7679,-0.7475,-0.7301,-0.7402,-0.6864,-0.6309,-0.6391,-0.6123,-0.5832,-0.5832,-0.5832,-0.5832,-0.5832,-0.5832,-0.5835,-0.6275,-0.6275,-0.6275,-0.6857,-0.6998,-0.7144,-0.7869,-0.8015,-0.8015,-0.816,-0.7865,-0.7724,-0.8015,-0.8444,-0.8734,-0.8734,-0.9023,-0.9452,-0.9885,-1.0438,-1.0816,-1.1257,-1.1831,-1.2428,-1.3483,-1.4107,-1.4436,-1.4716,-1.5453,-1.5817,-1.5632,-1.6361,-1.7054,-1.7703,-1.815,-1.856,-1.9229,-1.9682,-1.9844,0.0,0.0,-0.3883,-0.3822,0.0,0.0,0.0,0.0,0.0,0.0,0.0,0.0,0.0,-0.3388,-0.3368,-0.3238,-0.3159,-0.3171,0.0,0.0,0.0,0.0,0.0,0.0,0.0,0.0,0.0,-0.4463,-0.4663,-0.5231,0.0,-0.6365,-0.6884,-0.7747,-0.8038,-0.8278,-0.8614,-0.8998,-0.9444,-0.9569,-0.9838,-1.0045,-1.0176,-1.0176,-1.0103,-1.006,-1.006,-0.9927,-0.9661,-0.9661,-0.9661,-0.9661,-0.9528,-0.9522,-0.9389,-0.859,-0.8081,-0.7988,-0.7786,-0.7698,-0.7608,-0.7576,-0.7468,-0.7332,-0.7367,-0.7278,-0.7187,-0.7187,-0.7229,-0.728,-0.728,-0.728,-0.7425,-0.7425,-0.7135,-0.6845,-0.699,-0.786,-0.8579,-0.8874,-0.8584,-0.844,-0.8874,-0.8579,-0.844,-0.844,-0.8584,-0.8729,-0.9018,-0.9446,-0.9735,-0.9879,-1.0498,-1.097,-1.1115,-1.2115,-1.2904,-1.3476,-1.4158,-1.4822,-1.5336,-1.5802,-1.6223,-1.6455,-1.6907,-1.7397,-1.7918,-1.8371,-1.8713,-1.9239,-1.9693,-1.9844,-0.4181,-0.4087,0.0,-0.3957,-0.3834,0.0,-0.3724,0.0,0.0,0.0,0.0,0.0,0.0,-0.3385,-0.3275,-0.3147,-0.3044,-0.2891,0.0,-0.2617,0.0,0.0,0.0,0.0,0.0,0.0,-0.3667,-0.4149,-0.4373,-0.4941,0.0,0.0,-0.6699,-0.7619,-0.7943,-0.8324,-0.8658,-0.9155,-0.9497,-0.981,-1.0069,-1.0276,-1.0419,-1.0466,-1.0417,-1.0247,-1.03,-1.0326,-1.006,-1.006,-1.006,-1.006,-0.9927,-0.9927,-0.9794,-0.9256,-0.8723,-0.8467,-0.8267,-0.8023,-0.7907,-0.7883,-0.7917,-0.7783,-0.7822,-0.7883,-0.7936,-0.7936,-0.7983,-0.8041,-0.8041,-0.8041,-0.8041,-0.8041,-0.7768,-0.75,-0.75,-0.8341,-0.9171,-0.9139,-0.885,-0.8728,-0.9088,-0.8955,-0.8827,-0.8863,-0.8874,-0.9018,-0.9446,-0.9735,-1.0023,-1.0317,-1.0756,-1.1188,-1.1332,-1.2329,-1.3118,-1.3687,-1.4366,-1.4941,-1.5582,-1.605,-1.6357,-1.6806,-1.7273,-1.7731,-1.8177,-1.8491,-1.8946,-1.939,-1.9693,-1.9844]},{"header":{"parameterUnit":"m.s-1","parameterCategory":1,"la1":30.6,"la2":29.2853,"lo1":-89.7004,"lo2":-87.6739,"dy":0.0162,"dx":0.0183,"nx":112,"ny":82,"refTime":"2023-06-18T18:00:00:Z","depth":0,"parameterNumber":3,"parameterNumberName":"V-component_of_WINDS"},"data":[0.0,0.0,0.0,0.0,0.0,0.0,0.0,0.0,0.0,0.0,0.0,0.0,0.0,0.0,0.0,0.0,0.0,0.0,0.0,0.0,0.0,0.0,0.0,0.0,0.0,0.0,0.0,0.0,0.0,0.0,0.0,0.0,0.0,0.0,0.0,0.0,0.0,0.0,0.0,0.0,0.0,0.0,0.0,0.0,0.0,0.0,0.0,0.0,0.0,0.0,0.0,0.0,0.0,0.0,0.0,0.0,0.0,0.0,0.0,0.0,0.0,0.0,0.0,0.0,0.0,0.0,0.0,0.0,0.0,0.0,0.0,0.0,0.0,0.0,0.0,0.0,0.0,0.0,0.0,0.0,0.0,0.0,0.0,0.0,0.0,0.0,0.0,0.0,0.0,0.0,0.0,-3.4022,-3.6285,-3.7337,-3.6578,-3.5589,-3.4051,-3.1758,0.0,0.0,0.0,0.0,0.0,0.0,0.0,0.0,0.0,0.0,0.0,0.0,0.0,0.0,0.0,0.0,0.0,0.0,0.0,0.0,0.0,0.0,0.0,0.0,0.0,0.0,0.0,0.0,0.0,0.0,0.0,0.0,0.0,0.0,0.0,0.0,0.0,0.0,0.0,0.0,0.0,0.0,0.0,0.0,0.0,0.0,0.0,0.0,0.0,0.0,0.0,0.0,0.0,0.0,0.0,0.0,0.0,0.0,0.0,0.0,0.0,0.0,0.0,0.0,0.0,0.0,0.0,0.0,0.0,0.0,0.0,0.0,0.0,0.0,0.0,0.0,0.0,0.0,0.0,0.0,0.0,0.0,0.0,0.0,0.0,0.0,0.0,0.0,0.0,0.0,0.0,0.0,0.0,0.0,0.0,0.0,0.0,0.0,0.0,0.0,0.0,0.0,0.0,0.0,-3.2622,-3.5837,-3.7146,-3.7708,-3.7504,-3.6056,-3.4649,-3.3477,0.0,0.0,0.0,0.0,0.0,0.0,0.0,0.0,0.0,0.0,0.0,0.0,0.0,0.0,0.0,0.0,0.0,0.0,0.0,0.0,0.0,0.0,0.0,0.0,0.0,0.0,0.0,0.0,0.0,0.0,0.0,0.0,0.0,0.0,0.0,0.0,0.0,0.0,0.0,0.0,0.0,0.0,0.0,0.0,0.0,0.0,0.0,0.0,0.0,0.0,0.0,0.0,0.0,0.0,0.0,0.0,0.0,0.0,0.0,0.0,0.0,0.0,0.0,0.0,0.0,0.0,0.0,0.0,0.0,0.0,0.0,0.0,0.0,0.0,0.0,0.0,0.0,0.0,0.0,0.0,0.0,0.0,0.0,0.0,0.0,0.0,0.0,0.0,0.0,0.0,0.0,0.0,0.0,0.0,0.0,0.0,0.0,0.0,0.0,0.0,0.0,0.0,0.0,-3.3415,-3.5353,-3.7809,-3.8761,-3.8997,-3.8487,-3.736,-3.5873,-3.4098,-3.1134,0.0,0.0,0.0,0.0,0.0,0.0,0.0,0.0,0.0,0.0,0.0,0.0,0.0,0.0,0.0,0.0,0.0,0.0,0.0,0.0,0.0,0.0,0.0,0.0,0.0,0.0,0.0,0.0,0.0,0.0,0.0,0.0,0.0,0.0,0.0,0.0,0.0,0.0,0.0,0.0,0.0,0.0,0.0,0.0,0.0,0.0,0.0,0.0,0.0,0.0,0.0,0.0,0.0,0.0,0.0,0.0,0.0,0.0,0.0,0.0,0.0,0.0,0.0,0.0,0.0,0.0,0.0,0.0,0.0,0.0,0.0,0.0,0.0,0.0,0.0,0.0,0.0,0.0,0.0,0.0,0.0,0.0,0.0,0.0,0.0,0.0,0.0,0.0,0.0,0.0,0.0,0.0,0.0,0.0,0.0,0.0,0.0,0.0,0.0,0.0,0.0,0.0,-3.597,-3.777,-3.9437,-4.0315,-4.0476,-3.9775,-3.8815,-3.7241,-3.4846,-3.2108,0.0,0.0,0.0,0.0,0.0,0.0,0.0,0.0,0.0,0.0,0.0,0.0,0.0,0.0,0.0,0.0,0.0,0.0,0.0,0.0,0.0,0.0,0.0,0.0,0.0,0.0,0.0,0.0,0.0,0.0,0.0,0.0,0.0,0.0,0.0,0.0,0.0,0.0,0.0,0.0,0.0,0.0,0.0,0.0,0.0,0.0,0.0,0.0,0.0,0.0,0.0,0.0,0.0,0.0,0.0,0.0,0.0,0.0,0.0,0.0,0.0,0.0,0.0,0.0,0.0,0.0,0.0,0.0,0.0,0.0,0.0,0.0,0.0,0.0,0.0,0.0,0.0,0.0,0.0,0.0,0.0,0.0,0.0,0.0,0.0,0.0,0.0,0.0,0.0,0.0,0.0,0.0,0.0,0.0,0.0,0.0,0.0,0.0,0.0,0.0,0.0,0.0,-3.6543,-3.8723,-4.0433,-4.1321,-4.1716,-4.1632,-4.0145,-3.8436,-3.6622,-3.343,0.0,0.0,0.0,0.0,0.0,0.0,0.0,0.0,0.0,0.0,0.0,0.0,0.0,0.0,0.0,0.0,0.0,0.0,0.0,0.0,0.0,0.0,0.0,0.0,0.0,0.0,0.0,0.0,0.0,0.0,0.0,0.0,0.0,0.0,0.0,0.0,0.0,0.0,0.0,0.0,0.0,0.0,0.0,0.0,0.0,0.0,0.0,0.0,0.0,0.0,0.0,0.0,0.0,0.0,0.0,0.0,0.0,0.0,0.0,0.0,0.0,0.0,0.0,0.0,0.0,0.0,0.0,0.0,0.0,0.0,0.0,0.0,0.0,0.0,0.0,0.0,0.0,0.0,0.0,0.0,0.0,0.0,0.0,0.0,0.0,0.0,0.0,0.0,0.0,0.0,0.0,0.0,0.0,0.0,0.0,0.0,0.0,0.0,0.0,0.0,0.0,0.0,-3.7749,-3.9661,0.0,-4.2226,-4.2469,-4.1923,-4.0805,-3.9147,-3.6897,0.0,0.0,0.0,0.0,0.0,0.0,0.0,0.0,0.0,0.0,0.0,0.0,0.0,0.0,0.0,0.0,0.0,0.0,0.0,0.0,0.0,0.0,0.0,0.0,0.0,0.0,0.0,0.0,0.0,0.0,0.0,0.0,0.0,0.0,0.0,0.0,0.0,0.0,0.0,0.0,0.0,0.0,0.0,0.0,0.0,0.0,0.0,0.0,0.0,0.0,0.0,0.0,0.0,0.0,0.0,0.0,0.0,0.0,0.0,0.0,0.0,0.0,0.0,0.0,0.0,0.0,0.0,0.0,0.0,0.0,0.0,0.0,0.0,0.0,0.0,0.0,0.0,0.0,0.0,0.0,0.0,0.0,0.0,0.0,0.0,0.0,0.0,0.0,0.0,0.0,0.0,0.0,0.0,0.0,0.0,0.0,0.0,0.0,0.0,0.0,0.0,0.0,-3.7055,-3.8926,-4.0676,0.0,-4.3337,-4.344,-4.2833,-4.1751,-4.0127,-3.7846,0.0,0.0,0.0,0.0,0.0,0.0,0.0,0.0,0.0,0.0,0.0,0.0,0.0,0.0,0.0,0.0,0.0,0.0,0.0,0.0,0.0,0.0,0.0,0.0,0.0,0.0,0.0,0.0,0.0,0.0,0.0,0.0,0.0,0.0,0.0,0.0,0.0,0.0,0.0,0.0,0.0,0.0,0.0,0.0,0.0,0.0,0.0,0.0,0.0,0.0,0.0,0.0,0.0,0.0,0.0,0.0,0.0,0.0,0.0,0.0,0.0,0.0,0.0,0.0,0.0,0.0,0.0,0.0,0.0,0.0,0.0,0.0,0.0,0.0,0.0,0.0,0.0,0.0,0.0,0.0,0.0,0.0,0.0,0.0,0.0,0.0,0.0,0.0,0.0,0.0,0.0,0.0,0.0,0.0,0.0,0.0,0.0,0.0,0.0,0.0,0.0,0.0,-3.811,-3.9908,-4.1906,-4.4432,-4.4742,-4.4742,-4.4703,-4.3114,-4.1419,0.0,0.0,0.0,0.0,0.0,0.0,0.0,0.0,0.0,0.0,0.0,0.0,0.0,0.0,0.0,0.0,0.0,0.0,0.0,0.0,0.0,0.0,0.0,0.0,0.0,0.0,0.0,0.0,0.0,0.0,0.0,0.0,0.0,0.0,0.0,0.0,0.0,0.0,0.0,0.0,0.0,0.0,0.0,0.0,0.0,0.0,0.0,0.0,0.0,0.0,0.0,0.0,0.0,0.0,0.0,0.0,0.0,0.0,0.0,0.0,0.0,0.0,0.0,0.0,0.0,0.0,0.0,0.0,0.0,0.0,0.0,0.0,0.0,0.0,0.0,0.0,0.0,0.0,0.0,0.0,0.0,0.0,0.0,0.0,0.0,0.0,0.0,0.0,0.0,0.0,0.0,0.0,0.0,0.0,0.0,0.0,0.0,0.0,0.0,0.0,0.0,0.0,0.0,-3.8982,-4.1335,-4.349,-4.5398,-4.6654,-4.6913,-4.5711,-4.513,-4.3579,-4.0632,0.0,0.0,0.0,0.0,0.0,0.0,0.0,0.0,0.0,0.0,0.0,0.0,0.0,0.0,0.0,0.0,0.0,0.0,0.0,0.0,0.0,0.0,0.0,0.0,0.0,0.0,0.0,0.0,0.0,0.0,0.0,0.0,0.0,0.0,0.0,0.0,0.0,0.0,0.0,0.0,0.0,0.0,0.0,0.0,0.0,0.0,0.0,0.0,0.0,0.0,0.0,0.0,0.0,0.0,0.0,0.0,0.0,0.0,0.0,0.0,0.0,0.0,0.0,0.0,0.0,0.0,0.0,0.0,0.0,0.0,0.0,0.0,0.0,0.0,0.0,0.0,0.0,0.0,0.0,0.0,0.0,0.0,0.0,0.0,0.0,0.0,0.0,0.0,0.0,0.0,0.0,0.0,0.0,0.0,0.0,0.0,0.0,0.0,0.0,0.0,0.0,0.0,-4.089,-4.3199,-4.5191,-4.6851,-4.7944,-4.8126,-4.7117,-4.6418,-4.4982,-4.2548,0.0,0.0,0.0,0.0,0.0,0.0,0.0,0.0,0.0,0.0,0.0,0.0,0.0,0.0,0.0,0.0,0.0,0.0,0.0,0.0,0.0,0.0,0.0,0.0,0.0,0.0,0.0,0.0,0.0,0.0,0.0,0.0,0.0,0.0,0.0,0.0,0.0,0.0,0.0,0.0,0.0,0.0,0.0,0.0,0.0,0.0,0.0,0.0,0.0,0.0,0.0,0.0,0.0,0.0,0.0,0.0,0.0,0.0,0.0,0.0,0.0,0.0,0.0,0.0,0.0,0.0,0.0,0.0,0.0,0.0,0.0,0.0,0.0,0.0,0.0,0.0,0.0,0.0,0.0,0.0,0.0,0.0,0.0,0.0,0.0,0.0,0.0,0.0,0.0,0.0,0.0,0.0,0.0,0.0,0.0,0.0,0.0,0.0,0.0,0.0,0.0,0.0,-4.3303,-4.5257,-4.698,-4.8642,-4.8971,-4.9038,-4.8844,-4.7406,-4.6056,-4.4987,0.0,0.0,0.0,0.0,0.0,0.0,0.0,0.0,0.0,0.0,0.0,0.0,0.0,0.0,0.0,0.0,0.0,0.0,0.0,0.0,0.0,0.0,0.0,0.0,0.0,0.0,0.0,0.0,0.0,0.0,0.0,0.0,0.0,0.0,0.0,0.0,0.0,0.0,0.0,0.0,0.0,0.0,0.0,0.0,0.0,0.0,0.0,0.0,0.0,0.0,0.0,0.0,0.0,0.0,0.0,0.0,0.0,0.0,0.0,0.0,-3.4042,0.0,0.0,0.0,0.0,0.0,0.0,0.0,0.0,0.0,0.0,0.0,0.0,0.0,0.0,0.0,0.0,0.0,0.0,0.0,0.0,0.0,0.0,0.0,0.0,0.0,0.0,0.0,0.0,0.0,0.0,0.0,0.0,0.0,0.0,0.0,0.0,0.0,0.0,0.0,0.0,0.0,-4.4285,-4.6683,-4.8768,-5.0471,-5.1862,-5.2134,-5.0773,-5.0306,-4.8866,-4.5987,-4.4664,0.0,0.0,0.0,0.0,0.0,0.0,0.0,0.0,0.0,0.0,0.0,0.0,0.0,0.0,0.0,0.0,0.0,0.0,0.0,0.0,0.0,0.0,0.0,0.0,0.0,0.0,0.0,0.0,0.0,0.0,0.0,0.0,0.0,0.0,0.0,0.0,0.0,0.0,0.0,0.0,0.0,0.0,0.0,0.0,0.0,0.0,0.0,0.0,0.0,0.0,0.0,0.0,0.0,0.0,0.0,0.0,0.0,0.0,0.0,0.0,-3.6492,0.0,0.0,0.0,0.0,0.0,0.0,0.0,0.0,0.0,0.0,0.0,0.0,0.0,0.0,0.0,0.0,0.0,0.0,0.0,0.0,0.0,0.0,0.0,0.0,0.0,0.0,0.0,0.0,0.0,0.0,0.0,0.0,0.0,0.0,0.0,0.0,0.0,0.0,0.0,0.0,-4.6995,-4.8889,-5.0577,-5.229,-5.3244,-5.3429,-5.2534,-5.2076,-5.0909,-4.8738,-4.7376,0.0,0.0,0.0,0.0,0.0,0.0,0.0,0.0,0.0,0.0,0.0,0.0,0.0,0.0,0.0,0.0,0.0,0.0,0.0,0.0,0.0,0.0,0.0,0.0,0.0,0.0,0.0,0.0,0.0,0.0,0.0,0.0,0.0,0.0,0.0,0.0,0.0,0.0,0.0,0.0,0.0,0.0,0.0,0.0,0.0,0.0,0.0,0.0,0.0,0.0,0.0,0.0,0.0,0.0,0.0,-4.5889,-4.5991,-4.6415,-4.6922,-4.3344,-4.1476,-4.0851,0.0,0.0,0.0,0.0,0.0,0.0,0.0,0.0,0.0,0.0,0.0,0.0,0.0,0.0,0.0,0.0,0.0,0.0,0.0,0.0,0.0,0.0,0.0,0.0,0.0,-4.329,-4.2354,0.0,0.0,0.0,0.0,0.0,0.0,0.0,0.0,0.0,0.0,0.0,0.0,-4.9907,-5.1164,-5.2386,-5.41,-5.4392,-5.4422,-5.4266,-5.3604,-5.2718,-5.1607,-5.001,-4.8086,0.0,0.0,0.0,0.0,0.0,0.0,0.0,0.0,0.0,0.0,0.0,0.0,0.0,0.0,0.0,0.0,0.0,0.0,0.0,0.0,0.0,0.0,0.0,0.0,0.0,0.0,0.0,0.0,0.0,0.0,0.0,0.0,-2.5683,-2.7565,0.0,0.0,0.0,0.0,0.0,0.0,0.0,0.0,0.0,0.0,0.0,0.0,0.0,0.0,-4.4149,-4.4961,-4.5855,-4.6865,-4.8376,-4.9229,-4.9463,-5.0199,-5.0628,-5.0667,-5.003,0.0,-4.5289,-4.4426,0.0,0.0,0.0,0.0,0.0,0.0,0.0,0.0,0.0,0.0,0.0,0.0,0.0,0.0,0.0,0.0,0.0,0.0,0.0,0.0,0.0,0.0,-4.4682,-4.6404,-4.6811,-4.6869,0.0,-4.4762,-4.2467,-4.169,0.0,0.0,0.0,0.0,0.0,0.0,0.0,0.0,-5.0881,-5.2575,-5.4234,-5.5957,-5.6775,-5.6883,-5.6182,-5.6026,-5.4974,-5.2559,-5.1491,-5.0134,-4.8347,-4.5952,0.0,0.0,0.0,0.0,0.0,0.0,0.0,0.0,0.0,0.0,0.0,0.0,0.0,0.0,0.0,0.0,0.0,0.0,0.0,0.0,0.0,0.0,0.0,0.0,0.0,0.0,0.0,0.0,0.0,-2.6316,-2.8703,-3.0892,-3.1482,-3.2265,0.0,0.0,0.0,0.0,0.0,0.0,0.0,0.0,0.0,-4.3954,-4.5312,-4.66,-4.7849,-4.9162,-5.0249,-5.1107,-5.2376,-5.3228,-5.3696,-5.4079,-5.4266,-5.4266,-5.4258,-5.3362,-5.181,-4.9471,-4.8224,-4.7717,0.0,0.0,0.0,0.0,0.0,-4.591,-4.5553,0.0,0.0,0.0,0.0,0.0,0.0,0.0,0.0,0.0,0.0,0.0,0.0,0.0,0.0,-5.0756,-5.1157,-5.1518,-5.2889,-5.1995,-4.9965,0.0,-4.5987,-4.6261,-4.7159,0.0,0.0,0.0,0.0,0.0,-5.3943,-5.4897,-5.6012,-5.7711,-5.8217,-5.8295,-5.7944,-5.7905,-5.7018,-5.4921,-5.4422,-5.3033,-5.0366,-4.8738,-4.6835,0.0,0.0,0.0,0.0,0.0,0.0,0.0,0.0,0.0,0.0,0.0,0.0,0.0,0.0,0.0,0.0,0.0,0.0,0.0,0.0,0.0,0.0,0.0,0.0,0.0,0.0,0.0,0.0,-2.9606,-3.1601,-3.4414,-3.4725,-3.5427,0.0,0.0,0.0,0.0,0.0,0.0,-4.395,-4.4649,-4.6015,-4.8162,-4.944,-5.0645,-5.1737,-5.3202,-5.4365,-5.5223,-5.6098,-5.6948,-5.7814,-5.7797,-5.7788,-5.7788,-5.7788,-5.7788,-5.7516,-5.4048,-5.2216,-5.1671,-5.1671,-5.1289,0.0,-5.0502,-5.0424,-5.0431,-5.019,-5.0112,-4.9995,-4.9333,0.0,-4.8631,-4.7774,0.0,0.0,0.0,0.0,-5.1479,-5.1674,0.0,-5.3103,-5.4596,-5.4953,-5.5387,-5.6914,-5.7231,-5.5903,0.0,-5.0282,-5.0399,-5.1297,0.0,0.0,0.0,0.0,-5.4669,-5.6608,-5.7017,-5.7744,-5.9217,-5.9365,-5.9365,-5.9365,-5.9365,-5.871,-5.7244,-5.6737,-5.5354,-5.2801,-5.1245,-4.9454,-4.7315,0.0,0.0,0.0,0.0,0.0,0.0,0.0,0.0,0.0,0.0,0.0,0.0,0.0,0.0,0.0,0.0,0.0,0.0,0.0,0.0,0.0,0.0,0.0,0.0,0.0,0.0,0.0,0.0,0.0,-3.7943,-3.8344,0.0,0.0,0.0,0.0,-4.3368,-4.4259,-4.5855,-4.8352,-4.8532,-5.0087,-5.3403,-5.3598,-5.445,-5.6166,-5.7088,-5.7938,-5.8749,-5.9629,-6.0516,-6.1334,-6.1334,-6.1334,-6.1334,-6.1334,-6.1334,-6.1062,-5.7594,-5.6152,-5.6152,-5.6152,-5.6152,-5.5996,-5.5178,-5.4866,-5.4749,-5.3931,-5.3658,-5.3658,-5.358,-5.3034,-5.2177,-5.132,-5.1647,0.0,0.0,-5.4255,-5.5126,-5.5939,-5.6224,-5.647,-5.7406,-5.7612,-5.7855,-5.8792,-5.8987,-5.8168,0.0,-5.4303,-5.4029,-5.4888,0.0,-5.442,-5.6138,-5.7065,-5.7601,-5.7718,-5.8442,-5.9332,-6.023,-6.0347,-6.0347,-6.0347,-6.0347,-5.9957,-5.902,-5.7434,-5.6425,-5.6235,-5.3084,-5.0906,-4.993,-4.7432,0.0,0.0,0.0,0.0,0.0,0.0,0.0,0.0,0.0,0.0,0.0,0.0,0.0,0.0,0.0,0.0,0.0,0.0,0.0,0.0,0.0,0.0,0.0,0.0,0.0,0.0,0.0,0.0,-4.1456,-4.1888,0.0,0.0,-4.5707,-4.6635,-4.6952,-4.8304,-4.9976,-5.1966,-5.2077,-5.3397,-5.6322,-5.69,-5.7751,-5.8921,-6.0378,-6.1227,-6.15,-6.2348,-6.2893,-6.3205,-6.3205,-6.3517,-6.4062,-6.4062,-6.4374,-6.4803,-6.3556,-6.1763,-5.9776,-5.9785,-5.9776,-5.9737,-5.9425,-5.9308,-5.926,-5.8957,-5.888,-5.8685,-5.7533,-5.6254,-5.5046,-5.4749,-5.5262,-5.6127,-5.6985,-5.7857,-5.8766,-5.9625,-5.9831,-6.0076,-6.0934,-6.113,-6.1408,-6.2267,-6.2462,-6.2189,-6.1252,-5.9026,-5.7387,-5.7699,-5.7504,-5.7504,-5.8128,-5.8944,-5.968,-6.0255,-6.1069,-6.1921,-6.2772,-6.2843,-6.2609,-6.2063,-6.2024,-6.1407,-6.0015,-5.9357,-5.827,-5.6636,-5.5391,-5.3795,-5.1804,-5.0321,-4.8769,0.0,0.0,0.0,0.0,0.0,0.0,0.0,0.0,0.0,0.0,0.0,0.0,0.0,0.0,0.0,0.0,0.0,0.0,0.0,0.0,0.0,0.0,0.0,0.0,0.0,0.0,-4.1491,-4.4657,-4.5242,-4.6101,-4.7854,-4.9289,-5.0221,-5.0489,-5.1876,-5.3429,-5.5145,-5.545,-5.6698,-5.8999,-5.988,-6.0729,-6.1547,-6.2747,-6.3439,-6.375,-6.4569,-6.5114,-6.5426,-6.5738,-6.6166,-6.6712,-6.6712,-6.7024,-6.7569,-6.7569,-6.6244,-6.414,-6.3556,-6.3322,-6.3322,-6.3322,-6.3127,-6.2854,-6.2552,-6.2474,-6.2249,-6.0793,-5.9552,-5.8616,-5.8318,-5.8832,-5.9658,-6.0243,-6.1035,-6.1866,-6.2413,-6.2574,-6.2735,-6.3282,-6.3438,-6.3594,-6.4179,-6.4297,-6.4297,-6.4297,-6.2189,-6.051,-6.0783,-6.0627,-6.051,-6.0822,-6.1369,-6.191,-6.2491,-6.3076,-6.3656,-6.419,-6.4229,-6.3995,-6.341,-6.3098,-6.2473,-6.1353,-6.0734,-5.9641,-5.7933,-5.7074,-5.5786,-5.4068,-5.228,-5.0649,-4.9177,0.0,0.0,0.0,0.0,0.0,0.0,0.0,0.0,0.0,0.0,0.0,0.0,0.0,0.0,0.0,0.0,0.0,0.0,0.0,0.0,0.0,0.0,0.0,-4.0164,-4.2236,-4.4813,-4.7393,-4.8447,-4.9653,-5.1357,-5.2333,-5.3181,-5.3943,-5.4865,-5.6106,-5.7814,-5.8694,-5.9893,-6.1607,-6.2503,-6.3361,-6.4179,-6.4218,-6.4647,-6.5543,-6.64,-6.7219,-6.8076,-6.8894,-6.9323,-6.9323,-6.9323,-6.9362,-6.9362,-6.9401,-6.9401,-6.9245,-6.7452,-6.679,-6.679,-6.679,-6.6244,-6.5387,-6.4636,-6.4333,-6.4185,-6.335,-6.3045,-6.285,-6.2031,-6.2395,-6.3104,-6.3143,-6.3779,-6.4414,-6.4453,-6.4453,-6.4453,-6.4453,-6.4453,-6.4453,-6.4453,-6.4453,-6.4453,-6.4453,-6.3789,-6.3438,-6.4179,-6.3594,-6.3321,-6.4179,-6.4336,0.0,-6.4336,-6.4375,-6.4375,-6.4375,-6.4375,-6.4375,-6.4336,-6.3555,-6.3086,-6.3047,-6.1447,-6.0471,-6.0432,-5.805,-5.6684,-5.6606,-5.3266,-5.1011,-4.9922,0.0,0.0,0.0,0.0,0.0,0.0,0.0,0.0,0.0,0.0,0.0,0.0,0.0,0.0,0.0,0.0,0.0,0.0,0.0,0.0,0.0,0.0,-4.3833,-4.3638,-4.5789,-4.8131,-5.0126,-5.1679,-5.2996,-5.4045,-5.551,-5.6503,-5.6698,-5.8078,-5.9395,-6.0486,-6.1373,-6.2309,-6.34,-6.4257,-6.5114,-6.5972,-6.6595,-6.7374,-6.8232,-6.8465,-6.8699,-6.8933,-6.9206,-6.9634,-7.0219,-7.0219,-7.057,-7.1154,-7.1778,-7.205,-7.1817,-6.9479,-6.8582,-6.8582,-6.8582,-6.8437,-6.8183,-6.7976,-6.7516,-6.6978,-6.6759,-6.6258,-6.5679,-6.5457,-6.5541,-6.5892,-6.6517,-6.6868,-6.7185,-6.781,-6.8005,-6.8005,-6.8005,-6.8005,-6.8005,-6.8005,-6.8005,-6.8005,-6.8005,-6.781,-6.6912,-6.4687,-6.4101,-6.4023,-6.4258,-6.4843,0.0,-6.5234,-6.5741,-6.6092,-6.6092,-6.6092,-6.5897,-6.5273,-6.5038,-6.4609,-6.3984,-6.2891,-6.1993,-6.1369,-6.0041,-5.848,-5.6645,-5.5673,-5.502,0.0,0.0,0.0,0.0,0.0,0.0,0.0,0.0,0.0,0.0,0.0,0.0,0.0,0.0,0.0,0.0,0.0,0.0,0.0,0.0,0.0,0.0,-4.5434,-4.7506,-4.8638,-4.9419,-5.0672,-5.278,-5.4211,-5.5527,-5.6731,-5.7719,-5.8593,-5.9326,-6.0291,-6.1373,-6.2581,-6.3478,-6.4179,-6.4647,-6.5855,-6.6751,-6.7257,-6.8115,-6.8816,-6.9284,-6.9673,-6.9829,-6.9868,-7.018,-7.0609,0.0,-7.1505,-7.1895,-7.2401,-7.3297,-7.3648,0.0,0.0,0.0,0.0,0.0,-7.0142,-6.9809,-6.9444,-6.9022,-6.8632,-6.8652,-6.8307,-6.7877,-6.7888,-6.7888,-6.8005,-6.8513,-6.863,-6.8747,-6.9255,-6.9411,-6.9411,-6.9411,-6.9411,-6.9411,-6.9411,-6.9411,-6.9411,-6.9411,0.0,0.0,-6.6795,-6.6444,-6.6444,-6.6444,-6.6873,-6.7185,0.0,-6.7264,-6.7342,-6.7342,-6.7029,-6.66,-6.6131,-6.578,0.0,0.0,0.0,-6.3008,-6.1759,-6.1213,0.0,0.0,0.0,-5.7781,-5.8027,0.0,0.0,0.0,-5.1995,-5.2733,0.0,0.0,0.0,0.0,0.0,0.0,0.0,0.0,0.0,0.0,0.0,0.0,0.0,0.0,0.0,0.0,-4.8873,-5.141,-5.3951,-5.3053,-5.2975,-5.5318,-5.6397,-5.759,-5.9215,-5.9428,-6.0114,-6.1763,-6.1958,-6.2698,-6.4179,0.0,0.0,0.0,0.0,-6.8076,-6.831,-6.905,-6.9479,-6.9596,-7.0375,-7.0726,-7.0765,-7.1583,-7.1934,-7.2011,-7.2869,-7.3258,-7.3297,-7.4194,-7.4595,-7.4672,-7.4478,-7.441,-7.4216,-7.2752,-7.1706,0.0,0.0,0.0,0.0,-6.9835,-6.9762,-6.9684,-6.9684,-6.9684,-6.9684,-6.9684,-6.9684,-6.9684,-6.9684,-6.9684,-6.9684,-6.9684,-6.9684,-6.9684,-6.9684,-6.9684,-6.9684,-6.9684,-6.9684,-6.9684,-6.9684,-6.9528,-6.9411,-6.9411,-6.9411,0.0,-6.9411,-6.8708,-6.8239,-6.8239,0.0,0.0,-6.6951,-6.6288,-6.5858,-6.5741,-6.4921,-6.3672,-6.1954,-6.1954,-6.1252,-5.9729,-5.9612,-5.9924,-6.0588,-6.1603,-6.2032,-6.1954,-6.0397,-5.968,0.0,0.0,0.0,0.0,0.0,0.0,0.0,0.0,0.0,0.0,0.0,0.0,0.0,0.0,0.0,-4.9185,-5.1566,-5.3912,-5.5825,-5.6372,-5.6762,-5.727,-5.8694,-6.0035,-6.101,-6.1751,-6.2552,-6.3556,-6.4257,-6.4803,-6.5114,-6.5972,0.0,-6.7491,-6.7842,-6.8699,-7.0063,-7.0258,-7.0687,-7.131,0.0,0.0,-7.1583,-7.244,-7.283,-7.2908,-7.3765,-7.4155,-7.4233,-7.5073,-7.5845,-7.6361,-7.4938,-7.4441,-7.4429,-7.4141,-7.3875,-7.3719,-7.3576,-7.3075,-7.2567,-7.2534,-7.2065,-7.1519,-7.1519,-7.1519,0.0,-7.1519,-7.1519,-7.1519,-7.1519,-7.1519,-7.1519,-7.1519,-7.1519,-7.1519,-7.1519,-7.1519,-7.1519,-7.1519,-7.1519,-7.1519,-7.1519,-7.0348,-6.9411,-6.9411,-6.9411,-6.9411,-6.9411,-6.9255,-6.9137,-6.9137,-6.8981,-6.8591,-6.7927,-6.7693,-6.7303,-6.66,-6.578,-6.4648,-6.3125,-6.3555,-6.3633,-6.3282,-6.2813,-6.3086,-6.4101,-6.4336,-6.4219,-6.3789,-6.3442,-6.3277,0.0,0.0,0.0,0.0,0.0,0.0,0.0,0.0,0.0,0.0,0.0,-4.5779,0.0,0.0,-5.1226,-5.2503,-5.4147,-5.6059,-5.8207,-5.8831,-5.9104,-5.9104,-6.0249,-6.1322,-6.218,-6.2999,-6.3867,-6.4686,-6.5153,-6.5582,-6.605,-6.6478,-6.7102,-6.7959,-6.8427,-6.9284,-7.057,-7.0998,-7.1388,-7.1817,-7.1817,-7.2011,-7.2479,-7.2908,-7.3336,-7.3804,-7.4661,-7.5062,-7.5112,-7.6001,-7.6613,-7.6942,-7.6076,-7.553,-7.5148,-7.5131,-7.4864,-7.4513,-7.4486,-7.4251,-7.39,-7.39,-7.3627,-7.3236,-7.3236,-7.2963,-7.2651,-7.2651,-7.2339,-7.1987,-7.1987,-7.1987,-7.1987,-7.1987,-7.1987,-7.1987,-7.1987,-7.1987,-7.1987,-7.1987,-7.1987,-7.1987,-7.1987,-7.1285,-7.0699,-7.0699,-7.0699,-7.0699,-7.0699,-7.0309,-7.0035,-7.0035,-6.9645,-6.9215,-6.8786,-6.8357,-6.7927,-6.7498,-6.6678,-6.5702,-6.4531,-6.5194,-6.5155,-6.4336,-6.4258,-6.4414,-6.4687,-6.4687,-6.4531,-6.4286,-6.5145,-6.5061,0.0,0.0,0.0,0.0,0.0,0.0,0.0,0.0,-4.4492,-4.4687,-4.7187,-4.9449,-4.9622,-5.1722,-5.3912,-5.5318,-5.6567,-5.805,-6.0119,-6.0549,-6.0705,-6.09,-6.1459,-6.2258,-6.3311,-6.3973,-6.4725,-6.5582,-6.566,-6.5972,-6.6673,-6.6712,-6.718,-6.8232,-6.8933,-6.979,-7.0804,-7.1466,-7.1817,-7.1817,-7.1973,-7.2401,-7.3103,-7.3453,-7.3999,-7.47,-7.5569,-7.598,-7.6049,-7.673,-7.7059,-7.7121,-7.7121,-7.6653,-7.6067,-7.6041,-7.5618,-7.4993,-7.4993,-7.4876,-7.4759,-7.4759,-7.4564,-7.4369,-7.4486,-7.4134,-7.3666,-7.3588,-7.3041,-7.2495,-7.2495,-7.2495,-7.2495,-7.2495,-7.2495,-7.2456,-7.23,-7.226,-7.2182,-7.2026,-7.1987,-7.1987,-7.1993,-7.1997,-7.1993,-7.1987,-7.1987,-7.1987,-7.1987,-7.1402,-7.0933,-7.0933,-7.0309,-6.984,-6.9684,-6.8864,-6.8318,-6.82,-6.7654,-6.699,-6.6366,-6.6951,-6.6717,-6.5507,-6.578,-6.5702,-6.5273,-6.5273,-6.5267,-6.525,-6.6649,-6.6362,-3.8206,-3.8798,0.0,-4.0447,-4.1904,-4.3161,0.0,0.0,-4.7383,-4.8164,-4.9795,-5.134,-5.2136,-5.4392,-5.6216,-5.6411,-5.8441,-6.008,-6.0354,-6.1056,-6.1837,-6.2618,-6.2746,-6.3389,-6.5067,-6.526,-6.5621,-6.6478,-6.6556,-6.6595,-6.6673,-6.6712,-6.7452,-6.9089,-6.9245,-7.0063,-7.1661,-7.1778,-7.1817,-7.1817,-7.2596,-7.3025,-7.3142,-7.47,-7.548,-7.5596,-7.6487,-7.6868,-7.695,-7.7028,-7.7082,-7.7095,-7.7095,-7.7062,-7.6945,-7.6945,-7.6906,-7.6828,-7.6828,-7.6281,-7.5657,-7.5657,-7.4798,-7.3861,-7.4369,-7.4798,-7.5032,-7.4525,-7.429,-7.4212,-7.4212,-7.4212,-7.4212,-7.4212,-7.4212,-7.4017,-7.3315,-7.3158,-7.2924,-7.2143,-7.1987,-7.1997,-7.2014,-7.2017,-7.201,-7.1993,-7.1987,-7.1987,-7.1987,-7.1909,-7.1831,-7.1831,-7.1753,-7.1402,-7.0621,-6.9762,-6.9059,-6.8552,-6.8903,-6.9059,-6.8981,-6.9059,-6.9255,-6.9606,-6.9176,-6.8903,-6.8825,-6.8825,-6.882,-6.8841,-6.8983,-6.8102,-4.1374,0.0,0.0,0.0,-4.5458,-4.6872,-4.7383,-4.9062,-5.0664,-5.1055,-5.249,-5.3951,-5.4818,-5.6259,-5.7621,0.0,-5.9729,-6.0588,-6.1095,-6.1915,-6.2774,-6.3633,-6.4151,-6.4716,-6.5418,-6.5883,-6.6322,-6.6673,-6.6712,-6.6712,-6.6712,-6.718,-6.8037,-6.9245,-6.979,-7.0609,-7.1778,-7.1817,-7.1817,-7.1817,-7.2674,-7.3375,-7.3882,-7.5129,-7.5998,-7.6487,-7.6878,-7.7059,-7.7114,-7.7089,-7.7407,-7.7804,-7.7296,-7.7414,-7.7804,-7.7296,-7.7101,-7.7101,-7.7101,-7.6867,-7.6555,-7.6555,-7.6164,-7.5735,-7.5969,-7.5852,-7.5579,-7.5345,-7.4876,-7.4486,-7.4486,-7.4486,-7.4486,-7.4486,-7.4525,-7.4486,-7.4134,-7.4056,-7.3945,-7.3568,-7.352,-7.3515,-7.3525,-7.3498,-7.3501,-7.3494,-7.2661,-7.1987,-7.1987,-7.1987,-7.1987,-7.1987,-7.1987,-7.1831,-7.148,-7.0504,-6.9879,-6.984,-6.9567,-6.9411,-6.9411,-6.9723,-6.9879,-6.9762,-6.9528,-6.9411,-6.9411,-6.9399,-6.9387,-6.9334,-6.9818,-6.9674,-4.4188,0.0,0.0,-4.7084,-4.846,-4.9838,-5.0703,-5.1992,-5.3125,-5.3359,-5.4406,-5.5556,-5.645,-5.7465,0.0,-5.9846,-6.0432,-6.0978,-6.1603,-6.2462,-6.3321,-6.4179,-6.501,-6.5574,-6.5847,-6.639,-6.6712,-6.6712,-6.6712,-6.6712,-6.6712,-6.753,-6.8388,-6.9284,-7.0141,-7.0998,-7.1778,-7.1817,-7.1934,-7.2167,-7.3025,-7.3921,-7.4778,-7.5647,-7.6409,-7.7024,-7.7059,-7.7231,-7.7472,-7.7447,-7.796,-7.8702,-7.8077,-7.8194,-7.8663,-7.8038,-7.7492,-7.7101,-7.7101,-7.7101,-7.7101,-7.7101,-7.7101,-7.7101,-7.7101,-7.6672,-7.6164,-7.6164,-7.5696,-7.5227,-7.5227,-7.5227,-7.5227,-7.5227,-7.5266,-7.5227,-7.5004,-7.496,-7.4882,-7.4666,-7.4588,-7.4588,-7.4588,-7.4598,-7.4603,-7.4603,-7.3537,-7.27,-7.27,-7.25,-7.2378,-7.2378,-7.2143,-7.1987,-7.1987,-7.1245,-7.0855,-7.105,-7.0465,-7.0113,-7.0113,-7.0543,-7.0543,-7.0113,-7.0113,-7.0113,-7.0108,-7.0096,-7.0075,-7.0013,-7.0658,-7.0941,0.0,0.0,-4.7904,-4.9579,-5.0676,-5.1545,-5.2421,-5.332,-5.4219,-5.5039,-5.527,-5.5573,-5.6454,-5.7933,-5.9065,-5.9143,-6.0549,-6.1681,-6.172,-6.2462,-6.3321,-6.4179,-6.501,-6.5847,0.0,-6.6702,-6.6712,-6.6712,-6.6712,-6.6712,-6.6712,-6.753,-6.8388,-6.9284,-7.0141,-7.0998,-7.1778,-7.1817,-7.2206,-7.3064,-7.3921,-7.4817,-7.5674,-7.6565,-7.6995,-7.7114,-7.7114,-7.7589,-7.835,-7.835,-7.8858,-7.9678,-7.9639,-7.9639,-7.9678,-7.9639,-7.8546,-7.7101,-7.7101,-7.7101,-7.7101,-7.7101,-7.7101,-7.7101,-7.7101,-7.7062,-7.7062,-7.7062,-7.7023,-7.7023,-7.7023,-7.7023,-7.7023,-7.7023,-7.7023,-7.6795,-7.604,-7.5872,-7.5618,-7.4764,-7.4601,-7.4609,-7.4609,-7.4609,-7.4609,-7.4609,-7.4566,-7.452,-7.452,-7.3759,-7.3275,-7.3275,-7.2495,-7.1987,-7.1987,-7.1987,-7.1948,-7.1948,-7.1948,-7.1909,-7.1909,-7.1948,-7.1948,-7.1909,-7.1909,-7.1903,-7.1806,-7.1806,-7.1823,-7.1819,-7.1858,-7.1848,0.0,0.0,-5.0406,-5.1548,-5.2911,-5.4044,-5.4374,-5.5117,-5.582,-5.6094,-5.617,-5.6432,-5.7313,-5.7894,-5.8636,-5.9768,-6.0432,-6.1056,-6.1603,-6.2969,-6.3984,-6.4258,-6.5529,0.0,0.0,0.0,0.0,-6.6712,-6.6712,-6.6712,-6.6712,-6.8076,-6.9011,-6.9284,-7.0648,-7.1544,-7.1817,-7.1817,-7.2245,-7.3103,-7.4566,-7.5707,-7.6565,-7.6917,-7.7059,-7.7114,-7.7713,-7.811,-7.8429,-7.9014,-7.9795,-8.0498,-7.9912,-8.0068,-8.0498,-7.9912,-7.9326,-7.8741,-7.8155,-7.757,-7.7101,-7.7101,-7.7101,-7.7101,-7.7101,-7.7101,-7.7101,-7.7101,-7.7101,-7.7107,-7.7087,-7.7087,-7.7087,-7.7087,-7.7117,-7.7101,-7.68,-7.6743,-7.6675,-7.6362,-7.6327,-7.6328,-7.6328,-7.6328,-7.6328,-7.6328,-7.5351,-7.4608,-7.4608,-7.4357,-7.4173,-7.4173,-7.3549,-7.3041,-7.2885,-7.2339,-7.1987,-7.1987,-7.1987,-7.1987,-7.1987,-7.1987,-7.1987,-7.1987,-7.1976,-7.193,-7.1884,-7.1901,-7.1915,-7.1897,-7.1838,-7.1827,-4.9922,-5.1219,-5.2163,-5.331,-5.4484,-5.5382,-5.5703,-5.6211,-5.6523,-5.6211,-5.6131,-5.6321,-5.6883,-5.7192,-5.7816,-5.9222,-6.0002,-6.0588,-6.1174,-6.2735,-6.3945,-6.4258,-6.5496,0.0,0.0,0.0,0.0,-6.6712,-6.6712,-6.6829,-6.7141,-6.8504,-6.944,-6.9751,-7.1076,-7.1817,-7.1817,-7.1817,-7.2412,-7.3592,-7.5006,-7.6157,-7.7034,-7.7059,-7.7114,-7.716,-7.8032,-7.8585,-7.8936,-7.9795,-8.0693,-8.1396,-8.0849,-8.0966,-8.1396,-8.0849,-8.042,-8.0029,-7.917,-7.8507,-7.796,-7.7687,-7.757,-7.7492,-7.7179,-7.7107,-7.7117,-7.7117,-7.7107,-7.7146,-7.7122,-7.7137,-7.7144,-7.7144,-7.7176,-7.7208,-7.7208,-7.7183,-7.7187,-7.7187,-7.7187,-7.7187,-7.7187,-7.7187,-7.7187,-7.7187,-7.625,-7.5547,-7.5547,-7.5262,-7.5004,-7.4915,-7.4369,-7.3939,-7.3744,-7.3236,-7.3002,-7.3197,-7.2729,-7.2456,-7.2456,-7.2182,-7.1987,-7.1943,-7.193,-7.1916,-7.1901,-7.1915,-7.1897,-7.1848,-7.1827,-7.1817,-5.1058,-5.2156,-5.3253,-5.495,-5.5388,-5.5586,-5.6367,-5.6523,-5.6289,-5.539,-5.5234,-5.5233,0.0,0.0,-5.6762,-5.7582,-5.9143,-6.0237,-6.0393,-6.1876,-6.3282,0.0,0.0,0.0,0.0,0.0,0.0,-6.6751,0.0,-6.7141,-6.7959,-6.8855,-6.9751,-7.057,-7.1388,-7.1817,-7.1817,-7.1856,-7.2734,-7.4392,-7.5289,-7.6175,-7.7114,-7.7114,-7.7082,-7.714,-7.8077,-7.8936,-7.9756,-8.0693,-8.1552,-8.2293,-8.2293,-8.2293,-8.2293,-8.2293,-8.1786,-8.0966,-8.0107,-7.9756,-7.9567,-7.8747,-7.8473,-7.8317,-7.7414,-7.7161,-7.7176,-7.7139,-7.7165,-7.7185,-7.7185,-7.7215,-7.7187,-7.7187,-7.7187,-7.7187,-7.7187,-7.7187,-7.7187,-7.7187,-7.7187,-7.7187,-7.7187,-7.7187,-7.7187,-7.7187,-7.7187,-7.7187,-7.7187,-7.648,-7.5841,-7.5501,-7.4954,-7.4603,-7.4564,-7.4564,-7.4798,-7.5305,-7.4095,-7.3354,-7.3354,-7.2573,-7.2099,-7.1963,-7.1963,-7.194,-7.1897,-7.1897,-7.1848,-7.1817,-7.1817,-7.1817,-5.2854,-5.3951,-5.4892,-5.6005,-5.6287,-5.6172,-5.5742,-5.5625,-5.539,-5.4492,-5.4336,-5.4335,0.0,0.0,0.0,-5.6645,-5.727,0.0,-6.0119,-6.133,0.0,0.0,0.0,-6.5887,-6.6727,-6.6791,0.0,0.0,-6.7657,-6.7764,-6.7998,-6.944,-7.0375,-7.057,-7.1388,-7.1817,-7.1817,-7.244,-7.3319,-7.4392,-7.5308,-7.6232,-7.7114,-7.7089,-7.7095,-7.7179,-7.8702,-7.9483,-7.9834,-8.1356,-8.2098,-8.2293,-8.2293,-8.2293,-8.2293,-8.232,-8.2154,-8.1942,-8.1708,-8.0788,-7.9668,-7.9434,-7.9356,-7.92,-7.8317,-7.8083,-7.7942,-7.7341,-7.7186,-7.7184,-7.7184,-7.7187,-7.7187,-7.7187,-7.7187,-7.7187,-7.7187,-7.7187,-7.7187,-7.7187,-7.7187,-7.7187,-7.7187,-7.7187,-7.7187,-7.7187,-7.7187,-7.7187,-7.7187,-7.7026,-7.6817,-7.6672,-7.6516,-7.6164,-7.5501,-7.5305,-7.5032,-7.4759,-7.4408,-7.4173,-7.4173,-7.3966,-7.3569,-7.286,-7.2869,-7.253,-7.1897,-7.1838,-7.1827,-7.1817,-7.1817,-7.1806,-5.3518,-5.4654,-5.5521,-5.6395,-5.6326,-5.5898,-5.539,-5.4726,-5.3906,-5.3047,-5.2578,0.0,0.0,0.0,0.0,0.0,0.0,0.0,-5.9026,-6.0354,-6.1915,0.0,-6.4726,0.0,-6.6694,-6.7149,-6.7555,0.0,-6.8008,-6.8349,-6.9089,-7.0063,-7.0765,-7.1115,-7.1544,-7.1817,-7.1817,-7.2295,-7.3212,-7.445,-7.4983,-7.5897,-7.7089,-7.7095,-7.7101,-7.7218,0.0,-7.9717,-7.9834,-8.1591,-8.2293,-8.2293,-8.2293,-8.2293,-8.2293,-8.231,-8.231,-8.2293,-8.2293,-8.1656,-8.0778,-8.0387,-8.027,-8.0112,-7.9246,-7.8969,-7.8816,-7.8007,-7.7773,-7.7695,-7.7305,-7.7187,-7.7187,-7.7187,-7.7187,-7.7187,-7.7187,-7.7187,-7.7187,-7.7187,-7.7187,-7.7187,-7.7187,-7.7187,-7.7187,-7.7187,-7.7187,-7.7187,-7.7187,-7.7186,-7.7178,-7.7107,-7.7101,-7.6906,-7.6399,-7.6242,-7.6008,-7.5657,-7.5266,-7.5071,-7.5059,-7.4701,-7.4258,-7.3727,-7.3739,-7.329,-7.2423,-7.2373,-7.2167,-7.1817,-7.1806,-7.1782,-5.3596,-5.4732,-5.5634,-5.6276,-5.5856,-5.5195,-5.4844,-5.3594,-5.2226,-5.1133,0.0,-4.9844,-4.9766,0.0,-5.1261,-5.2351,0.0,-5.6333,-5.7465,-5.9026,-6.1056,-6.3789,-6.4219,-6.4955,-6.6622,-6.7578,-6.8102,-6.8154,-6.8291,-6.9011,-7.0531,-7.0687,-7.1076,-7.1778,-7.1817,-7.1817,-7.1817,-7.1887,-7.2725,-7.4312,-7.4453,-7.5371,-7.6945,-7.7062,-7.7101,-7.7218,0.0,0.0,-7.9834,-8.1591,-8.2293,-8.2299,-8.2293,-8.2293,-8.2293,-8.2299,-8.2305,-8.2305,-8.2305,-8.2292,-8.2187,-8.1406,-8.1172,-8.1015,-8.0156,-7.9883,-7.9687,-7.8906,-7.8594,-7.832,-7.7578,-7.7305,-7.7187,-7.7187,-7.7187,-7.7187,-7.7187,-7.7187,-7.7187,-7.7187,-7.7187,-7.7187,-7.7187,-7.7187,-7.7187,-7.7187,-7.7187,-7.7187,-7.7187,-7.7187,-7.7184,-7.7112,-7.7101,-7.7101,-7.7101,-7.7101,-7.7101,-7.7101,-7.6399,-7.5963,-7.5982,-7.5241,-7.4749,-7.4587,-7.4577,-7.4138,-7.3258,-7.3142,-7.2713,-7.1973,-7.186,-7.1809,-5.3912,-5.5162,-5.6255,-5.5673,-5.5423,-5.4726,-5.2578,-5.1836,0.0,0.0,0.0,-4.8047,-4.8047,-4.8161,0.0,-5.1261,0.0,0.0,0.0,0.0,-5.9495,0.0,0.0,0.0,0.0,0.0,0.0,0.0,0.0,0.0,-7.057,-7.1232,-7.1661,-7.1817,-7.1817,-7.1817,-7.1817,-7.1887,-7.2413,-7.3415,-7.4141,-7.5059,-7.6047,-7.6789,-7.7101,-7.7218,0.0,0.0,-7.9834,-8.1591,-8.231,-8.2285,-8.2305,-8.2293,-8.2299,-8.2297,-8.2303,-8.2303,-8.2303,-8.2304,-8.2265,-8.2109,-8.207,-8.1914,-8.1054,-8.0781,-8.0586,-7.9726,-7.9023,-7.8476,-7.832,-7.7734,-7.7187,-7.7187,-7.7187,-7.7187,-7.7187,-7.7187,-7.7187,-7.7187,-7.7187,-7.7187,-7.7187,-7.7187,-7.7187,-7.7187,-7.7187,-7.7187,-7.7187,-7.7187,-7.7187,-7.7094,-7.7117,-7.7101,-7.7101,-7.7101,-7.7101,-7.7101,-7.6945,-7.6861,-7.688,-7.6669,-7.6214,-7.5484,-7.5463,-7.5051,-7.4155,-7.3453,-7.3013,-7.2873,-7.2121,-7.1771,-5.321,-5.4264,-5.5162,-5.4728,-5.393,-5.2928,-5.1679,0.0,0.0,0.0,-4.6211,-4.5586,-4.5586,0.0,0.0,0.0,0.0,0.0,0.0,0.0,0.0,0.0,0.0,0.0,0.0,0.0,0.0,0.0,0.0,0.0,0.0,-7.1583,-7.1817,-7.1817,-7.1827,-7.1838,-7.1838,-7.1876,-7.2331,-7.3197,-7.4077,-7.4948,-7.5813,-7.6711,-7.7101,-7.7218,0.0,0.0,-7.9834,-8.1591,-8.2299,-8.2315,-8.2289,-8.2292,-8.2295,-8.2304,-8.2304,-8.2304,-8.2304,-8.2304,-8.2304,-8.2304,-8.2304,-8.2226,-8.1797,-8.1679,-8.1484,-8.0625,-8.0117,-7.9687,-7.9258,-7.8828,-7.8398,-7.7969,-7.7539,-7.7187,-7.7187,-7.7187,-7.7187,-7.7187,-7.7187,-7.7187,-7.7187,-7.7187,-7.7187,-7.7187,-7.7187,-7.7187,-7.7187,-7.7187,-7.7187,-7.71,-7.7117,-7.7101,-7.7101,-7.7101,-7.7101,-7.7101,-7.7101,-7.7089,-7.7059,-7.7012,-7.679,-7.6398,-7.6387,-7.5947,-7.5051,-7.4221,-7.3535,-7.3094,-7.216,-7.1729,-5.2234,-5.3171,-5.3912,-5.3557,-5.2401,-5.1205,-5.0469,-4.8242,0.0,0.0,-4.4101,-4.3164,-4.3164,0.0,0.0,0.0,0.0,0.0,0.0,0.0,0.0,0.0,0.0,0.0,0.0,0.0,0.0,0.0,0.0,0.0,0.0,-7.1827,-7.1827,-7.1827,-7.1848,-7.1906,-7.1906,-7.1909,-7.2236,-7.2938,-7.3972,-7.4876,-7.554,-7.6633,-7.7101,-7.7218,0.0,0.0,0.0,-8.1591,-8.2299,-8.2315,-8.2303,-8.2304,-8.2304,-8.2304,-8.2304,-8.2304,-8.2304,-8.2304,-8.2304,-8.2304,-8.2304,-8.2304,-8.2304,-8.2304,-8.2148,-8.1484,-8.1133,-8.0859,-8.0156,-7.9844,-7.9531,-7.8906,-7.8086,-7.7461,-7.7461,-7.7344,-7.7187,-7.7187,-7.7187,-7.7187,-7.7187,-7.7187,-7.7187,-7.7187,-7.7187,-7.7187,-7.7187,-7.7187,-7.7187,-7.7142,-7.7122,-7.7101,-7.7101,-7.7101,-7.7101,-7.7101,-7.7101,-7.7089,-7.7004,-7.7004,-7.6985,-7.6999,-7.6999,-7.6649,-7.5935,-7.4898,-7.4029,-7.3302,-7.2196,-7.1699,-5.1492,-5.2741,-5.3639,-5.2034,-5.1503,-5.058,-4.7461,0.0,0.0,-4.2305,-4.1523,-4.1445,-4.1445,-4.1522,-4.2607,0.0,0.0,0.0,0.0,0.0,0.0,0.0,0.0,0.0,0.0,0.0,0.0,0.0,0.0,0.0,0.0,-7.1897,-7.1897,-7.1897,-7.1915,-7.1885,-7.1885,-7.1916,-7.1924,-7.2041,-7.3699,-7.4525,-7.4681,-7.632,-7.7101,-7.7179,0.0,0.0,0.0,-8.1591,-8.2285,-8.2304,-8.2304,-8.2304,-8.2304,-8.2304,-8.2304,-8.2304,-8.2304,-8.2304,-8.2304,-8.2304,-8.2304,-8.2304,-8.2304,-8.2304,-8.2265,-8.2187,-8.1601,-8.0976,-8.0898,-8.0273,-7.9687,-7.9609,-7.8984,-7.8398,-7.8398,-7.7773,-7.7187,-7.7187,-7.7187,-7.7187,-7.7187,-7.7187,-7.7187,-7.7187,-7.7187,-7.7187,-7.7187,-7.7187,-7.7187,-7.7187,-7.713,-7.7101,-7.7101,-7.7101,-7.7101,-7.7101,-7.7101,-7.7089,-7.7004,-7.7004,-7.6985,-7.6999,-7.6999,-7.6948,-7.6794,-7.5158,-7.4314,-7.4048,-7.2438,-7.1684,-4.9579,-5.0321,-5.0711,-5.0044,-4.9121,-4.7963,-4.6601,0.0,0.0,-4.1484,-4.0351,-3.9648,-3.9648,-4.0428,-4.1748,-4.3648,0.0,0.0,0.0,0.0,0.0,0.0,0.0,0.0,0.0,0.0,0.0,0.0,0.0,0.0,0.0,0.0,-7.1915,-7.1915,-7.1901,-7.1909,-7.1909,-7.193,-7.1982,-7.1982,-7.3705,-7.4486,-7.4564,-7.632,-7.7112,-7.7204,0.0,0.0,0.0,-8.1594,-8.2301,-8.2304,-8.2304,-8.2304,-8.2304,-8.2304,-8.2304,-8.2304,-8.2304,-8.2301,-8.2285,-8.2285,-8.2295,-8.2301,-8.2304,-8.23,-8.2285,-8.2285,-8.2061,-8.1792,-8.1792,-8.1132,-8.0469,-8.0469,-7.9844,-7.9101,-7.8594,-7.8242,-7.7812,-7.7305,-7.7187,-7.7187,-7.7187,-7.7187,-7.7187,-7.7187,-7.7187,-7.7187,-7.7187,-7.7187,-7.7187,-7.7187,-7.7139,-7.7083,-7.7101,-7.7101,-7.7101,-7.7101,-7.7089,-7.7075,-7.7004,-7.6995,-7.7004,-7.6999,-7.6999,-7.6715,-7.6093,-7.4911,-7.4053,-7.3449,-7.2213,-7.1636,-4.7354,-4.7861,-4.8017,-4.7819,-4.6817,-4.5737,0.0,0.0,0.0,-4.0195,-3.9062,-3.8203,-3.8202,-3.9372,-4.0732,-4.1852,-4.4192,-4.6807,0.0,0.0,0.0,0.0,0.0,0.0,0.0,0.0,0.0,0.0,0.0,0.0,0.0,0.0,-7.1909,-7.1901,-7.1924,-7.193,-7.193,-7.1982,-7.1987,-7.2026,-7.3705,-7.4525,-7.4603,-7.632,-7.7112,0.0,0.0,0.0,0.0,-8.1562,-8.2304,-8.2304,-8.2304,-8.2304,-8.2304,-8.2304,-8.2304,-8.2304,-8.2301,-8.2285,-8.2293,-8.2293,-8.231,-8.2285,-8.2297,-8.2289,-8.2305,-8.2293,-8.231,-8.2285,-8.2285,-8.1823,-8.1364,-8.1365,-8.0702,-7.9843,-7.9023,-7.8632,-7.8203,-7.7383,-7.7187,-7.7187,-7.7187,-7.7187,-7.7187,-7.7187,-7.7187,-7.7187,-7.7187,-7.7187,-7.7187,-7.7187,-7.7144,-7.7091,-7.7101,-7.7101,-7.7101,-7.7101,-7.7082,-7.7067,-7.7004,-7.6985,-7.6994,-7.6999,-7.6715,-7.6274,-7.5612,-7.4481,-7.3596,-7.2967,-7.2025,-7.1586,-4.5012,-4.5675,-4.6105,-4.5242,-4.5021,-4.4368,0.0,0.0,0.0,-3.7851,-3.7344,-3.7304,-3.7326,-3.8034,-3.917,-4.0837,-4.3294,-4.5909,-4.8447,0.0,0.0,0.0,0.0,0.0,0.0,0.0,0.0,0.0,0.0,0.0,0.0,0.0,-7.1982,-7.1884,-7.1943,-7.1987,-7.1987,-7.1987,-7.1987,-7.2026,-7.3705,-7.4525,-7.4642,-7.632,0.0,0.0,0.0,0.0,0.0,-8.1562,-8.2304,-8.2304,-8.2304,-8.2304,-8.2304,-8.2304,-8.2304,-8.2304,-8.2315,-8.2293,-8.2293,-8.2293,-8.2293,-8.2293,-8.2293,-8.2315,-8.2289,-8.2299,-8.2293,-8.2293,-8.2293,-8.2293,-8.2299,-8.2289,-8.1628,-8.073,-7.9873,-7.902,-7.8164,-7.7344,-7.7187,-7.7187,-7.7187,-7.7187,-7.7187,-7.7187,-7.7187,-7.7187,-7.7187,-7.7187,-7.7187,-7.7187,-7.7144,-7.7091,-7.7101,-7.7101,-7.7101,-7.7101,-7.7082,-7.7067,-7.7004,-7.6985,-7.6994,-7.6999,-7.6079,-7.5612,-7.5609,-7.3868,-7.2967,-7.288,-7.2013,-7.1513,-4.306,-4.3879,-4.4309,-4.345,-4.2795,-4.1987,-4.0625,0.0,0.0,-3.7461,-3.6836,-3.6405,-3.6428,-3.7597,-3.9161,-4.0834,-4.2786,-4.5207,0.0,0.0,0.0,0.0,0.0,0.0,0.0,0.0,0.0,0.0,0.0,0.0,0.0,0.0,0.0,-7.1982,-7.1987,-7.1987,-7.1987,-7.1987,-7.1987,-7.2026,-7.3744,-7.4564,-7.4642,-7.6399,0.0,0.0,0.0,0.0,0.0,-8.1562,-8.2304,-8.2304,-8.2304,-8.2304,-8.2304,-8.2304,-8.23,-8.2315,-8.2299,-8.2293,-8.2293,-8.2293,-8.2293,-8.2293,-8.2293,-8.2299,-8.2305,-8.2293,-8.2293,-8.2293,-8.2293,-8.2293,-8.2293,-8.2305,-8.2071,-8.1485,-8.0007,-7.9465,-7.8848,-7.7415,-7.7144,-7.7145,-7.7187,-7.7187,-7.7187,-7.7187,-7.7187,-7.7187,-7.7187,-7.7187,-7.7186,-7.7208,-7.7133,-7.7091,-7.7101,-7.7101,-7.7101,-7.7101,-7.7075,-7.7012,-7.7004,-7.7004,-7.6738,-7.6103,-7.5767,-7.5028,-7.3819,-7.327,-7.2679,-7.2013,-7.163,-7.1455,0.0,-4.1342,-4.1654,-4.1108,-4.057,0.0,0.0,0.0,0.0,-3.6875,-3.6366,-3.601,-3.6003,-3.7402,-3.9039,-4.0405,-4.263,-4.5285,0.0,0.0,0.0,0.0,0.0,0.0,0.0,0.0,0.0,0.0,0.0,0.0,0.0,0.0,0.0,-7.1987,-7.1987,-7.1987,-7.1987,-7.1987,-7.2182,-7.2495,-7.39,-7.4759,-7.5149,0.0,0.0,0.0,0.0,0.0,0.0,-8.1562,-8.2304,-8.2304,-8.2304,-8.2304,-8.2297,-8.2297,-8.2289,-8.231,-8.2299,-8.2293,-8.2293,-8.2293,-8.2293,-8.2293,-8.2293,-8.2293,-8.2293,-8.2293,-8.2293,-8.2293,-8.2293,-8.2293,-8.2293,-8.2293,-8.2293,-8.1825,-8.0068,-7.9717,-7.9176,-7.7434,-7.7087,-7.7091,-7.7178,-7.7186,-7.7187,-7.7187,-7.7187,-7.7187,-7.7187,-7.7187,-7.7184,-7.7185,-7.7156,-7.7083,-7.7101,-7.7101,-7.7101,-7.7089,-7.7028,-7.7004,-7.6995,-7.6671,-7.6259,-7.5663,-7.4963,-7.4067,-7.2974,-7.2656,-7.2147,-7.1513,-7.1455,-7.1394,0.0,-3.8378,0.0,0.0,0.0,0.0,0.0,0.0,0.0,0.0,0.0,-3.6035,-3.6087,-3.7485,-3.8879,-3.9819,-4.2825,-4.5909,0.0,0.0,0.0,0.0,0.0,0.0,0.0,0.0,0.0,0.0,0.0,0.0,0.0,0.0,0.0,0.0,-7.1987,-7.1987,-7.1987,-7.1987,-7.2456,-7.3315,-7.4179,-7.5077,-7.5936,0.0,0.0,0.0,0.0,0.0,0.0,-8.1562,-8.2304,-8.2304,-8.2304,-8.2295,-8.2293,-8.2293,-8.231,-8.2289,-8.2305,-8.2293,-8.2293,-8.2293,-8.2293,-8.2293,-8.2293,-8.2293,-8.2293,-8.2293,-8.2293,-8.2293,-8.2293,-8.2293,-8.2293,-8.2293,-8.2254,-8.1747,-8.0068,-7.9639,-7.9092,-7.7414,-7.7101,-7.7101,-7.7101,-7.7137,-7.7187,-7.7187,-7.7187,-7.7187,-7.7187,-7.7187,-7.7184,-7.719,-7.714,-7.7101,-7.7101,-7.7101,-7.7095,-7.7114,-7.6981,-7.6917,-7.6926,-7.6076,-7.5546,-7.5431,-7.3755,-7.2896,-7.2905,-7.203,-7.1513,-7.1415,-7.1415,-7.1334,-3.4276,0.0,-3.7594,-3.7594,-3.7594,-3.737,0.0,0.0,0.0,0.0,0.0,0.0,0.0,-3.787,-3.9309,-4.1459,-4.3606,-4.6105,0.0,0.0,0.0,0.0,0.0,0.0,0.0,0.0,0.0,0.0,0.0,0.0,0.0,0.0,0.0,0.0,-7.1987,-7.1987,-7.1987,-7.1987,-7.2456,-7.3315,-7.4193,-7.5052,-7.5936,0.0,0.0,0.0,0.0,0.0,0.0,-8.1562,-8.23,-8.2315,-8.2315,-8.232,-8.2285,-8.2299,-8.2299,-8.2305,-8.2293,-8.2293,-8.2293,-8.2293,-8.2293,-8.2293,-8.2293,-8.2293,-8.2293,-8.2293,-8.2293,-8.2293,-8.2293,-8.2293,-8.2293,-8.2293,-8.1786,-8.1005,-7.9912,-7.917,-7.839,-7.7296,-7.7101,-7.7101,-7.7101,-7.7112,-7.7133,-7.7187,-7.7187,-7.7187,-7.7187,-7.7187,-7.7187,-7.7133,-7.7112,-7.7101,-7.7101,-7.7101,-7.7095,-7.7114,-7.6474,-7.6058,-7.5991,-7.5168,-7.4392,-7.3678,-7.2574,-7.1995,-7.1952,-7.1648,-7.1475,-7.1415,-7.1334,-7.1291,-3.248,-3.4432,-3.6111,-3.6111,-3.642,-3.6584,-3.6093,0.0,0.0,0.0,0.0,0.0,0.0,0.0,0.0,-4.263,-4.4774,0.0,0.0,0.0,0.0,0.0,0.0,0.0,0.0,0.0,0.0,0.0,0.0,0.0,0.0,0.0,0.0,0.0,0.0,-7.1987,-7.1987,-7.1987,-7.2651,-7.3906,-7.4357,-7.5262,-7.6512,0.0,0.0,0.0,0.0,0.0,-7.9805,-8.1167,-8.1929,-8.2293,-8.2293,-8.2305,-8.2315,-8.2299,-8.2293,-8.2293,-8.2293,-8.2293,-8.2293,-8.2293,-8.2293,-8.2293,-8.2293,-8.2293,-8.2293,-8.2293,-8.2293,-8.2293,-8.2293,-8.2293,-8.2293,-8.2293,-8.163,-8.0771,-7.9873,-7.9014,-7.8155,-7.7257,-7.7101,-7.7101,-7.7101,-7.7101,-7.7117,-7.7144,-7.7187,-7.7187,-7.7187,-7.7187,-7.7187,-7.71,-7.7117,-7.6945,-7.6555,-7.651,-7.6497,-7.6513,-7.6028,-7.5572,-7.5112,-7.4248,-7.3393,-7.2471,-7.1917,-7.1603,-7.1532,-7.1475,-7.1435,-7.1334,-7.1291,-7.1247,-3.1348,-3.3066,-3.4549,-3.4664,-3.5369,-3.6005,-3.6016,0.0,0.0,0.0,0.0,0.0,0.0,0.0,0.0,0.0,0.0,0.0,0.0,0.0,0.0,0.0,0.0,0.0,0.0,0.0,0.0,0.0,0.0,0.0,0.0,0.0,0.0,0.0,0.0,0.0,-7.1987,-7.1987,-7.2885,-7.4608,-7.4591,-7.5503,-7.7187,-7.7187,0.0,0.0,0.0,0.0,-7.9764,-8.0631,-8.1513,-8.2293,-8.2293,-8.2293,-8.2293,-8.2293,-8.2293,-8.2293,-8.2293,-8.2293,-8.2293,-8.2293,-8.2293,-8.2293,-8.2293,-8.2293,-8.2293,-8.2293,-8.2293,-8.2293,-8.2293,-8.2293,-8.2254,-8.2137,-8.1435,-8.0576,-7.9678,-7.8819,-7.796,-7.7257,-7.7101,-7.7101,-7.7101,-7.7101,-7.7112,-7.7091,-7.7145,-7.7187,-7.7187,-7.707,-7.6991,-7.6905,-7.6805,-7.6438,-7.5657,-7.5599,-7.5538,-7.5404,-7.5347,-7.4928,-7.4026,-7.3289,-7.2496,-7.1684,-7.1642,-7.1571,-7.1475,-7.1435,-7.1334,-7.1269,-7.1224,-7.1201,-2.9901,-3.1738,-3.3768,-3.4507,-3.5343,-3.6016,-3.6005,0.0,0.0,0.0,0.0,0.0,0.0,0.0,0.0,0.0,0.0,0.0,0.0,0.0,0.0,0.0,0.0,0.0,0.0,0.0,0.0,0.0,0.0,0.0,0.0,0.0,0.0,0.0,0.0,0.0,0.0,-7.1987,-7.2885,-7.4608,-7.4591,-7.5503,-7.7187,-7.7187,-7.7187,0.0,0.0,0.0,-7.9767,-8.0654,-8.1513,-8.2293,-8.2293,-8.2293,-8.2293,-8.2293,-8.2293,-8.2293,-8.2293,-8.2293,-8.2293,-8.2293,-8.2293,-8.2293,-8.2293,-8.2293,-8.2293,-8.2293,-8.2293,-8.2293,-8.2293,-8.2293,-8.2098,-8.1356,-8.0537,-7.9678,-7.878,-7.7921,-7.7257,-7.714,-7.7101,-7.7101,-7.7101,-7.7101,-7.7101,-7.7107,-7.7142,-7.7187,-7.7187,-7.6562,-7.6093,-7.6085,-7.5399,-7.4909,-7.4701,-7.4679,-7.439,-7.3661,-7.3583,-7.3153,-7.216,-7.1977,-7.184,-7.1624,-7.1607,-7.1552,-7.1435,-7.1415,-7.1334,-7.1224,-7.1201,-7.1154,-2.9472,-3.1465,-3.3504,-3.3906,-3.4998,-3.6124,-3.6618,0.0,0.0,0.0,0.0,0.0,0.0,0.0,0.0,0.0,0.0,0.0,0.0,0.0,0.0,0.0,0.0,0.0,0.0,0.0,0.0,0.0,0.0,0.0,0.0,0.0,0.0,0.0,0.0,0.0,0.0,-7.1987,-7.2651,-7.3906,-7.4357,-7.5269,-7.6523,-7.6992,-7.7187,0.0,0.0,-7.8235,-7.9053,-7.9951,-8.081,-8.163,-8.2137,-8.2293,-8.2293,-8.2293,-8.2293,-8.2293,-8.2293,-8.2293,-8.2293,-8.2293,-8.2293,-8.2293,-8.2293,-8.2293,-8.2293,-8.2293,-8.2293,-8.2293,-8.2293,-8.1942,-8.1513,-8.1083,-7.9951,-7.8897,-7.8507,-7.7726,-7.7101,-7.7101,-7.7101,-7.7101,-7.7101,-7.7101,-7.7101,-7.7101,-7.7161,-7.7217,-7.7187,-7.6441,-7.5887,-7.5887,-7.5126,-7.4363,-7.3836,-7.3821,-7.3592,-7.3181,-7.2713,-7.2211,-7.1729,-7.1714,-7.1653,-7.1607,-7.1571,-7.1494,-7.1415,-7.1313,-7.1269,-7.1201,-7.113,-7.1056,-2.9121,-3.1317,-3.3437,-3.3656,0.0,-3.6498,-3.7162,0.0,0.0,0.0,0.0,0.0,0.0,0.0,0.0,0.0,0.0,0.0,0.0,0.0,0.0,0.0,0.0,0.0,0.0,0.0,0.0,0.0,0.0,0.0,0.0,0.0,0.0,0.0,0.0,0.0,0.0,-7.1987,-7.2456,-7.3315,-7.4162,-7.5073,-7.5937,-7.6797,-7.7187,-7.7187,-7.7187,-7.7651,-7.844,-7.9131,-8.0029,-8.1083,-8.1747,-8.2137,-8.2293,-8.2293,-8.2293,-8.2293,-8.2293,-8.2293,-8.2293,-8.2293,-8.2293,-8.2293,-8.2293,-8.2293,-8.2293,-8.2293,-8.2137,-8.1981,-8.1981,-8.1513,-8.0888,-8.0498,-7.9366,-7.835,-7.8155,-7.757,-7.7101,-7.7101,-7.7101,-7.7101,-7.7101,-7.7101,-7.7101,-7.7112,-7.7146,-7.72,-7.7187,-7.6274,-7.559,-7.5607,-7.4618,-7.3699,-7.297,-7.2869,-7.2851,-7.2783,-7.2147,-7.1771,-7.1699,-7.1684,-7.1636,-7.1589,-7.1494,-7.1455,-7.1394,-7.1269,-7.1201,-7.1178,-7.1056,-7.0979,-2.8379,-3.0859,-3.3573,-3.4387,-3.591,0.0,-3.7282,-3.9117,0.0,0.0,0.0,0.0,0.0,0.0,0.0,0.0,0.0,0.0,0.0,0.0,0.0,0.0,0.0,0.0,0.0,0.0,0.0,0.0,0.0,0.0,0.0,0.0,0.0,0.0,0.0,0.0,-7.1987,-7.1987,-7.2456,-7.3315,-7.4162,-7.5073,-7.5937,-7.6797,-7.7187,-7.7187,-7.7187,-7.7654,-7.8383,-7.8479,-7.9483,-8.1005,-8.1083,-8.1591,-8.2293,-8.2293,-8.2293,-8.2293,-8.2293,-8.2293,-8.2293,-8.2293,-8.2293,-8.2293,-8.2293,-8.2293,-8.2293,-8.2293,-8.1708,-8.1083,-8.1083,-8.1044,-8.0576,-7.8975,-7.8507,-7.8194,-7.7375,-7.714,-7.7101,-7.7101,-7.7101,-7.7101,-7.7101,-7.7101,-7.7112,-7.7094,-7.7156,-7.72,-7.7187,-7.5727,-7.4686,-7.4686,-7.3203,-7.2132,-7.2018,-7.1944,-7.1874,-7.1796,-7.1757,-7.1704,-7.1699,-7.162,-7.1589,-7.1494,-7.1455,-7.1355,-7.1291,-7.1247,-7.1178,-7.1106,-7.103,-7.0925,-2.8319,-3.0816,-3.3619,-3.4468,0.0,0.0,0.0,0.0,0.0,0.0,0.0,0.0,0.0,0.0,0.0,0.0,0.0,0.0,0.0,0.0,0.0,0.0,0.0,0.0,0.0,0.0,0.0,0.0,0.0,0.0,0.0,0.0,0.0,0.0,0.0,0.0,0.0,-7.1987,-7.2182,-7.2495,-7.3364,-7.4246,-7.5117,-7.5976,-7.668,-7.7187,-7.7186,-7.7337,-7.7644,-7.8166,-7.878,-7.9483,-8.0576,-8.1513,-8.2293,-8.2293,-8.2293,-8.2293,-8.2293,-8.2293,-8.2293,-8.2293,-8.2293,-8.2293,-8.2293,-8.2293,-8.2293,-8.2293,-8.1669,-8.1005,-8.1005,-8.0185,-7.9209,-7.8546,-7.7999,-7.7492,-7.7179,-7.7101,-7.7101,-7.7101,-7.7101,-7.7101,-7.7101,-7.7101,-7.7107,-7.7156,-7.7186,-7.7183,-7.7211,-7.5685,-7.4584,-7.4608,-7.2984,-7.194,-7.1915,-7.1856,-7.1758,-7.1718,-7.169,-7.1684,-7.162,-7.1624,-7.1571,-7.1455,-7.1415,-7.1334,-7.1247,-7.1178,-7.1106,-7.103,-7.0925,-7.0843,-2.8298,-3.0806,-3.3699,0.0,0.0,0.0,0.0,0.0,0.0,0.0,0.0,0.0,0.0,0.0,0.0,0.0,0.0,0.0,0.0,0.0,0.0,0.0,0.0,0.0,0.0,0.0,0.0,0.0,0.0,0.0,0.0,0.0,0.0,0.0,0.0,0.0,0.0,-7.1987,-7.1987,-7.2026,-7.2612,-7.3338,-7.4218,-7.539,-7.6211,-7.6797,-7.7067,-7.7178,-7.7165,-7.7737,-7.8155,-7.8546,-8.0029,-8.1122,-8.1903,-8.1903,-8.2059,-8.2293,-8.2293,-8.2293,-8.2293,-8.2293,-8.2293,-8.2293,-8.2293,-8.2293,-8.2254,-8.1981,-8.1278,-8.0537,-8.0263,-7.9287,-7.8311,-7.8077,-7.7531,-7.7101,-7.7101,-7.7101,-7.7101,-7.7101,-7.7101,-7.7101,-7.7101,-7.7107,-7.7112,-7.7179,-7.7187,-7.7218,-7.7218,-7.5673,-7.4388,-7.3816,-7.2658,-7.1876,-7.1887,-7.1794,-7.1745,-7.1704,-7.1684,-7.1636,-7.1607,-7.1589,-7.1494,-7.1415,-7.1334,-7.1291,-7.1201,-7.1106,-7.1056,-7.1005,-7.0871,-7.0787,-2.8298,-3.0799,0.0,0.0,0.0,0.0,0.0,0.0,0.0,0.0,0.0,0.0,0.0,0.0,0.0,0.0,0.0,0.0,0.0,0.0,0.0,0.0,0.0,0.0,0.0,0.0,0.0,0.0,0.0,0.0,0.0,0.0,0.0,0.0,0.0,0.0,0.0,-7.1982,-7.1987,-7.1987,-7.1987,-7.2471,-7.3348,-7.5116,-7.5898,-7.5937,-7.6836,-7.7181,-7.7179,-7.714,-7.7609,-7.8507,-7.9366,-8.0224,-8.1005,-8.1005,-8.1552,-8.2293,-8.2293,-8.2293,-8.2293,-8.2293,-8.2293,-8.2293,-8.2293,-8.2293,-8.2137,-8.1239,-8.0381,-7.9483,-7.8624,-7.839,-7.8155,-7.7296,-7.7101,-7.7101,-7.7101,-7.7101,-7.7101,-7.7101,-7.7101,-7.7101,-7.7101,-7.7087,-7.713,-7.7185,-7.7187,-7.7179,-7.7179,-7.5657,-7.3894,-7.208,-7.1909,-7.1876,-7.1827,-7.1758,-7.1704,-7.1699,-7.1659,-7.1607,-7.1607,-7.1513,-7.1475,-7.1415,-7.1269,-7.1201,-7.1201,-7.1081,-7.1005,-7.1005,-7.0871,-7.0758,-2.8301,-3.0796,0.0,0.0,0.0,0.0,0.0,0.0,0.0,0.0,0.0,0.0,0.0,0.0,0.0,0.0,0.0,0.0,0.0,0.0,0.0,0.0,0.0,0.0,0.0,0.0,0.0,0.0,0.0,0.0,0.0,0.0,0.0,0.0,0.0,0.0,0.0,0.0,-7.1937,-7.1987,-7.1987,-7.2461,-7.333,-7.4489,-7.5312,-7.5937,-7.6836,-7.7187,-7.7183,-7.7117,-7.7609,-7.8429,-7.8663,-7.9326,-8.0146,-8.0771,-8.1161,-8.1474,-8.2098,-8.2293,-8.2293,-8.2293,-8.2293,-8.2293,-8.2293,-8.2293,-8.2137,-8.1239,-8.0381,-7.9483,-7.8624,-7.796,-7.7414,-7.7179,-7.7101,-7.7101,-7.7101,-7.7101,-7.7101,-7.7101,-7.7101,-7.7101,-7.7101,-7.7146,-7.7172,-7.7184,-7.72,-7.675,-7.554,-7.487,-7.3836,-7.2096,-7.1885,-7.1887,-7.1821,-7.1745,-7.1704,-7.1699,-7.1659,-7.1589,-7.1513,-7.1475,-7.1394,-7.1269,-7.1224,-7.1154,-7.1056,-7.103,-7.0952,-7.0843,-7.0758,-7.0708,-2.8298,0.0,0.0,0.0,0.0,0.0,0.0,0.0,0.0,0.0,0.0,0.0,0.0,0.0,0.0,0.0,0.0,0.0,0.0,0.0,0.0,0.0,0.0,0.0,0.0,0.0,0.0,0.0,0.0,0.0,0.0,0.0,0.0,0.0,0.0,0.0,0.0,0.0,0.0,-7.1982,-7.1987,-7.226,-7.2812,-7.3702,-7.4569,-7.5469,-7.668,-7.7187,-7.7187,-7.7178,-7.7434,-7.7882,-7.7882,-7.8429,-7.9248,-7.9756,-8.042,-8.1083,-8.1591,-8.202,-8.2293,-8.2293,-8.2293,-8.2293,-8.2293,-8.2059,-8.1591,-8.0732,-7.9873,-7.8975,-7.8116,-7.7492,-7.7101,-7.7101,-7.7101,-7.7101,-7.7101,-7.7101,-7.7101,-7.7101,-7.7101,-7.7101,-7.714,-7.7179,-7.7211,-7.7195,-7.7179,-7.6516,-7.4786,-7.4506,-7.3829,-7.208,-7.1897,-7.1817,-7.1758,-7.1718,-7.1675,-7.1653,-7.1624,-7.1513,-7.1455,-7.1435,-7.1334,-7.1201,-7.1178,-7.1106,-7.1005,-7.0952,-7.0871,-7.0787,-7.0708,-7.0647,0.0,0.0,0.0,0.0,0.0,0.0,0.0,0.0,0.0,0.0,0.0,0.0,0.0,0.0,0.0,0.0,0.0,0.0,0.0,0.0,0.0,0.0,0.0,0.0,0.0,0.0,0.0,0.0,0.0,0.0,0.0,0.0,0.0,0.0,0.0,0.0,0.0,0.0,0.0,0.0,-7.1976,-7.1987,-7.2026,-7.2909,-7.3822,-7.4805,-7.6406,-7.7148,-7.7187,-7.7187,-7.7142,-7.7107,-7.7101,-7.757,-7.8272,-7.835,-7.9405,-8.0771,-8.0849,-8.1435,-8.2176,-8.2176,-8.2254,-8.2293,-8.2215,-8.163,-8.081,-7.9834,-7.9014,-7.8194,-7.7335,-7.7101,-7.7101,-7.7101,-7.7101,-7.7101,-7.7101,-7.7101,-7.7101,-7.7101,-7.7101,-7.714,-7.7179,-7.719,-7.722,-7.7195,-7.714,-7.6471,-7.4733,-7.4499,-7.3821,-7.2101,-7.1827,-7.1794,-7.1718,-7.1675,-7.1669,-7.1607,-7.1552,-7.1475,-7.1415,-7.1415,-7.1274,-7.1085,-7.1014,-7.0902,-7.0748,-7.0612,-7.0556,-7.0527,-7.0494,-7.047,0.0,0.0,0.0,0.0,0.0,0.0,0.0,0.0,0.0,0.0,0.0,0.0,0.0,0.0,0.0,0.0,0.0,0.0,0.0,0.0,0.0,0.0,0.0,0.0,0.0,0.0,0.0,0.0,0.0,0.0,0.0,0.0,0.0,0.0,0.0,0.0,-7.1897,-7.1906,-7.1885,0.0,-7.1924,-7.193,-7.193,-7.289,-7.4165,-7.5625,-7.6015,-7.6562,-7.7187,-7.7187,-7.7187,-7.7184,-7.7117,-7.7218,-7.7453,-7.8155,-7.8624,-7.9053,-7.9756,-8.0537,-8.1278,-8.1278,-8.1747,-8.2176,-8.1474,-8.1161,-8.0693,-7.9131,-7.8546,-7.8194,-7.7335,-7.7101,-7.7101,-7.7101,-7.7101,-7.7101,-7.7101,-7.7101,-7.7101,-7.7101,-7.714,-7.7179,-7.7218,-7.7187,-7.7165,-7.7146,-7.7101,-7.6471,-7.4733,-7.4484,-7.3844,-7.2092,-7.1856,-7.1758,-7.1718,-7.1675,-7.1669,-7.1607,-7.1552,-7.1475,-7.1415,-7.1291,-7.0892,-7.0165,-7.0092,-6.9708,-6.8883,-6.8855,-6.8771,-6.8693,-6.9314,-6.9489,0.0,0.0,0.0,0.0,0.0,0.0,0.0,0.0,0.0,0.0,0.0,0.0,0.0,0.0,0.0,0.0,0.0,0.0,0.0,0.0,0.0,0.0,0.0,0.0,0.0,0.0,0.0,0.0,0.0,0.0,0.0,0.0,0.0,0.0,0.0,0.0,-7.1838,-7.1887,-7.1906,-7.1915,-7.1901,-7.1916,-7.1924,-7.2879,-7.381,-7.4687,-7.5547,-7.6172,-7.6601,-7.7031,-7.7187,-7.7187,-7.7142,-7.713,-7.7161,-7.7614,-7.8038,-7.8468,-7.8936,-7.9639,-8.0381,-8.0381,-8.0693,-8.0966,-8.0537,-8.0107,-7.9561,-7.8663,-7.8116,-7.7687,-7.7218,-7.7101,-7.7101,-7.7101,-7.7101,-7.7101,-7.7101,-7.7112,-7.7117,-7.714,-7.7179,-7.7195,-7.7187,-7.7172,-7.714,-7.7101,-7.7095,-7.6458,-7.4726,-7.4468,-7.3778,-7.205,-7.177,-7.1732,-7.169,-7.1669,-7.1603,-7.1571,-7.1475,-7.1221,-7.0771,-7.0645,-7.0382,-6.991,-6.9387,-6.8859,-6.829,-6.8234,-6.8148,-6.8097,-6.8457,-6.8744,0.0,0.0,0.0,0.0,0.0,0.0,0.0,0.0,0.0,0.0,0.0,0.0,0.0,0.0,0.0,0.0,0.0,0.0,0.0,0.0,0.0,0.0,0.0,0.0,0.0,0.0,0.0,0.0,0.0,0.0,0.0,0.0,0.0,0.0,0.0,-7.1739,-7.1583,-7.1643,-7.1614,-7.1458,-7.1603,-7.1667,-7.1728,-7.2645,-7.3143,-7.3397,-7.4804,-7.5547,-7.5742,-7.6601,-7.6992,-7.6992,-7.7148,-7.7186,-7.71,-7.7122,-7.7581,-7.8166,-7.8166,-7.8747,-7.9483,-7.9483,-7.96,-7.9678,-7.9522,-7.8975,-7.835,-7.8233,-7.7648,-7.7101,-7.7101,-7.7107,-7.7107,-7.7101,-7.7101,-7.7101,-7.7101,-7.7122,-7.713,-7.7195,-7.72,-7.7183,-7.7161,-7.7146,-7.7101,-7.7101,-7.7089,-7.6482,-7.4702,-7.445,-7.3709,-7.2004,-7.1732,-7.1704,-7.1699,-7.1659,-7.1589,-7.1494,-7.1435,-7.0986,-7.0065,-6.9803,-6.9601,-6.9447,-6.8565,-6.8037,-6.7829,-6.7726,-6.7638,-6.7607,-6.7566,-6.7921,0.0,0.0,0.0,0.0,0.0,0.0,0.0,0.0,0.0,0.0,0.0,0.0,0.0,0.0,0.0,0.0,0.0,0.0,0.0,0.0,0.0,0.0,0.0,0.0,0.0,0.0,0.0,0.0,0.0,0.0,0.0,0.0,-7.1743,-7.1809,-7.1809,0.0,-7.0765,-7.0775,-7.0385,-6.9645,-7.0406,-7.0793,-7.0909,-7.1696,-7.2528,-7.333,-7.354,-7.4099,-7.4844,-7.5703,-7.6055,-7.6133,-7.6914,-7.7187,-7.7187,-7.7187,-7.7222,-7.7251,-7.7251,-7.7825,-7.8585,-7.8585,-7.9092,-7.9561,-7.8819,-7.8507,-7.8233,-7.7492,-7.7179,-7.7101,-7.7101,-7.7083,-7.7091,-7.7185,-7.7179,-7.7179,-7.7179,-7.7185,-7.72,-7.7184,-7.7183,-7.7165,-7.7133,-7.7117,-7.7101,-7.7101,-7.7089,-7.6482,-7.4702,-7.445,-7.3709,-7.2004,-7.1732,-7.1704,-7.1699,-7.1659,-7.1589,-7.1494,-7.1435,-7.0986,-7.0065,-6.9224,-6.8381,-6.76,-6.7295,-6.6765,-6.5953,-6.5896,-6.5818,-6.5703,-6.6357,-6.6674,0.0,0.0,0.0,0.0,0.0,0.0,0.0,0.0,0.0,0.0,0.0,0.0,0.0,0.0,0.0,0.0,0.0,0.0,0.0,0.0,0.0,0.0,0.0,0.0,0.0,0.0,0.0,0.0,0.0,0.0,0.0,-7.1218,-7.1714,-7.1743,-7.1303,0.0,-7.0547,-7.008,-6.9624,-6.9284,-6.9704,-6.9878,-6.9943,-7.077,-7.1689,-7.2612,-7.3095,-7.3533,-7.3934,-7.4798,-7.5154,-7.5195,-7.5586,-7.6055,-7.6484,-7.6484,-7.6757,-7.7147,-7.7147,-7.7417,-7.7725,-7.7677,-7.7946,-7.818,-7.7786,-7.7669,-7.759,-7.7204,-7.7087,-7.7122,-7.7146,-7.7151,-7.7156,-7.7185,-7.7218,-7.719,-7.7215,-7.7217,-7.7184,-7.7217,-7.7195,-7.7185,-7.7117,-7.7112,-7.7095,-7.7089,-7.7067,-7.6427,-7.4684,-7.4431,-7.3726,-7.1939,-7.1732,-7.169,-7.163,-7.1586,-7.1513,-7.1494,-7.1394,-7.0667,-6.9262,-6.8791,-6.7884,-6.6436,-6.6293,-6.6019,-6.5608,-6.5494,-6.5413,-6.5328,-6.5639,-6.596,0.0,0.0,0.0,0.0,0.0,0.0,0.0,0.0,0.0,0.0,0.0,0.0,0.0,0.0,0.0,0.0,0.0,0.0,0.0,0.0,0.0,0.0,0.0,0.0,0.0,0.0,0.0,0.0,0.0,0.0,-6.9616,-7.0542,-7.1023,-7.1038,-7.0445,-7.0058,-6.985,-6.8954,-6.8588,-6.865,-6.8865,-6.8963,-6.9011,-6.9887,-7.0661,-7.1351,-7.2489,-7.2963,-7.3047,-7.3924,-7.4285,-7.4294,-7.449,-7.4999,-7.5585,-7.5586,-7.5976,-7.6562,-7.6797,-7.6875,-7.6914,-7.7066,-7.7142,-7.7142,-7.7142,-7.7142,-7.7142,-7.7142,-7.7142,-7.7139,-7.7204,-7.72,-7.72,-7.72,-7.7208,-7.722,-7.7187,-7.7187,-7.722,-7.719,-7.7179,-7.7179,-7.7101,-7.7095,-7.7089,-7.7114,-7.6856,-7.6136,-7.4597,-7.4205,-7.3457,-7.1874,-7.1704,-7.1675,-7.162,-7.155,-7.1494,-7.1475,-7.1291,-7.0405,-6.8699,-6.855,-6.7641,-6.5832,-6.5674,-6.558,-6.558,-6.5435,-6.5352,-6.5258,-6.5161,-6.5437,0.0,0.0,0.0,0.0,0.0,0.0,0.0,0.0,0.0,0.0,0.0,0.0,0.0,0.0,0.0,0.0,0.0,0.0,0.0,0.0,0.0,0.0,0.0,0.0,0.0,0.0,0.0,0.0,0.0,0.0,-6.7946,-6.8762,-6.9244,-6.925,-6.9172,-6.8812,-6.8021,-6.7165,-6.6762,-6.6836,-6.7615,-6.7987,-6.8115,-6.8973,-6.938,-6.9561,-7.1253,-7.2015,-7.2143,-7.3008,-7.3359,-7.3442,-7.4282,-7.4637,-7.4679,-7.4687,-7.4687,-7.4844,-7.5664,-7.5976,-7.6094,-7.6914,-7.7187,-7.7187,-7.7187,-7.7187,-7.7187,-7.7187,-7.7187,-7.7187,-7.7187,-7.7187,-7.7187,-7.7187,-7.7217,-7.72,-7.7187,-7.7215,-7.7185,-7.7218,-7.714,-7.7101,-7.7101,-7.7089,-7.7114,-7.7114,-7.634,-7.5445,-7.4509,-7.3687,-7.277,-7.1796,-7.169,-7.1669,-7.1607,-7.1513,-7.1475,-7.1415,-7.1269,-7.0405,-6.8699,-6.855,-6.7641,-6.5832,-6.5674,-6.558,-6.5494,-6.5383,-6.5258,-6.5199,-6.5095,-6.4993,-2.5138,0.0,0.0,0.0,0.0,0.0,0.0,0.0,0.0,0.0,0.0,0.0,0.0,0.0,0.0,0.0,0.0,0.0,0.0,0.0,0.0,0.0,0.0,0.0,0.0,0.0,0.0,0.0,0.0,0.0,-6.779,-6.8645,-6.9111,-6.9088,-6.8559,-6.7875,-6.7061,-6.6763,-6.6633,-6.6645,-6.6918,-6.7097,-6.7169,-6.8026,-6.8408,-6.8522,-6.974,-7.0583,-7.1234,-7.2099,-7.2456,-7.2495,-7.2817,-7.3252,-7.3759,-7.3768,-7.4129,-7.4644,-7.4956,-7.5428,-7.5937,-7.625,-7.6758,-7.7187,-7.7187,-7.7187,-7.7187,-7.7187,-7.7187,-7.7187,-7.7187,-7.7187,-7.7187,-7.7211,-7.7195,-7.7185,-7.7165,-7.7126,-7.7122,-7.7146,-7.7101,-7.7095,-7.7089,-7.7114,-7.6911,-7.6292,-7.5923,-7.5162,-7.3765,-7.3313,-7.2731,-7.1807,-7.1714,-7.1669,-7.1607,-7.1552,-7.1455,-7.1334,-7.1201,-7.0334,-6.8627,-6.845,-6.7511,-6.5712,-6.558,-6.5523,-6.5494,-6.5383,-6.5296,-6.5199,-6.5061,-6.4993,-2.4861,-2.6018,0.0,0.0,0.0,0.0,0.0,0.0,0.0,0.0,0.0,0.0,0.0,0.0,0.0,0.0,0.0,0.0,0.0,0.0,0.0,0.0,0.0,0.0,0.0,0.0,0.0,0.0,0.0,0.0,-6.7309,-6.7891,-6.8218,-6.8218,-6.7674,-6.7106,-6.6592,-6.6581,-6.6594,-6.6607,-6.6607,-6.662,-6.6696,-6.7253,-6.7509,-6.7628,-6.8505,-6.9389,-7.0278,-7.0837,-7.1117,-7.1162,-7.1435,-7.1903,-7.2456,-7.2768,-7.3247,-7.3768,-7.4041,-7.4559,-7.5073,-7.5389,-7.5858,-7.6366,-7.6679,-7.6758,-7.6836,-7.7109,-7.7186,-7.7183,-7.7183,-7.7184,-7.7184,-7.7161,-7.7185,-7.714,-7.7101,-7.7117,-7.7083,-7.7107,-7.7095,-7.7011,-7.6724,-7.663,-7.6301,-7.5416,-7.5006,-7.44,-7.3262,-7.2809,-7.2393,-7.1792,-7.1669,-7.162,-7.1589,-7.1494,-7.1415,-7.1269,-7.1154,-7.031,-6.8539,-6.8371,-6.7456,-6.5646,-6.5523,-6.5465,-6.5405,-6.5321,-6.5226,-6.5199,-6.5027,-6.4924,0.0,0.0,0.0,0.0,0.0,0.0,0.0,0.0,0.0,0.0,0.0,0.0,0.0,0.0,0.0,0.0,0.0,0.0,0.0,0.0,0.0,0.0,0.0,0.0,0.0,0.0,0.0,0.0,0.0,-6.5552,-6.6329,-6.6439,-6.6508,-6.6508,-6.6508,-6.6508,-6.6508,-6.6508,-6.6524,-6.6606,-6.6606,-6.6581,-6.6581,-6.6657,-6.6708,-6.6758,-6.7589,-6.8444,-6.9241,-6.928,-6.9334,-6.9465,-7.0323,-7.0642,-7.0777,-7.1597,-7.1948,-7.2065,-7.2924,-7.3275,-7.3437,-7.4279,-7.4598,-7.4757,-7.5624,-7.5859,-7.6055,-7.6875,-7.7137,-7.714,-7.714,-7.7122,-7.7097,-7.7097,-7.7083,-7.7101,-7.7101,-7.7062,-7.7062,-7.7101,-7.7089,-7.6802,-7.5943,-7.5716,-7.5367,-7.447,-7.3631,-7.3091,-7.3068,-7.2251,-7.1704,-7.1699,-7.1659,-7.1589,-7.1494,-7.1435,-7.1334,-7.1201,-7.113,-7.031,-6.8578,-6.8371,-6.7456,-6.5646,-6.5523,-6.5405,-6.529,-6.5232,-6.5199,-6.5199,-6.4958,-6.4819,-2.4296,0.0,0.0,0.0,0.0,0.0,0.0,0.0,0.0,0.0,0.0,0.0,0.0,0.0,0.0,0.0,0.0,0.0,0.0,0.0,0.0,0.0,0.0,0.0,0.0,0.0,0.0,0.0,0.0,-6.5174,-6.5513,-6.6144,-6.6508,-6.6508,-6.6508,-6.6508,-6.6508,-6.6508,-6.6508,-6.6524,-6.6524,-6.6553,-6.6581,-6.6633,-6.6607,-6.6633,-6.6891,-6.7147,-6.753,-6.8795,-6.9327,-6.9366,-6.96,-6.9685,-6.9724,-6.9958,-7.048,-7.1072,-7.1345,-7.2255,-7.3359,-7.3598,-7.4111,-7.4657,-7.4896,-7.4946,-7.4993,-7.5267,-7.5301,-7.5447,-7.6092,-7.6677,-7.7112,-7.7112,-7.7107,-7.7101,-7.7101,-7.6581,-7.634,-7.6965,-7.6568,-7.6053,-7.5785,-7.5182,-7.447,-7.3592,-7.3247,-7.286,-7.216,-7.186,-7.1684,-7.162,-7.1624,-7.1571,-7.1435,-7.1394,-7.1269,-7.113,-7.1056,-7.0208,-6.8448,-6.8262,-6.7372,-6.5561,-6.5465,-6.5383,-6.529,-6.5232,-6.5128,-6.5061,-6.485,-6.501,-2.5885,-2.6262,-2.6961,-2.832,0.0,0.0,0.0,0.0,0.0,0.0,0.0,0.0,0.0,0.0,0.0,0.0,0.0,0.0,0.0,0.0,0.0,0.0,0.0,0.0,0.0,0.0,0.0,0.0,-6.3204,-6.4149,-6.4621,-6.5468,-6.5949,-6.5965,-6.6299,-6.6439,-6.6439,-6.6112,-6.5918,-6.5934,-6.5584,-6.546,-6.5542,-6.5517,-6.5531,-6.5557,-6.592,-6.6088,-6.6229,-6.7608,-6.8193,-6.8249,-6.8609,-6.8765,-6.8851,-6.9163,-6.9639,-7.0114,-7.0114,-7.1026,-7.2216,-7.2216,-7.2801,-7.3588,-7.3945,-7.4072,-7.4119,-7.451,-7.4588,-7.4701,-7.5233,-7.5696,-7.6008,-7.6008,-7.6002,-7.6035,-7.6035,-7.5631,-7.5506,-7.6411,-7.5811,-7.5092,-7.4714,-7.4187,-7.3553,-7.2702,-7.2561,-7.2342,-7.1782,-7.1714,-7.1669,-7.1607,-7.1589,-7.1494,-7.1415,-7.1313,-7.1224,-7.1106,-7.103,-7.0182,-6.8394,-6.8234,-6.7343,-6.5532,-6.5405,-6.5352,-6.5264,-6.5232,-6.5095,-6.4958,-6.5122,-6.5389,-2.8126,-2.8081,-2.8314,-2.9175,0.0,0.0,-3.0435,-3.1194,0.0,0.0,0.0,0.0,0.0,0.0,0.0,0.0,0.0,0.0,0.0,0.0,0.0,0.0,0.0,0.0,0.0,0.0,0.0,-6.077,-6.1792,-6.2814,-6.3829,-6.4605,-6.5064,-6.5056,-6.5763,-6.6118,-6.6118,-6.5347,-6.4998,-6.5048,-6.4272,-6.3938,-6.3969,-6.3973,-6.3987,-6.404,-6.4805,-6.5129,-6.5219,-6.5998,-6.6474,-6.678,-6.756,-6.789,-6.8024,-6.8765,-6.9077,-6.9163,-6.9163,-6.9756,-7.0558,-7.0668,-7.1228,-7.2021,-7.2879,-7.3158,-7.3315,-7.4095,-7.4369,-7.4447,-7.4447,-7.4486,-7.4486,-7.448,-7.4506,-7.4499,-7.4499,-7.4406,-7.4585,-7.535,-7.4858,-7.4041,-7.33,-7.3046,-7.2702,-7.1926,-7.1797,-7.1771,-7.1714,-7.1684,-7.1653,-7.1607,-7.1513,-7.1455,-7.1355,-7.1269,-7.1178,-7.1081,-7.103,-7.0156,-6.8367,-6.8234,-6.7343,-6.5532,-6.5444,-6.5321,-6.5199,-6.5199,-6.5137,-6.5004,-6.5578,-6.5878,-2.8081,-2.8081,-2.8314,0.0,0.0,0.0,-3.0467,-3.0754,0.0,0.0,0.0,0.0,0.0,0.0,0.0,0.0,0.0,0.0,0.0,0.0,0.0,0.0,0.0,0.0,0.0,0.0,-5.7404,-5.8952,-6.0553,-6.2138,-6.3726,-6.3973,-6.4067,-6.4084,-6.4222,-6.43,-6.43,-6.4128,-6.405,-6.4067,-6.3912,-6.3834,-6.3851,-6.3851,-6.3883,-6.3953,-6.4109,-6.4192,-6.4286,-6.4442,-6.5324,-6.6645,-6.6813,-6.6902,-6.6974,-6.7169,-6.7657,-6.8241,-6.8241,-6.8843,-6.9678,-7.038,-7.0731,-7.1051,-7.1909,-7.2151,-7.221,-7.2456,-7.3002,-7.3543,-7.3491,-7.3999,-7.4499,-7.4484,-7.4515,-7.4515,-7.4515,-7.3952,-7.3505,-7.367,-7.3544,-7.3378,-7.3153,-7.2546,-7.2004,-7.1848,-7.1757,-7.1714,-7.1699,-7.1636,-7.1607,-7.1513,-7.1455,-7.1355,-7.1247,-7.1178,-7.1081,-7.103,-7.0952,-7.014,-6.8282,-6.8206,-6.7314,-6.5482,-6.529,-6.5161,-6.5061,-6.4993,-6.5229,-6.5766,-6.5804,-6.6442,0.0,0.0,0.0,-3.0069,0.0,0.0,0.0,-3.0653,0.0,0.0,0.0,0.0,0.0,0.0,0.0,0.0,0.0,0.0,0.0,0.0,0.0,0.0,0.0,0.0,0.0,0.0,-5.5659,-5.786,-5.9177,-6.0511,-6.1845,-6.2271,-6.2715,-6.3158,-6.3568,-6.3783,-6.3783,-6.3339,-6.3106,-6.3163,-6.2698,-6.2521,-6.2538,-6.2538,-6.2555,-6.261,-6.3036,-6.3224,-6.3293,-6.372,-6.445,-6.527,-6.5324,-6.5621,-6.5983,-6.5983,-6.6552,-6.7325,-6.7335,-6.7901,-6.8709,-6.9146,-6.9584,-7.0021,-7.0489,-7.0926,-7.1363,-7.1806,-7.2275,-7.2587,-7.2572,-7.2885,-7.3197,-7.3181,-7.3211,-7.3202,-7.3202,-7.2823,-7.2479,-7.2479,-7.2156,-7.2,-7.2378,-7.2082,-7.1732,-7.1757,-7.134,-7.1023,-7.1015,-7.0982,-7.0911,-7.0796,-7.1164,-7.1334,-7.1224,-7.113,-7.1081,-7.1005,-7.0898,-7.0057,-6.8282,-6.8148,-6.7293,-6.539,-6.5226,-6.5128,-6.4989,-6.5305,-6.5651,-6.6031,-6.6295,-6.7045,0.0,0.0,0.0,0.0,0.0,-3.0923,0.0,0.0,0.0,0.0,0.0,0.0,0.0,0.0,0.0,0.0,0.0,0.0,0.0,0.0,0.0,0.0,0.0,0.0,0.0,0.0,-5.4274,-5.6707,-5.7699,-5.8535,-5.9459,-6.024,-6.1092,-6.1961,-6.2662,-6.3109,-6.3264,-6.253,-6.2181,-6.2218,-6.1521,-6.1191,-6.1281,-6.1281,-6.1281,-6.132,-6.1978,-6.225,-6.2305,-6.3042,-6.333,-6.3456,-6.3909,-6.4455,-6.5051,-6.5051,-6.5609,-6.6348,-6.6423,-6.6992,-6.7754,-6.793,-6.8583,-6.9263,-6.9311,-6.9779,-7.0481,-7.1191,-7.1386,-7.1386,-7.1417,-7.1417,-7.1417,-7.1369,-7.139,-7.1409,-7.1526,-7.1494,-7.1485,-7.1446,-7.0875,-7.0642,-7.1407,-7.1342,-7.1184,-7.1194,-7.0596,-7.0098,-7.0072,-7.0037,-7.0001,-6.9886,-7.062,-7.1081,-7.0969,-7.1053,-7.1056,-7.0979,-7.0871,-7.0105,-6.8484,-6.8012,-6.698,-6.5296,-6.5194,-6.5171,-6.5221,-6.5726,-6.6106,-6.622,-6.6935,-6.7686,0.0,0.0,0.0,0.0,-3.1856,0.0,0.0,0.0,0.0,0.0,0.0,0.0,0.0,0.0,0.0,0.0,0.0,0.0,0.0,0.0,0.0,0.0,0.0,0.0,0.0,0.0,0.0,-5.504,-5.5986,-5.6823,-5.7628,-5.8441,-5.9276,-6.0169,-6.0285,-6.0711,-6.1389,-6.1311,-6.1234,-6.1234,-6.1157,-6.1137,-6.1137,-6.1137,-6.1155,-6.1229,-6.1307,-6.138,-6.1452,-6.153,-6.1569,-6.174,-6.3301,-6.4022,-6.417,-6.417,-6.4688,-6.5453,-6.5453,-6.6049,-6.6905,-6.7657,-6.8487,-6.9223,-6.9284,-6.9353,-6.9449,-6.9592,-6.9592,-6.9592,-6.9605,-6.9605,-6.9587,-6.9507,-6.9523,-6.964,-7.0173,-7.0278,-7.0265,-7.0226,-7.0134,-7.0187,-7.0603,-6.9953,-6.942,-6.9405,-6.9267,-6.914,-6.9123,-6.909,-6.9033,-6.9014,-6.9667,-7.0058,-7.0049,-7.0632,-7.0979,-7.0925,-7.0843,-7.0335,-6.9289,-6.7584,-6.6243,-6.5232,-6.5095,-6.5335,-6.595,-6.5992,-6.6371,-6.6973,-6.7686,-6.8391,0.0,0.0,0.0,0.0,0.0,0.0,-3.1545,0.0,-3.0722,0.0,0.0,0.0,0.0,0.0,0.0,0.0,0.0,0.0,0.0,0.0,0.0,0.0,0.0,0.0,0.0,0.0,0.0,0.0,0.0,-5.4798,-5.6614,-5.6985,-5.7766,-5.9106,-5.9145,-5.9532,-6.0383,-6.0364,-6.0577,-6.1041,-6.1041,-6.1021,-6.1021,-6.1021,-6.106,-6.106,-6.106,-6.1137,-6.1173,-6.1173,-6.1191,-6.1303,-6.2056,-6.2649,-6.3123,-6.3123,-6.3697,-6.4503,-6.4492,-6.5089,-6.5972,-6.6854,-6.7372,-6.7774,-6.8331,-6.8499,-6.86,-6.9117,-6.9234,-6.9234,-6.9262,-6.9251,-6.9251,-6.9227,-6.946,-6.9772,-7.0044,-6.9837,-6.9552,-6.9525,-6.9225,-6.8987,-6.9088,-6.9088,-6.9088,-6.9034,-6.8613,-6.8213,-6.8199,-6.8161,-6.8123,-6.8083,-6.8734,-6.9208,-6.9138,-6.9836,-7.0221,-7.0113,-6.9999,-6.9728,-6.9291,-6.798,-6.7049,-6.6645,-6.6539,-6.6587,-6.6859,-6.7203,-6.7503,-6.7803,-6.7984,-6.85,-3.6401,0.0,0.0,0.0,0.0,0.0,0.0,0.0,0.0,0.0,0.0,0.0,0.0,0.0,-3.0831,-3.146,0.0,0.0,0.0,0.0,0.0,0.0,0.0,0.0,0.0,0.0,0.0,0.0,-5.1334,0.0,-5.4667,-5.5413,-5.6411,-5.783,-5.8101,-5.8642,-5.9514,-5.9476,-5.9843,-6.0634,-6.0632,-6.0766,-6.0997,-6.0997,-6.1018,-6.1021,-6.1021,-6.1041,-6.108,-6.108,-6.1099,-6.1157,-6.1137,-6.1521,-6.2099,-6.2134,-6.2749,-6.3518,-6.3511,-6.4139,-6.5061,-6.5945,-6.6244,-6.6413,-6.7269,-6.7554,-6.7671,-6.8294,-6.8488,-6.8488,-6.8488,-6.8488,-6.8488,-6.8475,-6.88,-6.9124,-6.9111,-6.8786,-6.8461,-6.8433,-6.8039,-6.7704,-6.7631,-6.8053,-6.8341,-6.8308,-6.7748,-6.7325,-6.7251,-6.7213,-6.7193,-6.7132,-6.7862,-6.8297,-6.8227,-6.8963,-6.9436,-6.9452,-6.9574,-6.952,-6.9196,-6.8488,-6.7969,-6.7711,-6.7569,-6.7576,-6.7694,-6.8109,-6.8407,-6.8593,-6.847,-6.8688,0.0,0.0,0.0,-3.4886,0.0,0.0,0.0,0.0,-3.2982,0.0,0.0,0.0,0.0,-3.0715,-3.0707,-3.0729,-3.0754,0.0,0.0,0.0,0.0,0.0,0.0,0.0,0.0,0.0,0.0,0.0,-4.9815,0.0,-5.1178,-5.3567,-5.5281,-5.6051,-5.6902,-5.7735,-5.853,-5.853,-5.8935,-5.9745,-5.9724,-6.0187,-6.0997,-6.0997,-6.0997,-6.0997,-6.0997,-6.0997,-6.0997,-6.0997,-6.0997,-6.0997,-6.1021,-6.1002,-6.106,-6.1247,-6.184,-6.2538,-6.2538,-6.3153,-6.4077,-6.497,-6.5304,-6.5517,-6.6373,-6.6633,-6.6659,-6.6659,-6.6659,-6.6659,-6.6659,-6.6659,-6.6698,-6.6697,-6.6697,-6.6697,-6.664,-6.6586,-6.6571,-6.6489,-6.6472,-6.6472,-6.6454,-6.645,-6.6506,-6.6472,-6.6379,-6.6341,-6.6341,-6.6303,-6.6204,-6.614,-6.6846,-6.734,-6.7268,-6.7962,-6.8729,-6.9366,-7.0118,-7.0171,-6.9234,-6.8993,-6.851,-6.7711,-6.7498,-6.777,-6.8451,-6.8334,-6.8669,-6.9336,-6.9209,-6.9203,0.0,0.0,-3.6945,-3.6362,0.0,0.0,0.0,0.0,0.0,0.0,0.0,0.0,0.0,-3.1576,-3.1382,-3.0807,-3.0697,-3.0814,0.0,0.0,0.0,0.0,0.0,0.0,0.0,0.0,0.0,-4.6348,-4.7349,-4.8743,0.0,-5.1837,-5.3189,-5.5122,-5.5436,-5.623,-5.7641,-5.7622,-5.7986,-5.8757,-5.8792,-5.9232,-6.0003,-6.0003,-6.0371,-6.0933,-6.0933,-6.0955,-6.0997,-6.0997,-6.0997,-6.0997,-6.1018,-6.098,-6.1,-6.1118,-6.1384,-6.1712,-6.2289,-6.2693,-6.3098,-6.4006,-6.4294,-6.4349,-6.466,-6.5141,-6.5623,-6.5623,-6.6011,-6.6477,-6.6477,-6.6477,-6.6461,-6.6461,-6.6493,-6.6524,-6.6508,-6.6411,-6.6283,-6.6284,-6.6322,-6.634,-6.6284,-6.6283,-6.634,-6.634,-6.6322,-6.6303,-6.6264,-6.6165,-6.6123,-6.6102,-6.6283,-6.6444,-6.642,-6.6999,-6.7965,-6.9327,-6.959,-6.9731,-6.99,-6.9836,-6.9579,-6.9203,-6.9094,-6.9134,-6.9283,-6.9164,-6.9234,-6.9374,-6.9246,-6.9203,-3.9781,-3.8887,0.0,-3.7644,-3.6479,0.0,-3.543,0.0,0.0,0.0,0.0,0.0,0.0,-3.2205,-3.1824,-3.1248,-3.0905,-3.0724,0.0,-3.1493,0.0,0.0,0.0,0.0,0.0,0.0,-4.191,-4.4102,-4.5415,-4.7007,0.0,0.0,-5.1756,-5.3365,-5.395,-5.488,-5.6252,-5.6212,-5.675,-5.7846,-5.7841,-5.828,-5.9088,-5.9358,-5.9842,-6.0426,-6.0734,-6.0888,-6.0933,-6.0933,-6.0933,-6.0933,-6.0955,-6.0955,-6.0976,-6.1021,-6.1099,-6.1214,-6.1754,-6.1983,-6.2155,-6.3064,-6.3335,-6.3391,-6.3701,-6.4205,-6.4632,-6.4632,-6.5019,-6.5485,-6.5485,-6.5485,-6.5485,-6.5485,-6.5635,-6.5824,-6.5824,-6.5565,-6.5257,-6.5025,-6.5025,-6.5199,-6.5702,-6.58,-6.5935,-6.6206,-6.6284,-6.6264,-6.6165,-6.6123,-6.608,-6.6074,-6.6044,-6.5972,-6.5947,-6.6523,-6.7487,-6.8808,-6.9068,-6.9546,-7.0286,-7.022,-7.0149,-7.0003,-6.9929,-6.9815,-6.9659,-6.9617,-6.9495,-6.9332,-6.9246,-6.9203]}]]